Temperatur und Luftfeuchte

Temperatur und Luftfeuchte

Nummer Datum und Zeit Sensor ID Temperatur in Celsius gef├╝hlte Temperatur Luftfeuchte in %
121314 2023-10-04 08:24:21 Aussentemperatur 10.60 9.83 80.90
121313 2023-10-04 08:01:31 Terrasse 10.00 9.01 74.90
121312 2023-10-04 07:59:37 Bahnzimmer 17.80 17.59 75.00
121311 2023-10-04 07:55:54 Aussentemperatur 10.70 9.93 80.50
121310 2023-10-04 07:33:23 Terrasse 9.90 8.89 74.30
121309 2023-10-04 07:29:36 Bahnzimmer 17.80 17.57 74.20
121308 2023-10-04 07:27:27 Aussentemperatur 10.70 9.93 80.60
121307 2023-10-04 07:05:15 Terrasse 10.00 9.01 74.70
121306 2023-10-04 06:59:36 Bahnzimmer 17.80 17.58 74.30
121305 2023-10-04 06:59:01 Aussentemperatur 10.90 10.13 80.00
121304 2023-10-04 06:37:06 Terrasse 9.90 8.90 74.80
121303 2023-10-04 06:30:32 Aussentemperatur 10.90 10.14 80.20
121302 2023-10-04 06:29:35 Bahnzimmer 17.80 17.57 74.20
121301 2023-10-04 06:08:58 Terrasse 10.00 8.99 74.00
121300 2023-10-04 06:02:05 Aussentemperatur 10.90 10.13 79.80
121299 2023-10-04 05:59:34 Bahnzimmer 17.80 17.57 74.20
121298 2023-10-04 05:40:51 Terrasse 10.20 9.21 74.20
121297 2023-10-04 05:33:38 Aussentemperatur 11.10 10.34 79.50
121296 2023-10-04 05:29:34 Bahnzimmer 17.80 17.57 74.20
121295 2023-10-04 05:12:40 Terrasse 10.00 9.00 74.60
121294 2023-10-04 05:05:10 Aussentemperatur 11.00 10.23 79.40
121293 2023-10-04 04:59:33 Bahnzimmer 17.90 17.68 74.20
121292 2023-10-04 04:44:31 Terrasse 9.70 8.67 74.40
121291 2023-10-04 04:36:42 Aussentemperatur 10.70 9.91 79.80
121290 2023-10-04 04:29:32 Bahnzimmer 17.90 17.69 74.30
121289 2023-10-04 04:16:23 Terrasse 9.70 8.64 73.40
121288 2023-10-04 04:08:15 Aussentemperatur 10.60 9.79 79.50
121287 2023-10-04 03:59:32 Bahnzimmer 18.00 17.79 74.20
121286 2023-10-04 03:48:19 Terrasse 9.70 8.65 73.80
121285 2023-10-04 03:39:45 Aussentemperatur 10.50 9.69 79.80
121284 2023-10-04 03:29:31 Bahnzimmer 18.00 17.79 74.10
121283 2023-10-04 03:20:10 Terrasse 10.00 8.94 72.20
121282 2023-10-04 03:11:18 Aussentemperatur 10.60 9.79 79.50
121281 2023-10-04 02:59:30 Bahnzimmer 18.00 17.80 74.30
121280 2023-10-04 02:52:03 Terrasse 10.00 8.94 72.30
121279 2023-10-04 02:42:51 Aussentemperatur 10.80 10.01 79.60
121278 2023-10-04 02:29:30 Bahnzimmer 18.00 17.79 74.20
121277 2023-10-04 02:23:55 Terrasse 10.20 9.16 72.10
121276 2023-10-04 02:14:25 Aussentemperatur 10.90 10.12 79.60
121275 2023-10-04 01:59:29 Bahnzimmer 18.10 17.90 74.10
121274 2023-10-04 01:55:48 Terrasse 10.50 9.47 71.50
121273 2023-10-04 01:45:58 Aussentemperatur 11.10 10.35 79.80
121272 2023-10-04 01:29:28 Bahnzimmer 18.10 17.90 74.20
121271 2023-10-04 01:27:45 Terrasse 10.80 9.80 71.40
121270 2023-10-04 01:17:33 Aussentemperatur 11.40 10.68 80.00
121269 2023-10-04 00:59:35 Terrasse 11.00 10.04 72.00
121268 2023-10-04 00:59:27 Bahnzimmer 18.10 17.91 74.30
121267 2023-10-04 00:49:07 Aussentemperatur 11.40 10.68 79.80
121266 2023-10-04 00:31:27 Terrasse 11.00 10.01 71.20
121265 2023-10-04 00:29:27 Bahnzimmer 18.10 17.91 74.40
121264 2023-10-04 00:20:41 Aussentemperatur 11.70 11.02 80.10
121263 2023-10-04 00:03:22 Terrasse 11.40 10.47 71.70
121262 2023-10-03 23:59:26 Bahnzimmer 18.20 18.02 74.30
121261 2023-10-03 23:52:16 Aussentemperatur 11.90 11.24 80.40
121260 2023-10-03 23:35:15 Terrasse 11.70 10.80 71.60
121259 2023-10-03 23:29:26 Bahnzimmer 18.30 18.12 74.20
121258 2023-10-03 23:23:51 Aussentemperatur 12.20 11.58 80.70
121257 2023-10-03 23:07:08 Terrasse 12.20 11.34 71.50
121256 2023-10-03 22:59:25 Bahnzimmer 18.30 18.12 74.20
121255 2023-10-03 22:55:26 Aussentemperatur 12.50 11.92 80.80
121254 2023-10-03 22:39:01 Terrasse 12.50 11.67 71.50
121253 2023-10-03 22:29:24 Bahnzimmer 18.20 18.02 74.50
121252 2023-10-03 22:27:01 Aussentemperatur 13.00 12.45 80.10
121251 2023-10-03 22:10:55 Terrasse 12.90 12.08 70.10
121250 2023-10-03 21:59:24 Bahnzimmer 18.30 18.13 74.50
121249 2023-10-03 21:58:34 Aussentemperatur 13.10 12.54 79.50
121248 2023-10-03 21:42:47 Terrasse 13.00 12.19 70.40
121247 2023-10-03 21:30:07 Aussentemperatur 13.30 12.75 79.20
121246 2023-10-03 21:29:23 Bahnzimmer 18.30 18.13 74.40
121245 2023-10-03 21:14:39 Terrasse 13.30 12.51 69.90
121244 2023-10-03 21:01:40 Aussentemperatur 13.40 12.86 78.90
121243 2023-10-03 20:59:22 Bahnzimmer 18.40 18.24 74.30
121242 2023-10-03 20:46:31 Terrasse 13.20 12.40 69.80
121241 2023-10-03 20:33:13 Aussentemperatur 13.50 12.98 79.50
121240 2023-10-03 20:29:22 Bahnzimmer 18.40 18.24 74.40
121239 2023-10-03 20:18:23 Terrasse 13.30 12.48 68.70
121238 2023-10-03 20:04:48 Aussentemperatur 13.60 13.10 79.80
121237 2023-10-03 19:59:21 Bahnzimmer 18.50 18.35 74.50
121236 2023-10-03 19:50:17 Terrasse 13.70 12.90 67.80
121235 2023-10-03 19:36:23 Aussentemperatur 13.90 13.46 80.80
121234 2023-10-03 19:29:20 Bahnzimmer 18.60 18.47 74.70
121233 2023-10-03 19:22:11 Terrasse 14.30 13.59 69.30
121232 2023-10-03 19:07:57 Aussentemperatur 14.30 13.97 83.50
121231 2023-10-03 18:59:20 Bahnzimmer 18.70 18.58 74.70
121230 2023-10-03 18:54:05 Terrasse 14.70 14.11 72.20
121229 2023-10-03 18:39:30 Aussentemperatur 14.50 14.22 85.00
121228 2023-10-03 18:29:19 Bahnzimmer 18.90 18.80 74.70
121227 2023-10-03 18:25:57 Terrasse 15.20 14.65 71.80
121226 2023-10-03 18:11:10 Aussentemperatur 14.50 14.25 86.00
121225 2023-10-03 17:59:18 Bahnzimmer 18.70 18.58 74.70
121224 2023-10-03 17:57:48 Terrasse 15.20 14.68 73.00
121223 2023-10-03 17:42:41 Aussentemperatur 14.60 14.38 86.70
121222 2023-10-03 17:30:31 Terrasse 15.50 15.00 72.70
121221 2023-10-03 17:29:18 Bahnzimmer 18.80 18.68 74.50
121220 2023-10-03 17:14:15 Aussentemperatur 14.90 14.73 87.40
121219 2023-10-03 17:01:53 Terrasse 15.90 15.44 72.50
121218 2023-10-03 16:59:17 Bahnzimmer 19.00 18.89 74.10
121217 2023-10-03 16:45:50 Aussentemperatur 15.20 15.04 86.70
121216 2023-10-03 16:33:53 Terrasse 16.60 16.18 71.50
121215 2023-10-03 16:29:16 Bahnzimmer 19.00 18.93 75.80
121214 2023-10-03 16:17:26 Aussentemperatur 16.10 16.07 88.10
121213 2023-10-03 16:05:50 Terrasse 17.30 17.03 74.60
121212 2023-10-03 15:59:16 Bahnzimmer 18.90 18.81 75.20
121211 2023-10-03 15:49:10 Aussentemperatur 16.40 16.37 87.20
121210 2023-10-03 15:37:54 Terrasse 17.60 17.33 73.40
121209 2023-10-03 15:29:15 Bahnzimmer 18.90 18.79 74.60
121208 2023-10-03 15:20:40 Aussentemperatur 16.40 16.32 85.10
121207 2023-10-03 15:09:55 Terrasse 18.60 18.33 69.50
121206 2023-10-03 14:59:14 Bahnzimmer 18.80 18.64 72.90
121205 2023-10-03 14:52:13 Aussentemperatur 17.00 16.92 83.00
121204 2023-10-03 14:42:03 Terrasse 19.90 19.68 66.50
121203 2023-10-03 14:29:14 Bahnzimmer 18.80 18.64 72.90
121202 2023-10-03 14:23:59 Aussentemperatur 19.30 19.18 72.60
121201 2023-10-03 14:15:22 Terrasse 23.10 22.90 55.00
121200 2023-10-03 13:59:13 Bahnzimmer 18.80 18.64 72.90
121199 2023-10-03 13:55:30 Aussentemperatur 19.30 19.20 73.20
121198 2023-10-03 13:46:20 Terrasse 23.80 23.64 53.70
121197 2023-10-03 13:29:12 Bahnzimmer 18.80 18.64 72.90
121196 2023-10-03 13:27:00 Aussentemperatur 19.40 19.35 74.70
121195 2023-10-03 13:19:10 Terrasse 23.40 23.26 56.10
121194 2023-10-03 12:59:12 Bahnzimmer 18.90 18.75 72.80
121193 2023-10-03 12:58:31 Aussentemperatur 19.00 18.94 75.90
121192 2023-10-03 12:50:05 Terrasse 23.60 23.46 55.30
121191 2023-10-03 12:29:54 Aussentemperatur 17.30 17.12 77.80
121190 2023-10-03 12:29:11 Bahnzimmer 18.90 18.75 72.90
121189 2023-10-03 12:21:48 Terrasse 20.10 19.76 61.20
121188 2023-10-03 12:01:27 Aussentemperatur 17.20 17.02 78.20
121187 2023-10-03 11:59:10 Bahnzimmer 18.70 18.55 73.70
121186 2023-10-03 11:55:19 Terrasse 19.80 19.46 62.10
121185 2023-10-03 11:32:59 Aussentemperatur 16.80 16.58 78.20
121184 2023-10-03 11:29:10 Bahnzimmer 18.70 18.55 73.70
121183 2023-10-03 11:04:28 Aussentemperatur 16.20 15.93 78.60
121182 2023-10-03 10:59:09 Bahnzimmer 18.70 18.55 73.80
121181 2023-10-03 10:56:19 Terrasse 18.00 17.53 64.30
121180 2023-10-03 10:36:00 Aussentemperatur 16.00 15.72 79.00
121179 2023-10-03 10:29:08 Bahnzimmer 18.60 18.45 74.10
121178 2023-10-03 10:28:12 Terrasse 18.00 17.52 63.70
121177 2023-10-03 10:07:31 Aussentemperatur 15.80 15.50 79.20
121176 2023-10-03 10:00:11 Terrasse 18.50 18.05 63.00
121175 2023-10-03 09:59:08 Bahnzimmer 18.50 18.33 73.90
121174 2023-10-03 09:39:04 Aussentemperatur 15.70 15.41 79.70
121173 2023-10-03 09:32:01 Terrasse 17.20 16.68 65.10
121172 2023-10-03 09:29:07 Bahnzimmer 18.50 18.32 73.40
121171 2023-10-03 09:10:36 Aussentemperatur 15.40 15.08 79.90
121170 2023-10-03 09:03:52 Terrasse 18.60 18.22 65.30
121169 2023-10-03 08:59:06 Bahnzimmer 18.30 18.10 73.20
121168 2023-10-03 08:42:08 Aussentemperatur 15.00 14.67 81.00
121167 2023-10-03 08:37:43 Terrasse 16.40 15.87 67.80
121166 2023-10-03 08:29:06 Bahnzimmer 18.40 18.20 73.00
121165 2023-10-03 08:13:41 Aussentemperatur 14.80 14.46 81.50
121164 2023-10-03 07:59:05 Bahnzimmer 18.30 18.09 73.00
121163 2023-10-03 07:45:13 Aussentemperatur 14.80 14.45 81.10
121162 2023-10-03 07:29:04 Bahnzimmer 18.20 17.99 73.50
121161 2023-10-03 07:16:46 Aussentemperatur 14.80 14.45 80.90
121160 2023-10-03 06:59:04 Bahnzimmer 18.20 18.00 73.60
121159 2023-10-03 06:48:20 Aussentemperatur 14.90 14.55 80.70
121158 2023-10-03 06:29:03 Bahnzimmer 18.20 17.99 73.50
121157 2023-10-03 06:19:53 Aussentemperatur 14.90 14.55 80.50
121156 2023-10-03 05:59:02 Bahnzimmer 18.30 18.10 73.40
121155 2023-10-03 05:51:25 Aussentemperatur 14.90 14.54 80.10
121154 2023-10-03 05:29:02 Bahnzimmer 18.30 18.10 73.40
121153 2023-10-03 05:22:57 Aussentemperatur 14.90 14.53 79.90
121152 2023-10-03 04:59:01 Bahnzimmer 18.30 18.10 73.50
121151 2023-10-03 04:54:30 Aussentemperatur 15.00 14.64 79.70
121150 2023-10-03 04:29:00 Bahnzimmer 18.30 18.10 73.50
121149 2023-10-03 04:26:03 Aussentemperatur 14.90 14.52 79.40
121148 2023-10-03 03:59:00 Bahnzimmer 18.30 18.10 73.50
121147 2023-10-03 03:57:37 Aussentemperatur 14.90 14.51 79.00
121146 2023-10-03 03:29:11 Aussentemperatur 15.00 14.61 78.70
121145 2023-10-03 03:28:59 Bahnzimmer 18.30 18.11 73.60
121144 2023-10-03 03:00:44 Aussentemperatur 15.00 14.61 78.60
121143 2023-10-03 02:58:59 Bahnzimmer 18.30 18.10 73.40
121142 2023-10-03 02:32:18 Aussentemperatur 15.30 14.93 78.20
121141 2023-10-03 02:28:58 Bahnzimmer 18.30 18.10 73.50
121140 2023-10-03 02:03:52 Aussentemperatur 15.40 15.03 78.10
121139 2023-10-03 01:58:57 Bahnzimmer 18.30 18.10 73.50
121138 2023-10-03 01:35:25 Aussentemperatur 15.40 15.03 77.90
121137 2023-10-03 01:28:57 Bahnzimmer 18.30 18.10 73.50
121136 2023-10-03 01:06:59 Aussentemperatur 15.50 15.13 77.50
121135 2023-10-03 00:58:56 Bahnzimmer 18.40 18.21 73.50
121134 2023-10-03 00:38:33 Aussentemperatur 15.60 15.23 77.00
121133 2023-10-03 00:28:55 Bahnzimmer 18.40 18.21 73.50
121132 2023-10-03 00:10:06 Aussentemperatur 15.60 15.21 76.50
121131 2023-10-02 23:58:55 Bahnzimmer 18.40 18.21 73.50
121130 2023-10-02 23:41:40 Aussentemperatur 15.70 15.32 76.20
121129 2023-10-02 23:28:54 Bahnzimmer 18.50 18.32 73.50
121128 2023-10-02 23:13:14 Aussentemperatur 15.70 15.32 76.20
121127 2023-10-02 22:58:53 Bahnzimmer 18.50 18.32 73.50
121126 2023-10-02 22:44:47 Aussentemperatur 16.00 15.65 76.30
121125 2023-10-02 22:28:53 Bahnzimmer 18.50 18.33 73.60
121124 2023-10-02 22:16:21 Aussentemperatur 16.00 15.65 76.20
121123 2023-10-02 21:58:52 Bahnzimmer 18.60 18.43 73.50
121122 2023-10-02 21:47:56 Aussentemperatur 16.30 15.98 76.50
121121 2023-10-02 21:28:51 Bahnzimmer 18.70 18.54 73.40
121120 2023-10-02 21:19:31 Aussentemperatur 16.40 16.09 76.50
121119 2023-10-02 20:58:51 Bahnzimmer 18.70 18.55 73.60
121118 2023-10-02 20:53:34 Terrasse 18.80 18.32 60.60
121117 2023-10-02 20:51:05 Aussentemperatur 16.60 16.31 76.40
121116 2023-10-02 20:28:50 Bahnzimmer 18.60 18.43 73.20
121115 2023-10-02 20:22:40 Aussentemperatur 17.00 16.74 76.10
121114 2023-10-02 20:22:17 Terrasse 19.50 19.07 60.10
121113 2023-10-02 19:58:49 Bahnzimmer 18.70 18.53 73.00
121112 2023-10-02 19:54:13 Aussentemperatur 17.40 17.17 75.50
121111 2023-10-02 19:54:11 Terrasse 20.00 19.60 59.10
121110 2023-10-02 19:28:49 Bahnzimmer 18.70 18.52 72.70
121109 2023-10-02 19:26:04 Terrasse 20.50 20.15 59.20
121108 2023-10-02 19:25:50 Aussentemperatur 17.60 17.40 76.10
121107 2023-10-02 18:58:48 Bahnzimmer 18.80 18.63 72.70
121106 2023-10-02 18:57:54 Terrasse 21.40 21.12 58.30
121105 2023-10-02 18:57:26 Aussentemperatur 18.20 18.03 74.90
121104 2023-10-02 18:29:56 Terrasse 22.30 22.07 56.70
121103 2023-10-02 18:29:03 Aussentemperatur 18.70 18.54 73.50
121102 2023-10-02 18:28:47 Bahnzimmer 18.70 18.53 72.80
121101 2023-10-02 18:03:56 Terrasse 23.20 22.98 53.70
121100 2023-10-02 18:00:38 Aussentemperatur 19.10 18.92 71.20
121099 2023-10-02 17:58:47 Bahnzimmer 18.80 18.64 72.80
121098 2023-10-02 17:32:14 Aussentemperatur 19.70 19.49 67.40
121097 2023-10-02 17:28:46 Bahnzimmer 18.80 18.64 72.90
121096 2023-10-02 17:27:15 Terrasse 25.30 25.12 47.40
121095 2023-10-02 17:03:47 Aussentemperatur 20.10 19.88 65.70
121094 2023-10-02 16:58:54 Terrasse 24.60 24.38 48.60
121093 2023-10-02 16:58:45 Bahnzimmer 18.80 18.64 73.00
121092 2023-10-02 16:35:27 Aussentemperatur 20.10 19.94 68.00
121091 2023-10-02 16:30:47 Terrasse 25.60 25.47 48.00
121090 2023-10-02 16:28:45 Bahnzimmer 18.80 18.64 73.00
121089 2023-10-02 16:06:59 Aussentemperatur 20.30 20.18 68.60
121088 2023-10-02 16:02:24 Terrasse 25.30 25.19 49.90
121087 2023-10-02 15:58:44 Bahnzimmer 18.80 18.64 73.00
121086 2023-10-02 15:38:34 Aussentemperatur 20.30 20.19 69.10
121085 2023-10-02 15:34:10 Terrasse 25.50 25.41 50.00
121084 2023-10-02 15:28:43 Bahnzimmer 18.80 18.65 73.30
121083 2023-10-02 15:10:05 Aussentemperatur 20.00 19.89 70.40
121082 2023-10-02 15:05:51 Terrasse 24.50 24.35 51.50
121081 2023-10-02 14:58:43 Bahnzimmer 18.80 18.66 73.60
121080 2023-10-02 14:41:38 Aussentemperatur 20.00 19.88 69.70
121079 2023-10-02 14:37:39 Terrasse 24.60 24.47 51.80
121078 2023-10-02 14:28:42 Bahnzimmer 19.00 18.87 73.50
121077 2023-10-02 14:13:09 Aussentemperatur 20.00 19.90 70.50
121076 2023-10-02 14:09:29 Terrasse 25.00 24.92 52.20
121075 2023-10-02 13:58:41 Bahnzimmer 18.60 18.40 72.10
121074 2023-10-02 13:44:42 Aussentemperatur 19.90 19.78 70.10
121073 2023-10-02 13:41:19 Terrasse 25.40 25.33 51.20
121072 2023-10-02 13:28:41 Bahnzimmer 18.70 18.50 71.90
121071 2023-10-02 13:16:16 Aussentemperatur 20.30 20.20 69.60
121070 2023-10-02 13:13:24 Terrasse 27.10 27.39 48.00
121069 2023-10-02 12:58:40 Bahnzimmer 18.60 18.40 72.30
121068 2023-10-02 12:47:48 Aussentemperatur 20.30 20.20 69.60
121067 2023-10-02 12:45:04 Terrasse 27.90 28.25 49.00
121066 2023-10-02 12:28:39 Bahnzimmer 18.70 18.50 71.90
121065 2023-10-02 12:19:59 Aussentemperatur 21.00 21.13 75.50
121064 2023-10-02 12:16:05 Terrasse 22.30 22.16 60.40
121063 2023-10-02 11:58:39 Bahnzimmer 18.50 18.29 72.30
121062 2023-10-02 11:50:37 Aussentemperatur 16.40 16.17 79.60
121061 2023-10-02 11:47:38 Terrasse 19.10 18.72 63.20
121060 2023-10-02 11:28:38 Bahnzimmer 18.40 18.19 72.60
121059 2023-10-02 11:22:08 Aussentemperatur 15.80 15.56 81.20
121058 2023-10-02 11:20:24 Terrasse 18.00 17.59 66.30
121057 2023-10-02 10:58:37 Bahnzimmer 18.30 18.09 73.10
121056 2023-10-02 10:53:37 Aussentemperatur 15.40 15.12 81.30
121055 2023-10-02 10:52:38 Terrasse 17.00 16.54 68.30
121054 2023-10-02 10:28:37 Bahnzimmer 18.30 18.10 73.20
121053 2023-10-02 10:25:09 Aussentemperatur 15.00 14.68 81.40
121052 2023-10-02 10:22:32 Terrasse 16.00 15.46 69.10
121051 2023-10-02 09:58:36 Bahnzimmer 18.30 18.11 73.60
121050 2023-10-02 09:56:39 Aussentemperatur 14.50 14.15 82.30
121049 2023-10-02 09:54:13 Terrasse 15.30 14.78 72.40
121048 2023-10-02 09:28:35 Bahnzimmer 18.40 18.22 73.70
121047 2023-10-02 09:28:10 Aussentemperatur 14.10 13.71 82.20
121046 2023-10-02 09:25:55 Terrasse 14.80 14.23 72.50
121045 2023-10-02 08:59:42 Aussentemperatur 13.90 13.49 82.00
121044 2023-10-02 08:58:35 Bahnzimmer 18.20 18.00 73.80
121043 2023-10-02 08:57:41 Terrasse 14.40 13.80 72.90
121042 2023-10-02 08:31:58 Terrasse 14.40 13.74 70.80
121041 2023-10-02 08:31:14 Aussentemperatur 13.50 13.03 81.50
121040 2023-10-02 08:28:34 Bahnzimmer 18.10 17.88 73.50
121039 2023-10-02 08:02:47 Aussentemperatur 13.40 12.91 80.80
121038 2023-10-02 07:58:33 Bahnzimmer 18.10 17.87 72.80
121037 2023-10-02 07:34:22 Aussentemperatur 13.40 12.91 80.80
121036 2023-10-02 07:28:33 Bahnzimmer 18.10 17.86 72.60
121035 2023-10-02 07:19:25 Terrasse 13.70 12.97 70.60
121034 2023-10-02 07:05:56 Aussentemperatur 13.50 13.01 80.50
121033 2023-10-02 06:58:32 Bahnzimmer 18.10 17.87 72.90
121032 2023-10-02 06:51:13 Terrasse 14.00 13.28 69.90
121031 2023-10-02 06:37:32 Aussentemperatur 13.70 13.22 80.30
121030 2023-10-02 06:28:31 Bahnzimmer 18.00 17.76 73.00
121029 2023-10-02 06:23:00 Terrasse 14.20 13.50 69.70
121028 2023-10-02 06:09:07 Aussentemperatur 13.80 13.33 80.20
121027 2023-10-02 05:58:31 Bahnzimmer 18.00 17.76 73.10
121026 2023-10-02 05:54:48 Terrasse 14.30 13.60 69.40
121025 2023-10-02 05:40:40 Aussentemperatur 13.90 13.43 80.00
121024 2023-10-02 05:28:30 Bahnzimmer 18.00 17.76 73.00
121023 2023-10-02 05:26:36 Terrasse 14.40 13.70 69.10
121022 2023-10-02 05:12:15 Aussentemperatur 14.00 13.54 79.80
121021 2023-10-02 04:58:30 Bahnzimmer 18.00 17.76 73.00
121020 2023-10-02 04:58:23 Terrasse 14.60 13.91 68.80
121019 2023-10-02 04:43:50 Aussentemperatur 14.10 13.64 79.30
121018 2023-10-02 04:30:10 Terrasse 14.80 14.12 68.30
121017 2023-10-02 04:28:29 Bahnzimmer 18.00 17.76 72.90
121016 2023-10-02 04:15:24 Aussentemperatur 14.00 13.53 79.40
121015 2023-10-02 04:01:58 Terrasse 14.90 14.22 67.90
121014 2023-10-02 03:58:28 Bahnzimmer 18.10 17.87 72.90
121013 2023-10-02 03:46:58 Aussentemperatur 14.10 13.63 79.10
121012 2023-10-02 03:33:49 Terrasse 14.80 14.10 67.50
121011 2023-10-02 03:28:28 Bahnzimmer 18.10 17.87 72.80
121010 2023-10-02 03:18:33 Aussentemperatur 14.20 13.74 79.00
121009 2023-10-02 03:05:38 Terrasse 14.90 14.20 67.30
121008 2023-10-02 02:58:27 Bahnzimmer 18.20 17.97 72.70
121007 2023-10-02 02:50:07 Aussentemperatur 14.10 13.63 79.00
121006 2023-10-02 02:37:24 Terrasse 15.00 14.30 67.00
121005 2023-10-02 02:28:26 Bahnzimmer 18.20 17.97 72.70
121004 2023-10-02 02:21:40 Aussentemperatur 14.20 13.73 78.80
121003 2023-10-02 02:09:21 Terrasse 15.20 14.51 66.50
121002 2023-10-02 01:58:26 Bahnzimmer 18.20 17.97 72.60
121001 2023-10-02 01:53:14 Aussentemperatur 14.30 13.84 78.50
121000 2023-10-02 01:41:06 Terrasse 15.40 14.71 65.80
120999 2023-10-02 01:28:25 Bahnzimmer 18.20 17.97 72.60
120998 2023-10-02 01:24:49 Aussentemperatur 14.40 13.94 78.20
120997 2023-10-02 01:12:53 Terrasse 15.60 14.93 65.50
120996 2023-10-02 00:58:24 Bahnzimmer 18.30 18.08 72.60
120995 2023-10-02 00:56:23 Aussentemperatur 14.50 14.04 77.80
120994 2023-10-02 00:44:40 Terrasse 15.80 15.13 64.90
120993 2023-10-02 00:28:24 Bahnzimmer 18.30 18.08 72.40
120992 2023-10-02 00:27:58 Aussentemperatur 14.60 14.14 77.70
120991 2023-10-02 00:16:27 Terrasse 16.00 15.34 64.50
120990 2023-10-01 23:59:32 Aussentemperatur 14.70 14.25 77.50
120989 2023-10-01 23:58:23 Bahnzimmer 18.20 17.97 72.50
120988 2023-10-01 23:48:18 Terrasse 16.10 15.43 63.80
120987 2023-10-01 23:31:05 Aussentemperatur 14.80 14.36 77.40
120986 2023-10-01 23:28:23 Bahnzimmer 18.30 18.08 72.40
120985 2023-10-01 23:20:08 Terrasse 16.30 15.65 63.70
120984 2023-10-01 23:02:40 Aussentemperatur 14.90 14.46 77.20
120983 2023-10-01 22:58:22 Bahnzimmer 18.40 18.18 72.30
120982 2023-10-01 22:51:55 Terrasse 16.60 15.96 62.80
120981 2023-10-01 22:34:14 Aussentemperatur 15.00 14.57 77.00
120980 2023-10-01 22:28:21 Bahnzimmer 18.40 18.18 72.20
120979 2023-10-01 22:23:43 Terrasse 16.70 16.05 62.20
120978 2023-10-01 22:05:49 Aussentemperatur 15.20 14.78 76.90
120977 2023-10-01 21:58:21 Bahnzimmer 18.30 18.08 72.50
120976 2023-10-01 21:55:31 Terrasse 17.00 16.38 62.30
120975 2023-10-01 21:37:24 Aussentemperatur 15.40 15.00 76.80
120974 2023-10-01 21:28:20 Bahnzimmer 18.30 18.08 72.60
120973 2023-10-01 21:27:20 Terrasse 17.40 16.80 61.60
120972 2023-10-01 21:08:59 Aussentemperatur 15.60 15.21 76.40
120971 2023-10-01 20:59:12 Terrasse 17.80 17.24 61.30
120970 2023-10-01 20:58:19 Bahnzimmer 18.40 18.19 72.60
120969 2023-10-01 20:40:35 Aussentemperatur 15.80 15.42 75.90
120968 2023-10-01 20:31:00 Terrasse 18.20 17.66 60.70
120967 2023-10-01 20:28:19 Bahnzimmer 18.40 18.19 72.60
120966 2023-10-01 20:12:18 Aussentemperatur 16.10 15.73 75.20
120965 2023-10-01 20:03:06 Terrasse 18.80 18.28 59.30
120964 2023-10-01 19:58:18 Bahnzimmer 18.40 18.19 72.50
120963 2023-10-01 19:43:50 Aussentemperatur 16.50 16.15 74.60
120962 2023-10-01 19:34:52 Terrasse 19.30 18.83 59.00
120961 2023-10-01 19:28:15 Bahnzimmer 18.60 18.40 72.20
120960 2023-10-01 19:15:25 Aussentemperatur 17.00 16.67 73.40
120959 2023-10-01 19:06:43 Terrasse 20.00 19.56 57.60
120958 2023-10-01 18:58:15 Bahnzimmer 18.70 18.51 72.00
120957 2023-10-01 18:47:03 Aussentemperatur 17.60 17.28 71.50
120956 2023-10-01 18:38:35 Terrasse 21.10 20.69 54.50
120955 2023-10-01 18:28:14 Bahnzimmer 18.70 18.50 71.90
120954 2023-10-01 18:18:39 Aussentemperatur 18.20 17.84 67.50
120953 2023-10-01 18:10:25 Terrasse 21.70 21.28 51.90
120952 2023-10-01 17:58:13 Bahnzimmer 18.70 18.50 71.90
120951 2023-10-01 17:50:13 Aussentemperatur 18.40 18.04 66.70
120950 2023-10-01 17:42:20 Terrasse 22.90 22.53 49.20
120949 2023-10-01 17:28:13 Bahnzimmer 18.80 18.60 71.60
120948 2023-10-01 17:21:47 Aussentemperatur 18.80 18.44 65.30
120947 2023-10-01 17:14:09 Terrasse 24.50 24.22 46.60
120946 2023-10-01 16:58:12 Bahnzimmer 18.90 18.70 71.20
120945 2023-10-01 16:53:21 Aussentemperatur 18.90 18.53 64.60
120944 2023-10-01 16:45:57 Terrasse 25.10 24.86 45.60
120943 2023-10-01 16:28:11 Bahnzimmer 18.90 18.70 71.00
120942 2023-10-01 16:24:58 Aussentemperatur 19.10 18.74 64.10
120941 2023-10-01 16:17:44 Terrasse 26.70 26.80 43.30
120940 2023-10-01 15:58:11 Bahnzimmer 18.90 18.70 71.00
120939 2023-10-01 15:56:32 Aussentemperatur 19.10 18.73 63.60
120938 2023-10-01 15:49:25 Terrasse 25.00 24.75 45.80
120937 2023-10-01 15:28:10 Bahnzimmer 18.70 18.49 71.30
120936 2023-10-01 15:28:05 Aussentemperatur 19.10 18.73 63.90
120935 2023-10-01 15:21:05 Terrasse 23.90 23.60 48.20
120934 2023-10-01 14:59:36 Aussentemperatur 18.90 18.50 63.20
120933 2023-10-01 14:58:10 Bahnzimmer 18.80 18.59 71.20
120932 2023-10-01 14:52:50 Terrasse 23.00 22.62 48.50
120931 2023-10-01 14:31:09 Aussentemperatur 18.60 18.17 63.20
120930 2023-10-01 14:28:09 Bahnzimmer 18.60 18.39 71.90
120929 2023-10-01 14:24:36 Terrasse 22.60 22.17 47.90
120928 2023-10-01 14:02:41 Aussentemperatur 18.50 18.08 64.20
120927 2023-10-01 13:58:08 Bahnzimmer 18.80 18.60 71.40
120926 2023-10-01 13:56:23 Terrasse 22.80 22.39 48.20
120925 2023-10-01 13:34:15 Aussentemperatur 18.50 18.15 66.90
120924 2023-10-01 13:28:14 Terrasse 22.90 22.59 51.50
120923 2023-10-01 13:28:08 Bahnzimmer 18.60 18.39 71.90
120922 2023-10-01 13:05:48 Aussentemperatur 18.60 18.28 67.40
120921 2023-10-01 13:00:20 Terrasse 25.00 24.81 48.20
120920 2023-10-01 12:58:07 Bahnzimmer 18.50 18.27 71.60
120919 2023-10-01 12:37:26 Aussentemperatur 18.80 18.53 68.90
120918 2023-10-01 12:31:38 Terrasse 22.90 22.62 52.70
120917 2023-10-01 12:28:06 Bahnzimmer 18.40 18.17 71.70
120916 2023-10-01 12:09:11 Aussentemperatur 17.70 17.54 77.00
120915 2023-10-01 12:02:51 Terrasse 17.50 16.95 62.80
120914 2023-10-01 11:58:06 Bahnzimmer 18.40 18.17 71.80
120913 2023-10-01 11:40:23 Aussentemperatur 14.40 13.91 77.20
120912 2023-10-01 11:34:32 Terrasse 16.20 15.58 65.10
120911 2023-10-01 11:28:05 Bahnzimmer 18.40 18.17 71.90
120910 2023-10-01 11:11:54 Aussentemperatur 14.00 13.48 77.50
120909 2023-10-01 11:06:12 Terrasse 15.20 14.53 67.10
120908 2023-10-01 10:58:04 Bahnzimmer 18.40 18.18 72.00
120907 2023-10-01 10:43:25 Aussentemperatur 13.70 13.12 76.40
120906 2023-10-01 10:37:51 Terrasse 14.20 13.44 67.50
120905 2023-10-01 10:28:04 Bahnzimmer 18.30 18.07 72.20
120904 2023-10-01 10:14:57 Aussentemperatur 13.30 12.70 77.20
120903 2023-10-01 10:09:33 Terrasse 13.30 12.52 70.20
120902 2023-10-01 09:58:03 Bahnzimmer 18.20 17.97 72.50
120901 2023-10-01 09:46:30 Aussentemperatur 12.90 12.27 77.40
120900 2023-10-01 09:41:15 Terrasse 12.80 11.98 70.50
120899 2023-10-01 09:28:02 Bahnzimmer 18.10 17.86 72.60
120898 2023-10-01 09:18:02 Aussentemperatur 12.30 11.63 78.40
120897 2023-10-01 09:12:59 Terrasse 12.10 11.24 71.80
120896 2023-10-01 08:58:02 Bahnzimmer 17.90 17.65 72.80
120895 2023-10-01 08:49:35 Aussentemperatur 12.00 11.29 77.90
120894 2023-10-01 08:44:44 Terrasse 11.50 10.59 72.30
120893 2023-10-01 08:28:01 Bahnzimmer 17.90 17.65 72.80
120892 2023-10-01 08:21:08 Aussentemperatur 11.90 11.17 77.50
120891 2023-10-01 08:16:29 Terrasse 11.20 10.23 71.20
120890 2023-10-01 07:58:00 Bahnzimmer 17.90 17.65 72.80
120889 2023-10-01 07:52:44 Aussentemperatur 11.90 11.15 76.70
120888 2023-10-01 07:48:16 Terrasse 11.20 10.22 70.70
120887 2023-10-01 07:28:00 Bahnzimmer 18.00 17.75 72.60
120886 2023-10-01 07:24:18 Aussentemperatur 11.70 10.93 76.70
120885 2023-10-01 07:20:03 Terrasse 11.10 10.11 70.50
120884 2023-10-01 06:57:59 Bahnzimmer 18.00 17.75 72.60
120883 2023-10-01 06:55:52 Aussentemperatur 11.80 11.03 76.40
120882 2023-10-01 06:51:50 Terrasse 11.30 10.31 69.70
120881 2023-10-01 06:27:58 Bahnzimmer 18.00 17.75 72.60
120880 2023-10-01 06:27:27 Aussentemperatur 11.90 11.14 76.20
120879 2023-10-01 06:23:38 Terrasse 11.50 10.51 69.20
120878 2023-10-01 05:59:01 Aussentemperatur 11.90 11.13 76.00
120877 2023-10-01 05:57:58 Bahnzimmer 18.00 17.75 72.50
120876 2023-10-01 05:55:25 Terrasse 11.50 10.50 68.80
120875 2023-10-01 05:30:35 Aussentemperatur 12.00 11.23 75.80
120874 2023-10-01 05:27:57 Bahnzimmer 18.00 17.75 72.50
120873 2023-10-01 05:27:12 Terrasse 11.70 10.71 68.30
120872 2023-10-01 05:02:11 Aussentemperatur 12.10 11.33 75.40
120871 2023-10-01 04:58:59 Terrasse 11.80 10.81 67.80
120870 2023-10-01 04:57:57 Bahnzimmer 18.00 17.75 72.50
120869 2023-10-01 04:33:44 Aussentemperatur 12.20 11.44 75.10
120868 2023-10-01 04:30:46 Terrasse 11.90 10.90 67.10
120867 2023-10-01 04:27:56 Bahnzimmer 18.00 17.75 72.40
120866 2023-10-01 04:05:20 Aussentemperatur 12.10 11.32 75.00
120865 2023-10-01 04:02:32 Terrasse 11.90 10.90 67.10
120864 2023-10-01 03:57:55 Bahnzimmer 18.10 17.85 72.30
120863 2023-10-01 03:36:55 Aussentemperatur 12.10 11.32 74.70
120862 2023-10-01 03:34:20 Terrasse 12.00 11.00 66.70
120861 2023-10-01 03:27:55 Bahnzimmer 18.10 17.85 72.20
120860 2023-10-01 03:08:29 Aussentemperatur 12.10 11.32 74.70
120859 2023-10-01 03:06:06 Terrasse 12.00 10.99 66.50
120858 2023-10-01 02:57:54 Bahnzimmer 18.10 17.85 72.10
120857 2023-10-01 02:40:05 Aussentemperatur 12.30 11.52 73.90
120856 2023-10-01 02:37:55 Terrasse 12.30 11.29 65.20
120855 2023-10-01 02:27:53 Bahnzimmer 18.10 17.85 72.10
120854 2023-10-01 02:11:40 Aussentemperatur 12.20 11.41 73.90
120853 2023-10-01 02:09:43 Terrasse 12.50 11.49 64.40
120852 2023-10-01 01:57:53 Bahnzimmer 18.20 17.96 72.00
120851 2023-10-01 01:43:14 Aussentemperatur 12.20 11.40 73.60
120850 2023-10-01 01:41:30 Terrasse 12.60 11.58 63.90
120849 2023-10-01 01:27:52 Bahnzimmer 18.20 17.95 71.90
120848 2023-10-01 01:14:48 Aussentemperatur 12.40 11.62 73.60
120847 2023-10-01 01:13:17 Terrasse 12.70 11.69 63.60
120846 2023-10-01 00:57:51 Bahnzimmer 18.30 18.06 71.80
120845 2023-10-01 00:46:25 Aussentemperatur 12.50 11.73 73.80
120844 2023-10-01 00:45:05 Terrasse 12.80 11.81 64.20
120843 2023-10-01 00:27:51 Bahnzimmer 18.30 18.06 71.70
120842 2023-10-01 00:18:01 Aussentemperatur 12.80 12.06 73.70
120841 2023-10-01 00:16:53 Terrasse 13.10 12.13 63.70
120840 2023-09-30 23:57:50 Bahnzimmer 18.30 18.05 71.60
120839 2023-09-30 23:49:37 Aussentemperatur 13.00 12.29 73.90
120838 2023-09-30 23:48:41 Terrasse 13.50 12.57 63.90
120837 2023-09-30 23:27:49 Bahnzimmer 18.30 18.05 71.50
120836 2023-09-30 23:21:13 Aussentemperatur 13.10 12.39 73.70
120835 2023-09-30 22:57:49 Bahnzimmer 18.40 18.16 71.30
120834 2023-09-30 22:52:57 Aussentemperatur 13.30 12.60 73.50
120833 2023-09-30 22:52:29 Terrasse 13.80 12.89 63.20
120832 2023-09-30 22:27:48 Bahnzimmer 18.40 18.15 71.20
120831 2023-09-30 22:24:31 Aussentemperatur 13.50 12.80 72.50
120830 2023-09-30 22:24:19 Terrasse 13.90 13.00 63.20
120829 2023-09-30 21:57:47 Bahnzimmer 18.50 18.26 71.00
120828 2023-09-30 21:56:25 Terrasse 14.30 13.43 63.00
120827 2023-09-30 21:56:07 Aussentemperatur 13.80 13.13 72.70
120826 2023-09-30 21:28:04 Terrasse 14.70 13.85 62.30
120825 2023-09-30 21:27:47 Bahnzimmer 18.50 18.25 70.80
120824 2023-09-30 21:27:44 Aussentemperatur 14.00 13.34 72.30
120823 2023-09-30 20:59:52 Terrasse 15.00 14.16 61.30
120822 2023-09-30 20:59:19 Aussentemperatur 14.20 13.54 71.50
120821 2023-09-30 20:57:46 Bahnzimmer 18.50 18.25 70.60
120820 2023-09-30 20:31:40 Terrasse 15.30 14.46 60.30
120819 2023-09-30 20:30:54 Aussentemperatur 14.60 13.97 71.10
120818 2023-09-30 20:27:46 Bahnzimmer 18.60 18.35 70.40
120817 2023-09-30 20:03:28 Terrasse 15.60 14.77 59.40
120816 2023-09-30 20:02:30 Aussentemperatur 14.80 14.17 70.30
120815 2023-09-30 19:57:45 Bahnzimmer 18.60 18.34 70.00
120814 2023-09-30 19:35:17 Terrasse 16.10 15.29 58.30
120813 2023-09-30 19:34:06 Aussentemperatur 15.10 14.48 69.40
120812 2023-09-30 19:27:44 Bahnzimmer 18.70 18.44 69.50
120811 2023-09-30 19:07:06 Terrasse 16.60 15.82 57.50
120810 2023-09-30 19:05:42 Aussentemperatur 15.50 14.88 68.00
120809 2023-09-30 18:57:44 Bahnzimmer 18.80 18.53 68.90
120808 2023-09-30 18:38:57 Terrasse 17.40 16.67 56.30
120807 2023-09-30 18:37:19 Aussentemperatur 15.90 15.29 67.00
120806 2023-09-30 18:27:43 Bahnzimmer 18.80 18.52 68.40
120805 2023-09-30 18:10:49 Terrasse 18.30 17.56 52.50
120804 2023-09-30 18:08:55 Aussentemperatur 16.40 15.76 63.80
120803 2023-09-30 17:57:42 Bahnzimmer 18.90 18.61 67.50
120802 2023-09-30 17:42:40 Terrasse 19.30 18.61 50.70
120801 2023-09-30 17:40:31 Aussentemperatur 16.90 16.26 61.80
120800 2023-09-30 17:27:42 Bahnzimmer 19.00 18.69 66.50
120799 2023-09-30 17:14:36 Terrasse 20.30 19.66 48.70
120798 2023-09-30 17:12:08 Aussentemperatur 17.20 16.54 59.80
120797 2023-09-30 16:46:24 Terrasse 21.20 20.59 46.40
120796 2023-09-30 16:43:43 Aussentemperatur 17.50 16.84 58.90
120795 2023-09-30 16:18:10 Terrasse 21.60 20.95 43.60
120794 2023-09-30 16:15:19 Aussentemperatur 17.50 16.79 56.80
120793 2023-09-30 15:50:10 Terrasse 21.60 20.95 43.50
120792 2023-09-30 15:46:57 Aussentemperatur 17.80 17.11 56.30
120791 2023-09-30 15:27:20 Bahnzimmer 18.70 18.29 63.70
120790 2023-09-30 15:21:57 Terrasse 22.40 21.83 43.60
120789 2023-09-30 15:18:32 Aussentemperatur 17.90 17.19 55.30
120788 2023-09-30 14:57:19 Bahnzimmer 19.00 18.87 73.50
120787 2023-09-30 14:53:41 Terrasse 22.00 21.32 40.70
120786 2023-09-30 14:50:05 Aussentemperatur 17.80 17.02 53.00
120785 2023-09-30 14:27:19 Bahnzimmer 19.00 18.88 73.70
120784 2023-09-30 14:25:29 Terrasse 21.90 21.23 41.40
120783 2023-09-30 14:21:39 Aussentemperatur 17.80 17.01 52.60
120782 2023-09-30 13:57:24 Terrasse 22.10 21.49 43.00
120781 2023-09-30 13:57:18 Bahnzimmer 19.00 18.88 73.80
120780 2023-09-30 13:53:13 Aussentemperatur 17.60 16.84 54.60
120779 2023-09-30 13:27:17 Bahnzimmer 18.70 18.56 74.00
120778 2023-09-30 13:24:48 Aussentemperatur 18.00 17.31 55.60
120777 2023-09-30 12:58:34 Terrasse 25.00 24.61 40.30
120776 2023-09-30 12:57:17 Bahnzimmer 18.70 18.57 74.60
120775 2023-09-30 12:56:21 Aussentemperatur 18.00 17.32 56.10
120774 2023-09-30 12:28:15 Aussentemperatur 18.60 18.11 61.10
120773 2023-09-30 12:27:16 Bahnzimmer 18.70 18.58 75.00
120772 2023-09-30 11:59:05 Terrasse 17.50 16.75 55.40
120771 2023-09-30 11:58:56 Aussentemperatur 15.30 14.75 71.30
120770 2023-09-30 11:57:15 Bahnzimmer 18.70 18.58 75.00
120769 2023-09-30 11:30:30 Aussentemperatur 14.90 14.38 74.10
120768 2023-09-30 11:30:28 Terrasse 16.70 16.04 61.80
120767 2023-09-30 11:27:15 Bahnzimmer 18.70 18.59 75.10
120766 2023-09-30 11:02:55 Terrasse 15.60 14.85 62.50
120765 2023-09-30 11:02:02 Aussentemperatur 14.50 13.97 75.20
120764 2023-09-30 10:57:14 Bahnzimmer 18.70 18.59 75.20
120763 2023-09-30 10:33:34 Aussentemperatur 14.20 13.70 77.70
120762 2023-09-30 10:27:13 Bahnzimmer 18.80 18.69 75.00
120761 2023-09-30 10:06:05 Terrasse 14.20 13.45 67.90
120760 2023-09-30 10:05:08 Aussentemperatur 13.90 13.36 77.10
120759 2023-09-30 09:57:13 Bahnzimmer 18.90 18.82 75.50
120758 2023-09-30 09:37:48 Terrasse 13.70 12.90 67.90
120757 2023-09-30 09:36:40 Aussentemperatur 13.50 12.90 76.40
120756 2023-09-30 09:27:12 Bahnzimmer 18.80 18.72 75.90
120755 2023-09-30 09:10:42 Terrasse 13.00 12.12 67.60
120754 2023-09-30 09:08:13 Aussentemperatur 12.90 12.24 76.40
120753 2023-09-30 08:57:11 Bahnzimmer 18.70 18.60 75.60
120752 2023-09-30 08:41:23 Terrasse 12.80 11.87 66.50
120751 2023-09-30 08:39:47 Aussentemperatur 12.70 12.02 76.50
120750 2023-09-30 08:27:11 Bahnzimmer 18.50 18.37 75.40
120749 2023-09-30 08:13:09 Terrasse 12.80 11.86 66.20
120748 2023-09-30 08:11:23 Aussentemperatur 12.70 12.05 77.70
120747 2023-09-30 07:57:10 Bahnzimmer 18.50 18.38 75.50
120746 2023-09-30 07:45:37 Terrasse 13.00 12.14 68.20
120745 2023-09-30 07:43:00 Aussentemperatur 12.90 12.29 78.20
120744 2023-09-30 07:27:09 Bahnzimmer 18.60 18.48 75.40
120743 2023-09-30 07:17:52 Terrasse 13.30 12.48 68.80
120742 2023-09-30 07:14:37 Aussentemperatur 13.30 12.76 79.30
120741 2023-09-30 06:57:09 Bahnzimmer 18.60 18.48 75.40
120740 2023-09-30 06:50:21 Terrasse 13.70 12.95 69.80
120739 2023-09-30 06:46:14 Aussentemperatur 13.50 12.99 79.90
120738 2023-09-30 06:27:08 Bahnzimmer 18.70 18.59 75.40
120737 2023-09-30 06:21:59 Terrasse 13.90 13.16 69.60
120736 2023-09-30 06:17:51 Aussentemperatur 13.90 13.42 79.40
120735 2023-09-30 05:57:08 Bahnzimmer 18.70 18.60 75.50
120734 2023-09-30 05:49:25 Aussentemperatur 14.00 13.53 79.50
120733 2023-09-30 05:27:07 Bahnzimmer 18.70 18.59 75.40
120732 2023-09-30 05:22:40 Terrasse 14.30 13.60 69.50
120731 2023-09-30 05:21:01 Aussentemperatur 14.10 13.65 79.70
120730 2023-09-30 04:57:06 Bahnzimmer 18.70 18.60 75.50
120729 2023-09-30 04:54:35 Terrasse 14.70 14.03 69.20
120728 2023-09-30 04:52:37 Aussentemperatur 14.20 13.75 79.50
120727 2023-09-30 04:27:06 Bahnzimmer 18.80 18.70 75.40
120726 2023-09-30 04:24:15 Aussentemperatur 14.50 14.06 78.50
120725 2023-09-30 03:57:05 Bahnzimmer 18.80 18.70 75.40
120724 2023-09-30 03:56:59 Terrasse 15.20 14.55 67.80
120723 2023-09-30 03:55:51 Aussentemperatur 14.70 14.30 79.40
120722 2023-09-30 03:27:27 Aussentemperatur 14.90 14.53 79.70
120721 2023-09-30 03:27:04 Bahnzimmer 18.80 18.71 75.50
120720 2023-09-30 03:24:53 Terrasse 15.40 14.80 69.10
120719 2023-09-30 02:59:02 Aussentemperatur 15.00 14.67 80.90
120718 2023-09-30 02:57:04 Bahnzimmer 18.90 18.82 75.50
120717 2023-09-30 02:30:37 Aussentemperatur 15.00 14.66 80.60
120716 2023-09-30 02:27:03 Bahnzimmer 18.90 18.82 75.60
120715 2023-09-30 02:26:02 Terrasse 15.60 15.02 69.10
120714 2023-09-30 02:02:11 Aussentemperatur 15.10 14.78 81.00
120713 2023-09-30 01:57:58 Terrasse 15.70 15.16 70.40
120712 2023-09-30 01:57:02 Bahnzimmer 18.90 18.82 75.60
120711 2023-09-30 01:33:46 Aussentemperatur 15.20 14.89 81.00
120710 2023-09-30 01:29:49 Terrasse 15.80 15.24 69.20
120709 2023-09-30 01:27:02 Bahnzimmer 18.90 18.82 75.50
120708 2023-09-30 01:05:21 Aussentemperatur 15.10 14.78 81.00
120707 2023-09-30 01:01:42 Terrasse 15.90 15.36 69.40
120706 2023-09-30 00:57:01 Bahnzimmer 19.00 18.93 75.50
120705 2023-09-30 00:36:57 Aussentemperatur 15.30 14.98 80.40
120704 2023-09-30 00:33:37 Terrasse 16.30 15.74 67.20
120703 2023-09-30 00:27:00 Bahnzimmer 19.00 18.93 75.60
120702 2023-09-30 00:08:32 Aussentemperatur 15.30 15.01 81.50
120701 2023-09-30 00:05:29 Terrasse 16.40 15.87 68.10
120700 2023-09-29 23:57:00 Bahnzimmer 19.10 19.04 75.70
120699 2023-09-29 23:40:07 Aussentemperatur 15.50 15.28 83.30
120698 2023-09-29 23:37:21 Terrasse 16.50 16.03 69.70
120697 2023-09-29 23:26:59 Bahnzimmer 19.10 19.04 75.50
120696 2023-09-29 23:11:42 Aussentemperatur 15.60 15.41 83.90
120695 2023-09-29 23:09:15 Terrasse 16.80 16.37 70.40
120694 2023-09-29 22:56:58 Bahnzimmer 19.30 19.25 75.20
120693 2023-09-29 22:43:19 Aussentemperatur 15.80 15.63 84.10
120692 2023-09-29 22:41:10 Terrasse 17.00 16.61 70.90
120691 2023-09-29 22:26:57 Bahnzimmer 19.30 19.25 75.20
120690 2023-09-29 22:14:56 Aussentemperatur 16.00 15.84 83.70
120689 2023-09-29 22:13:03 Terrasse 17.50 17.16 71.00
120688 2023-09-29 21:56:56 Bahnzimmer 19.30 19.24 75.00
120687 2023-09-29 21:46:34 Aussentemperatur 16.70 16.56 81.70
120686 2023-09-29 21:44:58 Terrasse 18.20 17.89 69.50
120685 2023-09-29 21:26:56 Bahnzimmer 19.50 19.46 74.90
120684 2023-09-29 21:18:14 Aussentemperatur 17.80 17.60 75.20
120683 2023-09-29 21:17:46 Terrasse 18.90 18.54 65.00
120682 2023-09-29 20:56:55 Bahnzimmer 19.40 19.36 75.30
120681 2023-09-29 20:49:49 Aussentemperatur 17.80 17.55 73.20
120680 2023-09-29 20:48:32 Terrasse 19.10 18.71 63.00
120679 2023-09-29 20:26:54 Bahnzimmer 19.20 19.14 75.30
120678 2023-09-29 20:21:26 Aussentemperatur 18.00 17.74 72.10
120677 2023-09-29 20:21:08 Terrasse 19.30 18.89 61.60
120676 2023-09-29 19:56:54 Bahnzimmer 19.20 19.14 75.30
120675 2023-09-29 19:53:02 Aussentemperatur 18.10 17.82 71.00
120674 2023-09-29 19:52:35 Terrasse 19.50 19.08 60.30
120673 2023-09-29 19:26:53 Bahnzimmer 19.30 19.25 75.40
120672 2023-09-29 19:24:38 Aussentemperatur 18.50 18.23 70.00
120671 2023-09-29 19:24:22 Terrasse 19.80 19.38 59.00
120670 2023-09-29 18:56:52 Bahnzimmer 19.30 19.26 75.50
120669 2023-09-29 18:56:13 Aussentemperatur 18.70 18.43 69.20
120668 2023-09-29 18:56:10 Terrasse 20.10 19.68 58.00
120667 2023-09-29 18:27:57 Terrasse 20.50 20.12 57.90
120666 2023-09-29 18:27:48 Aussentemperatur 18.90 18.65 69.30
120665 2023-09-29 18:26:52 Bahnzimmer 19.40 19.37 75.50
120664 2023-09-29 17:59:46 Terrasse 20.80 20.44 57.50
120663 2023-09-29 17:59:24 Aussentemperatur 19.00 18.75 68.90
120662 2023-09-29 17:56:51 Bahnzimmer 19.50 19.48 75.50
120661 2023-09-29 17:31:35 Terrasse 21.40 21.08 56.70
120660 2023-09-29 17:31:00 Aussentemperatur 19.30 19.06 68.10
120659 2023-09-29 17:26:50 Bahnzimmer 19.50 19.48 75.50
120658 2023-09-29 17:03:22 Terrasse 21.70 21.33 53.90
120657 2023-09-29 17:02:36 Aussentemperatur 19.50 19.24 66.60
120656 2023-09-29 16:56:50 Bahnzimmer 19.60 19.59 75.60
120655 2023-09-29 16:35:15 Terrasse 21.90 21.56 54.10
120654 2023-09-29 16:34:10 Aussentemperatur 19.60 19.37 67.10
120653 2023-09-29 16:26:49 Bahnzimmer 19.80 19.79 75.00
120652 2023-09-29 16:06:59 Terrasse 21.50 21.16 55.70
120651 2023-09-29 16:05:44 Aussentemperatur 19.50 19.34 70.20
120650 2023-09-29 15:56:47 Bahnzimmer 19.90 19.93 75.90
120649 2023-09-29 15:39:44 Terrasse 21.50 21.32 61.70
120648 2023-09-29 15:37:24 Aussentemperatur 19.50 19.45 74.40
120647 2023-09-29 15:26:46 Bahnzimmer 19.90 19.92 75.70
120646 2023-09-29 15:09:42 Terrasse 21.90 21.72 60.20
120645 2023-09-29 15:08:57 Aussentemperatur 20.00 19.97 73.20
120644 2023-09-29 14:56:44 Bahnzimmer 19.60 19.62 76.70
120643 2023-09-29 14:40:36 Aussentemperatur 20.50 20.50 72.50
120642 2023-09-29 14:26:43 Bahnzimmer 19.40 19.36 75.20
120641 2023-09-29 14:14:11 Terrasse 24.00 24.00 59.30
120640 2023-09-29 14:12:14 Aussentemperatur 20.90 21.00 74.70
120639 2023-09-29 13:56:43 Bahnzimmer 19.50 19.47 75.10
120638 2023-09-29 13:43:51 Terrasse 24.10 24.12 59.70
120637 2023-09-29 13:43:47 Aussentemperatur 20.90 21.03 75.90
120636 2023-09-29 13:26:42 Bahnzimmer 19.60 19.57 74.90
120635 2023-09-29 13:15:30 Terrasse 22.70 22.64 61.80
120634 2023-09-29 13:15:16 Aussentemperatur 19.80 19.87 78.00
120633 2023-09-29 12:56:41 Bahnzimmer 19.50 19.47 75.10
120632 2023-09-29 12:47:28 Terrasse 22.30 22.21 62.20
120631 2023-09-29 12:46:48 Aussentemperatur 19.40 19.45 78.70
120630 2023-09-29 12:26:41 Bahnzimmer 19.50 19.47 75.10
120629 2023-09-29 12:19:16 Terrasse 20.70 20.53 65.30
120628 2023-09-29 12:18:21 Aussentemperatur 18.70 18.73 80.50
120627 2023-09-29 11:56:40 Bahnzimmer 19.40 19.35 75.00
120626 2023-09-29 11:51:42 Terrasse 20.50 20.30 65.00
120625 2023-09-29 11:49:59 Aussentemperatur 18.40 18.42 81.20
120624 2023-09-29 11:26:39 Bahnzimmer 19.30 19.27 75.90
120623 2023-09-29 11:23:15 Terrasse 20.00 19.79 66.60
120622 2023-09-29 11:21:28 Aussentemperatur 17.80 17.79 82.40
120621 2023-09-29 10:56:39 Bahnzimmer 19.20 19.16 76.00
120620 2023-09-29 10:54:01 Terrasse 18.80 18.54 69.30
120619 2023-09-29 10:52:59 Aussentemperatur 17.10 17.04 83.20
120618 2023-09-29 10:26:49 Terrasse 18.30 18.00 69.60
120617 2023-09-29 10:24:34 Aussentemperatur 17.00 16.94 83.50
120616 2023-09-29 09:58:27 Terrasse 18.20 17.90 69.80
120615 2023-09-29 09:56:33 Bahnzimmer 19.20 19.16 76.00
120614 2023-09-29 09:56:08 Aussentemperatur 16.90 16.83 83.70
120613 2023-09-29 09:30:09 Terrasse 17.80 17.45 69.40
120612 2023-09-29 09:27:42 Aussentemperatur 16.70 16.63 84.40
120611 2023-09-29 09:26:32 Bahnzimmer 19.00 18.96 76.60
120610 2023-09-29 09:01:00 Terrasse 17.50 17.17 71.50
120609 2023-09-29 08:59:16 Aussentemperatur 16.60 16.55 85.70
120608 2023-09-29 08:56:31 Bahnzimmer 18.70 18.65 77.70
120607 2023-09-29 08:32:52 Terrasse 17.40 17.11 73.20
120606 2023-09-29 08:30:50 Aussentemperatur 16.40 16.36 86.70
120605 2023-09-29 08:26:31 Bahnzimmer 18.60 18.57 78.70
120604 2023-09-29 08:04:53 Terrasse 17.20 16.91 74.00
120603 2023-09-29 08:02:26 Aussentemperatur 16.40 16.35 86.30
120602 2023-09-29 07:56:30 Bahnzimmer 18.60 18.56 78.30
120601 2023-09-29 07:34:01 Aussentemperatur 16.40 16.34 85.90
120600 2023-09-29 07:26:29 Bahnzimmer 18.70 18.62 76.40
120599 2023-09-29 07:05:35 Aussentemperatur 16.40 16.34 85.90
120598 2023-09-29 06:56:29 Bahnzimmer 18.70 18.55 73.80
120597 2023-09-29 06:39:12 Terrasse 17.40 17.09 72.70
120596 2023-09-29 06:37:18 Aussentemperatur 16.40 16.33 85.60
120595 2023-09-29 06:26:28 Bahnzimmer 18.70 18.55 73.80
120594 2023-09-29 06:11:05 Terrasse 17.40 17.09 72.60
120593 2023-09-29 06:08:50 Aussentemperatur 16.40 16.32 85.20
120592 2023-09-29 05:56:27 Bahnzimmer 18.70 18.55 73.60
120591 2023-09-29 05:42:56 Terrasse 17.50 17.19 72.00
120590 2023-09-29 05:40:24 Aussentemperatur 16.40 16.31 84.80
120589 2023-09-29 05:26:27 Bahnzimmer 18.70 18.55 73.60
120588 2023-09-29 05:14:48 Terrasse 17.40 17.06 71.50
120587 2023-09-29 05:11:59 Aussentemperatur 16.40 16.30 84.40
120586 2023-09-29 04:56:26 Bahnzimmer 18.70 18.55 73.70
120585 2023-09-29 04:46:41 Terrasse 17.30 16.94 71.20
120584 2023-09-29 04:43:32 Aussentemperatur 16.30 16.18 84.00
120583 2023-09-29 04:26:25 Bahnzimmer 18.70 18.55 73.70
120582 2023-09-29 04:18:33 Terrasse 17.20 16.81 70.40
120581 2023-09-29 04:15:07 Aussentemperatur 16.10 15.95 83.50
120580 2023-09-29 03:56:25 Bahnzimmer 18.70 18.55 73.70
120579 2023-09-29 03:50:26 Terrasse 17.40 17.02 70.00
120578 2023-09-29 03:46:42 Aussentemperatur 16.20 16.05 83.20
120577 2023-09-29 03:26:24 Bahnzimmer 18.70 18.55 73.70
120576 2023-09-29 03:22:18 Terrasse 17.50 17.12 69.40
120575 2023-09-29 03:18:16 Aussentemperatur 16.20 16.05 83.10
120574 2023-09-29 02:56:23 Bahnzimmer 18.80 18.66 73.70
120573 2023-09-29 02:54:12 Terrasse 17.60 17.21 68.60
120572 2023-09-29 02:49:52 Aussentemperatur 16.30 16.15 82.80
120571 2023-09-29 02:26:23 Bahnzimmer 18.80 18.66 73.70
120570 2023-09-29 02:26:05 Terrasse 17.80 17.42 68.30
120569 2023-09-29 02:21:27 Aussentemperatur 16.30 16.14 82.50
120568 2023-09-29 01:57:59 Terrasse 18.00 17.62 67.70
120567 2023-09-29 01:56:22 Bahnzimmer 18.80 18.66 73.60
120566 2023-09-29 01:53:03 Aussentemperatur 16.50 16.35 82.20
120565 2023-09-29 01:29:51 Terrasse 18.20 17.84 67.60
120564 2023-09-29 01:26:22 Bahnzimmer 18.80 18.66 73.60
120563 2023-09-29 01:24:39 Aussentemperatur 16.60 16.46 82.10
120562 2023-09-29 01:01:45 Terrasse 18.40 18.05 67.30
120561 2023-09-29 00:56:21 Bahnzimmer 18.90 18.76 73.50
120560 2023-09-29 00:56:15 Aussentemperatur 16.80 16.67 81.80
120559 2023-09-29 00:34:19 Terrasse 18.60 18.26 67.00
120558 2023-09-29 00:27:50 Aussentemperatur 16.90 16.77 81.40
120557 2023-09-29 00:26:20 Bahnzimmer 18.90 18.76 73.50
120556 2023-09-29 00:05:43 Terrasse 18.70 18.36 66.30
120555 2023-09-28 23:59:26 Aussentemperatur 16.90 16.76 80.90
120554 2023-09-28 23:56:20 Bahnzimmer 18.90 18.77 73.60
120553 2023-09-28 23:37:42 Terrasse 18.80 18.45 65.60
120552 2023-09-28 23:31:01 Aussentemperatur 17.00 16.85 80.40
120551 2023-09-28 23:26:19 Bahnzimmer 19.00 18.87 73.50
120550 2023-09-28 23:09:32 Terrasse 18.90 18.53 64.70
120549 2023-09-28 23:02:35 Aussentemperatur 17.00 16.84 79.90
120548 2023-09-28 22:56:18 Bahnzimmer 19.00 18.88 73.60
120547 2023-09-28 22:41:34 Terrasse 19.10 18.74 64.20
120546 2023-09-28 22:34:10 Aussentemperatur 17.00 16.84 79.80
120545 2023-09-28 22:26:18 Bahnzimmer 19.00 18.88 73.70
120544 2023-09-28 22:14:04 Terrasse 19.20 18.83 63.40
120543 2023-09-28 22:05:46 Aussentemperatur 17.00 16.83 79.50
120542 2023-09-28 21:56:17 Bahnzimmer 19.00 18.87 73.20
120541 2023-09-28 21:45:26 Terrasse 19.50 19.15 62.80
120540 2023-09-28 21:37:21 Aussentemperatur 17.30 17.16 79.50
120539 2023-09-28 21:26:16 Bahnzimmer 19.10 18.98 73.30
120538 2023-09-28 21:17:13 Terrasse 19.80 19.47 62.50
120537 2023-09-28 21:08:58 Aussentemperatur 17.40 17.26 79.20
120536 2023-09-28 20:56:16 Bahnzimmer 19.10 18.98 73.30
120535 2023-09-28 20:49:02 Terrasse 20.20 19.88 61.50
120534 2023-09-28 20:40:35 Aussentemperatur 17.70 17.59 78.90
120533 2023-09-28 20:26:15 Bahnzimmer 19.20 19.09 73.30
120532 2023-09-28 20:20:52 Terrasse 20.60 20.32 61.40
120531 2023-09-28 20:12:10 Aussentemperatur 18.00 17.91 78.70
120530 2023-09-28 19:56:14 Bahnzimmer 19.20 19.09 73.30
120529 2023-09-28 19:52:42 Terrasse 21.10 20.86 61.00
120528 2023-09-28 19:43:47 Aussentemperatur 18.30 18.22 78.10
120527 2023-09-28 19:26:14 Bahnzimmer 19.30 19.20 73.40
120526 2023-09-28 19:24:33 Terrasse 21.70 21.50 60.40
120525 2023-09-28 19:15:25 Aussentemperatur 18.80 18.75 77.00
120524 2023-09-28 18:56:23 Terrasse 22.50 22.36 59.50
120523 2023-09-28 18:56:13 Bahnzimmer 19.50 19.42 73.40
120522 2023-09-28 18:47:01 Aussentemperatur 19.20 19.16 76.00
120521 2023-09-28 18:28:12 Terrasse 23.20 23.08 57.70
120520 2023-09-28 18:26:12 Bahnzimmer 19.70 19.64 73.50
120519 2023-09-28 18:18:40 Aussentemperatur 19.80 19.73 72.50
120518 2023-09-28 18:00:05 Terrasse 24.00 23.87 54.00
120517 2023-09-28 17:56:12 Bahnzimmer 19.70 19.64 73.40
120516 2023-09-28 17:50:16 Aussentemperatur 19.90 19.80 71.20
120515 2023-09-28 17:31:57 Terrasse 25.00 24.89 51.00
120514 2023-09-28 17:26:11 Bahnzimmer 19.70 19.64 73.40
120513 2023-09-28 17:21:53 Aussentemperatur 20.30 20.16 67.80
120512 2023-09-28 17:03:46 Terrasse 25.80 25.72 49.30
120511 2023-09-28 16:56:11 Bahnzimmer 19.70 19.64 73.50
120510 2023-09-28 16:53:27 Aussentemperatur 20.50 20.37 67.50
120509 2023-09-28 16:35:34 Terrasse 26.00 25.93 48.70
120508 2023-09-28 16:26:10 Bahnzimmer 19.70 19.63 72.80
120507 2023-09-28 16:25:00 Aussentemperatur 20.30 20.15 67.70
120506 2023-09-28 16:07:21 Terrasse 26.40 26.81 48.40
120505 2023-09-28 15:56:35 Aussentemperatur 20.70 20.57 67.00
120504 2023-09-28 15:56:09 Bahnzimmer 19.70 19.61 72.20
120503 2023-09-28 15:39:06 Terrasse 26.10 26.02 48.00
120502 2023-09-28 15:28:10 Aussentemperatur 20.90 20.77 65.90
120501 2023-09-28 15:26:09 Bahnzimmer 19.50 19.40 72.60
120500 2023-09-28 15:10:53 Terrasse 26.00 25.94 49.20
120499 2023-09-28 14:59:45 Aussentemperatur 20.80 20.68 66.70
120498 2023-09-28 14:56:08 Bahnzimmer 19.40 19.29 72.50
120497 2023-09-28 14:42:39 Terrasse 25.80 25.74 49.80
120496 2023-09-28 14:31:19 Aussentemperatur 20.80 20.68 66.90
120495 2023-09-28 14:26:07 Bahnzimmer 19.20 19.08 72.80
120494 2023-09-28 14:14:26 Terrasse 25.90 25.80 47.90
120493 2023-09-28 14:02:53 Aussentemperatur 21.10 21.03 67.40
120492 2023-09-28 13:56:07 Bahnzimmer 19.00 18.85 72.60
120491 2023-09-28 13:46:14 Terrasse 26.00 25.95 49.70
120490 2023-09-28 13:34:26 Aussentemperatur 21.10 21.02 67.20
120489 2023-09-28 13:26:06 Bahnzimmer 19.10 18.96 72.40
120488 2023-09-28 13:18:22 Terrasse 27.80 27.97 46.80
120487 2023-09-28 13:06:01 Aussentemperatur 21.50 21.53 69.90
120486 2023-09-28 12:56:05 Bahnzimmer 19.20 19.07 72.60
120485 2023-09-28 12:49:57 Terrasse 27.50 27.88 49.60
120484 2023-09-28 12:37:38 Aussentemperatur 21.10 21.14 71.70
120483 2023-09-28 12:26:04 Bahnzimmer 19.20 19.06 72.30
120482 2023-09-28 12:21:19 Terrasse 24.00 23.92 56.00
120481 2023-09-28 12:09:10 Aussentemperatur 19.50 19.59 80.00
120480 2023-09-28 11:56:04 Bahnzimmer 19.00 18.86 72.90
120479 2023-09-28 11:52:53 Terrasse 20.50 20.27 63.90
120478 2023-09-28 11:40:29 Aussentemperatur 17.40 17.29 80.30
120477 2023-09-28 11:26:03 Bahnzimmer 18.80 18.65 73.30
120476 2023-09-28 11:24:41 Terrasse 19.40 19.11 65.50
120475 2023-09-28 11:12:01 Aussentemperatur 17.00 16.84 80.00
120474 2023-09-28 10:56:25 Terrasse 18.30 17.93 66.90
120473 2023-09-28 10:56:02 Bahnzimmer 18.80 18.64 73.00
120472 2023-09-28 10:43:32 Aussentemperatur 16.20 16.01 81.60
120471 2023-09-28 10:28:12 Terrasse 17.40 16.96 67.40
120470 2023-09-28 10:26:01 Bahnzimmer 18.70 18.54 73.20
120469 2023-09-28 10:15:04 Aussentemperatur 15.50 15.30 84.10
120468 2023-09-28 09:59:59 Terrasse 16.70 16.28 71.10
120467 2023-09-28 09:56:00 Bahnzimmer 18.60 18.43 73.50
120466 2023-09-28 09:46:38 Aussentemperatur 15.30 15.06 83.30
120465 2023-09-28 09:33:01 Terrasse 16.30 15.84 71.10
120464 2023-09-28 09:26:00 Bahnzimmer 18.60 18.43 73.30
120463 2023-09-28 09:18:12 Aussentemperatur 15.00 14.73 83.30
120462 2023-09-28 09:03:50 Terrasse 15.80 15.34 72.80
120461 2023-09-28 08:55:59 Bahnzimmer 18.40 18.21 73.20
120460 2023-09-28 08:49:45 Aussentemperatur 14.70 14.41 83.60
120459 2023-09-28 08:34:54 Terrasse 15.20 14.66 72.30
120458 2023-09-28 08:25:58 Bahnzimmer 18.40 18.20 73.00
120457 2023-09-28 08:21:20 Aussentemperatur 14.30 13.96 83.40
120456 2023-09-28 08:06:33 Terrasse 15.00 14.42 71.30
120455 2023-09-28 07:55:58 Bahnzimmer 18.40 18.21 73.30
120454 2023-09-28 07:53:05 Aussentemperatur 14.40 14.05 82.70
120453 2023-09-28 07:38:21 Terrasse 15.20 14.62 70.80
120452 2023-09-28 07:25:57 Bahnzimmer 18.20 17.97 72.60
120451 2023-09-28 07:24:39 Aussentemperatur 14.50 14.16 82.50
120450 2023-09-28 07:10:15 Terrasse 15.40 14.82 70.00
120449 2023-09-28 06:56:16 Aussentemperatur 14.80 14.49 82.50
120448 2023-09-28 06:55:57 Bahnzimmer 18.20 17.96 72.10
120447 2023-09-28 06:42:05 Terrasse 15.70 15.14 69.40
120446 2023-09-28 06:27:53 Aussentemperatur 15.00 14.72 82.80
120445 2023-09-28 06:25:56 Bahnzimmer 18.20 17.96 72.10
120444 2023-09-28 06:14:19 Terrasse 16.00 15.49 70.10
120443 2023-09-28 05:59:30 Aussentemperatur 15.30 15.05 83.00
120442 2023-09-28 05:55:55 Bahnzimmer 18.20 17.96 72.10
120441 2023-09-28 05:46:23 Terrasse 16.20 15.72 70.50
120440 2023-09-28 05:31:04 Aussentemperatur 15.40 15.16 82.90
120439 2023-09-28 05:25:55 Bahnzimmer 18.20 17.96 72.10
120438 2023-09-28 05:18:25 Terrasse 16.20 15.72 70.50
120437 2023-09-28 05:02:40 Aussentemperatur 15.40 15.15 82.60
120436 2023-09-28 04:55:54 Bahnzimmer 18.20 17.96 72.10
120435 2023-09-28 04:50:27 Terrasse 16.30 15.79 69.20
120434 2023-09-28 04:34:15 Aussentemperatur 15.30 15.03 82.30
120433 2023-09-28 04:25:53 Bahnzimmer 18.20 17.96 72.10
120432 2023-09-28 04:22:29 Terrasse 16.20 15.68 69.20
120431 2023-09-28 04:05:50 Aussentemperatur 15.40 15.14 82.20
120430 2023-09-28 03:55:53 Bahnzimmer 18.20 17.96 72.20
120429 2023-09-28 03:54:33 Terrasse 16.40 15.89 68.70
120428 2023-09-28 03:37:25 Aussentemperatur 15.40 15.14 82.20
120427 2023-09-28 03:26:36 Terrasse 16.40 15.88 68.50
120426 2023-09-28 03:25:52 Bahnzimmer 18.20 17.96 72.20
120425 2023-09-28 03:09:02 Aussentemperatur 15.40 15.14 82.10
120424 2023-09-28 02:58:40 Terrasse 16.60 16.10 68.30
120423 2023-09-28 02:55:51 Bahnzimmer 18.20 17.96 72.10
120422 2023-09-28 02:40:39 Aussentemperatur 15.50 15.25 82.20
120421 2023-09-28 02:30:39 Terrasse 16.60 16.09 68.10
120420 2023-09-28 02:25:51 Bahnzimmer 18.30 18.07 72.20
120419 2023-09-28 02:12:15 Aussentemperatur 15.40 15.15 82.40
120418 2023-09-28 02:02:43 Terrasse 16.70 16.21 68.40
120417 2023-09-28 01:55:50 Bahnzimmer 18.30 18.07 72.10
120416 2023-09-28 01:43:49 Aussentemperatur 15.40 15.15 82.50
120415 2023-09-28 01:34:48 Terrasse 16.80 16.31 68.10
120414 2023-09-28 01:25:49 Bahnzimmer 18.20 17.96 72.30
120413 2023-09-28 01:15:26 Aussentemperatur 15.40 15.15 82.50
120412 2023-09-28 01:07:45 Terrasse 16.70 16.21 68.50
120411 2023-09-28 00:55:49 Bahnzimmer 18.20 17.96 72.30
120410 2023-09-28 00:47:01 Aussentemperatur 15.40 15.15 82.60
120409 2023-09-28 00:37:51 Terrasse 16.90 16.43 68.40
120408 2023-09-28 00:25:48 Bahnzimmer 18.20 17.96 72.30
120407 2023-09-28 00:18:37 Aussentemperatur 15.50 15.25 82.00
120406 2023-09-28 00:10:00 Terrasse 17.00 16.53 68.00
120405 2023-09-27 23:55:47 Bahnzimmer 18.30 18.07 72.30
120404 2023-09-27 23:50:13 Aussentemperatur 15.50 15.23 81.50
120403 2023-09-27 23:42:01 Terrasse 17.10 16.63 67.70
120402 2023-09-27 23:25:47 Bahnzimmer 18.30 18.07 72.30
120401 2023-09-27 23:21:51 Aussentemperatur 15.60 15.33 80.90
120400 2023-09-27 23:14:50 Terrasse 17.20 16.71 66.30
120399 2023-09-27 22:55:46 Bahnzimmer 18.30 18.07 72.30
120398 2023-09-27 22:53:27 Aussentemperatur 15.80 15.53 80.30
120397 2023-09-27 22:45:48 Terrasse 17.70 17.24 65.50
120396 2023-09-27 22:25:45 Bahnzimmer 18.30 18.07 72.30
120395 2023-09-27 22:25:03 Aussentemperatur 16.00 15.72 79.10
120394 2023-09-27 22:16:31 Terrasse 17.80 17.31 64.30
120393 2023-09-27 21:56:39 Aussentemperatur 16.10 15.80 78.10
120392 2023-09-27 21:55:45 Bahnzimmer 18.40 18.18 72.30
120391 2023-09-27 21:47:43 Terrasse 18.10 17.60 62.50
120390 2023-09-27 21:28:15 Aussentemperatur 16.10 15.79 77.60
120389 2023-09-27 21:25:44 Bahnzimmer 18.40 18.18 72.20
120388 2023-09-27 21:19:45 Terrasse 18.30 17.79 61.60
120387 2023-09-27 20:59:51 Aussentemperatur 16.40 16.11 77.20
120386 2023-09-27 20:55:43 Bahnzimmer 18.50 18.29 72.10
120385 2023-09-27 20:51:37 Terrasse 18.70 18.19 60.00
120384 2023-09-27 20:31:29 Aussentemperatur 16.60 16.32 76.70
120383 2023-09-27 20:25:43 Bahnzimmer 18.60 18.40 72.10
120382 2023-09-27 20:23:39 Terrasse 19.40 18.92 58.40
120381 2023-09-27 20:03:06 Aussentemperatur 17.00 16.76 76.60
120380 2023-09-27 19:55:42 Bahnzimmer 18.60 18.38 71.60
120379 2023-09-27 19:55:41 Terrasse 20.10 19.69 58.50
120378 2023-09-27 19:34:43 Aussentemperatur 17.50 17.29 75.90
120377 2023-09-27 19:28:19 Terrasse 20.70 20.36 58.70
120376 2023-09-27 19:25:41 Bahnzimmer 18.70 18.49 71.60
120375 2023-09-27 19:06:20 Aussentemperatur 18.00 17.81 74.70
120374 2023-09-27 18:59:10 Terrasse 21.70 21.38 55.80
120373 2023-09-27 18:55:41 Bahnzimmer 18.70 18.49 71.60
120372 2023-09-27 18:37:58 Aussentemperatur 18.50 18.32 73.50
120371 2023-09-27 18:31:03 Terrasse 22.80 22.49 51.90
120370 2023-09-27 18:25:40 Bahnzimmer 18.80 18.60 71.60
120369 2023-09-27 18:09:35 Aussentemperatur 19.00 18.80 70.70
120368 2023-09-27 18:03:07 Terrasse 23.70 23.45 50.70
120367 2023-09-27 17:55:39 Bahnzimmer 18.90 18.71 71.50
120366 2023-09-27 17:41:11 Aussentemperatur 19.50 19.29 68.20
120365 2023-09-27 17:34:57 Terrasse 25.00 24.81 47.90
120364 2023-09-27 17:25:39 Bahnzimmer 18.90 18.72 71.80
120363 2023-09-27 17:12:47 Aussentemperatur 19.70 19.48 67.10
120362 2023-09-27 17:06:47 Terrasse 26.10 25.96 45.60
120361 2023-09-27 16:55:38 Bahnzimmer 18.90 18.73 72.20
120360 2023-09-27 16:44:23 Aussentemperatur 19.70 19.49 67.50
120359 2023-09-27 16:38:35 Terrasse 26.10 25.98 46.60
120358 2023-09-27 16:25:38 Bahnzimmer 18.90 18.72 71.90
120357 2023-09-27 16:15:58 Aussentemperatur 19.70 19.50 68.10
120356 2023-09-27 16:10:20 Terrasse 26.60 26.91 47.00
120355 2023-09-27 15:55:37 Bahnzimmer 18.90 18.75 73.10
120354 2023-09-27 15:47:37 Aussentemperatur 20.00 19.81 67.20
120353 2023-09-27 15:42:13 Terrasse 26.50 26.77 45.70
120352 2023-09-27 15:25:36 Bahnzimmer 18.80 18.64 73.00
120351 2023-09-27 15:19:11 Aussentemperatur 20.20 20.07 68.70
120350 2023-09-27 15:13:56 Terrasse 25.80 25.70 48.40
120349 2023-09-27 14:55:35 Bahnzimmer 18.70 18.52 72.70
120348 2023-09-27 14:50:45 Aussentemperatur 20.00 19.85 68.60
120347 2023-09-27 14:45:40 Terrasse 25.20 25.07 49.70
120346 2023-09-27 14:25:35 Bahnzimmer 18.50 18.25 70.70
120345 2023-09-27 14:22:18 Aussentemperatur 19.80 19.66 69.90
120344 2023-09-27 14:17:28 Terrasse 24.80 24.64 50.00
120343 2023-09-27 13:55:34 Bahnzimmer 18.30 18.02 70.40
120342 2023-09-27 13:53:54 Aussentemperatur 20.00 19.87 69.60
120341 2023-09-27 13:49:15 Terrasse 24.80 24.66 50.70
120340 2023-09-27 13:25:33 Bahnzimmer 18.40 18.13 70.20
120339 2023-09-27 13:25:27 Aussentemperatur 20.10 20.02 71.20
120338 2023-09-27 13:21:10 Terrasse 25.40 25.38 52.90
120337 2023-09-27 12:56:56 Aussentemperatur 18.90 18.80 75.00
120336 2023-09-27 12:55:33 Bahnzimmer 18.50 18.23 69.80
120335 2023-09-27 12:52:31 Terrasse 23.20 23.02 55.30
120334 2023-09-27 12:28:39 Aussentemperatur 19.40 19.43 78.00
120333 2023-09-27 12:25:32 Bahnzimmer 18.40 18.13 70.10
120332 2023-09-27 12:24:23 Terrasse 22.20 22.00 58.30
120331 2023-09-27 11:59:41 Aussentemperatur 17.10 17.02 82.40
120330 2023-09-27 11:55:53 Terrasse 19.70 19.38 63.40
120329 2023-09-27 11:55:32 Bahnzimmer 18.30 18.02 70.20
120328 2023-09-27 11:31:12 Aussentemperatur 16.70 16.58 82.50
120327 2023-09-27 11:27:39 Terrasse 18.70 18.34 65.50
120326 2023-09-27 11:25:31 Bahnzimmer 18.10 17.82 70.90
120325 2023-09-27 11:02:42 Aussentemperatur 15.50 15.34 85.40
120324 2023-09-27 10:59:16 Terrasse 17.50 17.16 71.20
120323 2023-09-27 10:55:30 Bahnzimmer 18.10 17.81 70.80
120322 2023-09-27 10:34:15 Aussentemperatur 14.80 14.56 85.30
120321 2023-09-27 10:30:56 Terrasse 16.40 16.01 73.40
120320 2023-09-27 10:25:30 Bahnzimmer 18.10 17.82 70.90
120319 2023-09-27 10:05:48 Aussentemperatur 14.60 14.33 84.70
120318 2023-09-27 10:02:40 Terrasse 15.60 15.14 73.60
120317 2023-09-27 09:55:29 Bahnzimmer 18.10 17.82 71.10
120316 2023-09-27 09:37:22 Aussentemperatur 14.20 13.88 84.50
120315 2023-09-27 09:34:23 Terrasse 14.90 14.39 74.40
120314 2023-09-27 09:25:28 Bahnzimmer 18.00 17.71 71.10
120313 2023-09-27 09:08:56 Aussentemperatur 13.90 13.53 83.70
120312 2023-09-27 09:06:07 Terrasse 14.40 13.84 74.30
120311 2023-09-27 08:55:28 Bahnzimmer 18.10 17.82 71.20
120310 2023-09-27 08:40:31 Aussentemperatur 13.50 13.07 82.90
120309 2023-09-27 08:37:54 Terrasse 13.90 13.27 73.80
120308 2023-09-27 08:25:27 Bahnzimmer 18.10 17.84 71.80
120307 2023-09-27 08:12:06 Aussentemperatur 13.30 12.83 82.30
120306 2023-09-27 08:09:41 Terrasse 13.60 12.91 72.70
120305 2023-09-27 07:55:26 Bahnzimmer 18.00 17.75 72.40
120304 2023-09-27 07:43:42 Aussentemperatur 13.30 12.82 81.80
120303 2023-09-27 07:41:29 Terrasse 13.60 12.88 71.40
120302 2023-09-27 07:25:25 Bahnzimmer 17.90 17.60 71.20
120301 2023-09-27 07:15:20 Aussentemperatur 13.40 12.93 81.80
120300 2023-09-27 07:13:16 Terrasse 13.70 13.00 71.90
120299 2023-09-27 06:55:25 Bahnzimmer 17.80 17.49 71.20
120298 2023-09-27 06:46:57 Aussentemperatur 13.50 13.04 81.70
120297 2023-09-27 06:45:06 Terrasse 13.90 13.20 71.00
120296 2023-09-27 06:25:24 Bahnzimmer 17.90 17.60 71.20
120295 2023-09-27 06:18:34 Aussentemperatur 13.50 13.04 81.80
120294 2023-09-27 06:17:13 Terrasse 14.10 13.43 71.50
120293 2023-09-27 05:55:23 Bahnzimmer 17.90 17.60 71.10
120292 2023-09-27 05:50:10 Aussentemperatur 13.60 13.13 81.00
120291 2023-09-27 05:49:03 Terrasse 14.10 13.41 70.50
120290 2023-09-27 05:25:23 Bahnzimmer 18.00 17.71 71.10
120289 2023-09-27 05:21:45 Aussentemperatur 13.60 13.13 80.80
120288 2023-09-27 05:20:57 Terrasse 14.30 13.60 69.40
120287 2023-09-27 04:55:22 Bahnzimmer 18.00 17.71 70.90
120286 2023-09-27 04:53:21 Aussentemperatur 13.80 13.34 80.70
120285 2023-09-27 04:25:21 Bahnzimmer 18.00 17.71 70.90
120284 2023-09-27 04:24:58 Aussentemperatur 14.10 13.67 80.70
120283 2023-09-27 03:56:57 Terrasse 15.10 14.45 68.30
120282 2023-09-27 03:56:34 Aussentemperatur 14.20 13.78 80.70
120281 2023-09-27 03:55:21 Bahnzimmer 18.00 17.71 70.90
120280 2023-09-27 03:28:48 Terrasse 15.20 14.56 68.20
120279 2023-09-27 03:28:11 Aussentemperatur 14.20 13.78 80.50
120278 2023-09-27 03:25:20 Bahnzimmer 18.00 17.70 70.80
120277 2023-09-27 03:00:42 Terrasse 15.40 14.77 67.80
120276 2023-09-27 02:59:48 Aussentemperatur 14.40 13.99 80.30
120275 2023-09-27 02:55:19 Bahnzimmer 18.00 17.71 70.90
120274 2023-09-27 02:32:35 Terrasse 15.50 14.86 67.30
120273 2023-09-27 02:31:24 Aussentemperatur 14.40 13.98 80.00
120272 2023-09-27 02:25:18 Bahnzimmer 18.00 17.70 70.80
120271 2023-09-27 02:04:33 Terrasse 15.80 15.18 67.00
120270 2023-09-27 02:02:59 Aussentemperatur 14.50 14.09 79.70
120269 2023-09-27 01:55:18 Bahnzimmer 18.00 17.70 70.80
120268 2023-09-27 01:37:42 Terrasse 15.80 15.17 66.60
120267 2023-09-27 01:34:35 Aussentemperatur 14.60 14.19 79.30
120266 2023-09-27 01:25:17 Bahnzimmer 18.00 17.70 70.80
120265 2023-09-27 01:08:34 Terrasse 15.80 15.18 66.80
120264 2023-09-27 01:06:14 Aussentemperatur 14.90 14.51 79.10
120263 2023-09-27 00:55:16 Bahnzimmer 18.10 17.81 70.80
120262 2023-09-27 00:39:29 Terrasse 16.10 15.48 65.70
120261 2023-09-27 00:37:49 Aussentemperatur 14.90 14.50 78.60
120260 2023-09-27 00:25:16 Bahnzimmer 18.10 17.81 70.80
120259 2023-09-27 00:11:22 Terrasse 16.10 15.47 65.20
120258 2023-09-27 00:09:25 Aussentemperatur 14.90 14.48 78.10
120257 2023-09-26 23:55:15 Bahnzimmer 18.10 17.81 70.80
120256 2023-09-26 23:43:16 Terrasse 16.30 15.67 64.60
120255 2023-09-26 23:40:59 Aussentemperatur 14.90 14.47 77.70
120254 2023-09-26 23:25:14 Bahnzimmer 18.10 17.81 70.80
120253 2023-09-26 23:15:10 Terrasse 16.50 15.87 63.70
120252 2023-09-26 23:12:35 Aussentemperatur 14.90 14.46 77.10
120251 2023-09-26 22:55:14 Bahnzimmer 18.20 17.92 70.80
120250 2023-09-26 22:47:06 Terrasse 16.70 16.06 62.70
120249 2023-09-26 22:44:12 Aussentemperatur 15.00 14.55 76.40
120248 2023-09-26 22:25:13 Bahnzimmer 18.30 18.03 70.60
120247 2023-09-26 22:20:13 Terrasse 16.90 16.25 61.60
120246 2023-09-26 22:15:48 Aussentemperatur 15.10 14.64 75.60
120245 2023-09-26 21:55:12 Bahnzimmer 18.50 18.23 70.00
120244 2023-09-26 21:50:07 Terrasse 17.10 16.45 60.70
120243 2023-09-26 21:47:25 Aussentemperatur 15.30 14.83 74.50
120242 2023-09-26 21:25:12 Bahnzimmer 18.40 18.14 70.60
120241 2023-09-26 21:22:59 Terrasse 17.50 16.85 59.10
120240 2023-09-26 21:19:13 Aussentemperatur 15.50 15.03 73.80
120239 2023-09-26 20:55:11 Bahnzimmer 18.20 17.90 69.90
120238 2023-09-26 20:53:52 Terrasse 17.90 17.28 58.70
120237 2023-09-26 20:50:48 Aussentemperatur 15.80 15.35 73.50
120236 2023-09-26 20:26:43 Terrasse 18.30 17.70 57.90
120235 2023-09-26 20:25:10 Bahnzimmer 18.30 18.01 69.80
120234 2023-09-26 20:22:26 Aussentemperatur 16.10 15.68 73.20
120233 2023-09-26 19:57:29 Terrasse 18.80 18.23 57.40
120232 2023-09-26 19:55:10 Bahnzimmer 18.30 18.00 69.60
120231 2023-09-26 19:54:03 Aussentemperatur 16.40 15.99 72.70
120230 2023-09-26 19:29:28 Terrasse 19.30 18.78 57.10
120229 2023-09-26 19:25:41 Aussentemperatur 16.90 16.51 71.50
120228 2023-09-26 19:25:09 Bahnzimmer 18.50 18.20 68.70
120227 2023-09-26 19:01:20 Terrasse 20.40 19.93 55.10
120226 2023-09-26 18:57:20 Aussentemperatur 17.60 17.24 69.80
120225 2023-09-26 18:55:08 Bahnzimmer 18.50 18.20 68.60
120224 2023-09-26 18:33:42 Terrasse 21.70 21.24 50.40
120223 2023-09-26 18:29:01 Aussentemperatur 18.60 18.24 65.90
120222 2023-09-26 18:25:08 Bahnzimmer 18.60 18.30 68.30
120221 2023-09-26 18:05:18 Terrasse 22.50 22.06 48.00
120220 2023-09-26 18:00:39 Aussentemperatur 19.00 18.63 64.30
120219 2023-09-26 17:55:07 Bahnzimmer 18.60 18.29 68.00
120218 2023-09-26 17:37:11 Terrasse 23.60 23.26 47.60
120217 2023-09-26 17:32:15 Aussentemperatur 19.10 18.73 63.90
120216 2023-09-26 17:25:06 Bahnzimmer 18.60 18.30 68.50
120215 2023-09-26 17:09:01 Terrasse 24.90 24.62 44.80
120214 2023-09-26 17:03:51 Aussentemperatur 19.20 18.83 63.20
120213 2023-09-26 16:55:06 Bahnzimmer 18.60 18.30 68.30
120212 2023-09-26 16:40:49 Terrasse 25.30 25.03 43.70
120211 2023-09-26 16:35:28 Aussentemperatur 19.50 19.16 63.30
120210 2023-09-26 16:25:05 Bahnzimmer 18.60 18.29 68.00
120209 2023-09-26 16:12:36 Terrasse 25.80 25.57 43.60
120208 2023-09-26 16:07:03 Aussentemperatur 19.70 19.37 63.00
120207 2023-09-26 15:55:05 Bahnzimmer 18.70 18.39 67.50
120206 2023-09-26 15:44:21 Terrasse 25.30 25.06 45.10
120205 2023-09-26 15:38:37 Aussentemperatur 19.50 19.16 63.30
120204 2023-09-26 15:25:04 Bahnzimmer 18.60 18.30 68.50
120203 2023-09-26 15:16:04 Terrasse 24.50 24.20 45.90
120202 2023-09-26 15:10:12 Aussentemperatur 19.30 18.95 63.80
120201 2023-09-26 14:55:03 Bahnzimmer 18.50 18.20 68.70
120200 2023-09-26 14:48:00 Terrasse 24.20 23.88 46.30
120199 2023-09-26 14:41:46 Aussentemperatur 19.20 18.88 65.10
120198 2023-09-26 14:25:02 Bahnzimmer 18.50 18.20 68.80
120197 2023-09-26 14:19:45 Terrasse 24.20 23.91 47.30
120196 2023-09-26 14:13:21 Aussentemperatur 19.10 18.78 65.60
120195 2023-09-26 13:55:02 Bahnzimmer 18.30 17.99 69.30
120194 2023-09-26 13:51:38 Terrasse 24.50 24.24 47.20
120193 2023-09-26 13:44:57 Aussentemperatur 19.50 19.21 65.40
120192 2023-09-26 13:25:01 Bahnzimmer 18.20 17.89 69.40
120191 2023-09-26 13:23:41 Terrasse 25.80 25.64 46.20
120190 2023-09-26 13:16:31 Aussentemperatur 19.60 19.34 66.10
120189 2023-09-26 12:55:32 Terrasse 27.30 27.35 44.50
120188 2023-09-26 12:55:00 Bahnzimmer 18.20 17.89 69.50
120187 2023-09-26 12:48:03 Aussentemperatur 19.40 19.16 67.70
120186 2023-09-26 12:26:48 Terrasse 23.60 23.34 50.90
120185 2023-09-26 12:25:00 Bahnzimmer 18.00 17.68 70.00
120184 2023-09-26 12:20:09 Aussentemperatur 18.80 18.66 73.90
120183 2023-09-26 11:58:12 Terrasse 18.60 18.11 60.90
120182 2023-09-26 11:54:59 Bahnzimmer 18.00 17.68 69.90
120181 2023-09-26 11:51:09 Aussentemperatur 15.10 14.70 77.80
120180 2023-09-26 11:29:57 Terrasse 17.50 16.93 62.30
120179 2023-09-26 11:24:58 Bahnzimmer 18.00 17.68 69.80
120178 2023-09-26 11:22:43 Aussentemperatur 14.80 14.35 77.30
120177 2023-09-26 10:54:58 Bahnzimmer 18.00 17.68 69.70
120176 2023-09-26 10:54:16 Aussentemperatur 14.20 13.72 78.30
120175 2023-09-26 10:30:53 Terrasse 15.30 14.60 65.60
120174 2023-09-26 10:25:49 Aussentemperatur 13.90 13.39 78.20
120173 2023-09-26 10:24:57 Bahnzimmer 18.00 17.66 69.10
120172 2023-09-26 10:02:28 Terrasse 14.40 13.67 68.00
120171 2023-09-26 09:57:24 Aussentemperatur 13.50 12.96 78.80
120170 2023-09-26 09:54:57 Bahnzimmer 17.80 17.47 70.40
120169 2023-09-26 09:34:11 Terrasse 13.60 12.82 69.30
120168 2023-09-26 09:28:59 Aussentemperatur 13.10 12.53 79.00
120167 2023-09-26 09:24:56 Bahnzimmer 17.80 17.48 70.50
120166 2023-09-26 09:05:54 Terrasse 12.90 12.04 68.80
120165 2023-09-26 09:00:33 Aussentemperatur 12.70 12.08 78.80
120164 2023-09-26 08:54:55 Bahnzimmer 17.80 17.47 70.30
120163 2023-09-26 08:37:45 Terrasse 12.40 11.53 70.40
120162 2023-09-26 08:32:07 Aussentemperatur 12.20 11.55 79.30
120161 2023-09-26 08:24:55 Bahnzimmer 17.80 17.47 70.30
120160 2023-09-26 08:09:31 Terrasse 12.00 11.07 69.40
120159 2023-09-26 08:03:42 Aussentemperatur 11.90 11.19 78.30
120158 2023-09-26 07:54:54 Bahnzimmer 17.80 17.47 70.30
120157 2023-09-26 07:41:28 Terrasse 12.00 11.04 68.30
120156 2023-09-26 07:35:18 Aussentemperatur 11.90 11.18 77.80
120155 2023-09-26 07:24:53 Bahnzimmer 17.80 17.47 70.20
120154 2023-09-26 07:06:56 Aussentemperatur 11.90 11.17 77.60
120153 2023-09-26 06:54:53 Bahnzimmer 17.80 17.47 70.20
120152 2023-09-26 06:42:49 Terrasse 12.20 11.25 67.90
120151 2023-09-26 06:38:33 Aussentemperatur 12.00 11.27 77.30
120150 2023-09-26 06:24:52 Bahnzimmer 17.80 17.47 70.20
120149 2023-09-26 06:14:42 Terrasse 12.10 11.13 67.70
120148 2023-09-26 06:10:10 Aussentemperatur 12.10 11.37 76.80
120147 2023-09-26 05:54:51 Bahnzimmer 17.80 17.47 70.20
120146 2023-09-26 05:46:27 Terrasse 12.20 11.22 67.00
120145 2023-09-26 05:41:47 Aussentemperatur 12.10 11.36 76.20
120144 2023-09-26 05:24:51 Bahnzimmer 17.80 17.47 70.20
120143 2023-09-26 05:18:17 Terrasse 12.30 11.33 66.90
120142 2023-09-26 05:13:25 Aussentemperatur 12.20 11.46 76.00
120141 2023-09-26 04:54:50 Bahnzimmer 17.80 17.47 70.20
120140 2023-09-26 04:50:08 Terrasse 12.50 11.53 66.10
120139 2023-09-26 04:45:02 Aussentemperatur 12.30 11.56 75.60
120138 2023-09-26 04:24:49 Bahnzimmer 17.80 17.46 70.00
120137 2023-09-26 04:21:58 Terrasse 12.70 11.73 65.30
120136 2023-09-26 04:16:40 Aussentemperatur 12.50 11.78 75.50
120135 2023-09-26 03:54:49 Bahnzimmer 17.80 17.46 70.00
120134 2023-09-26 03:53:47 Terrasse 12.90 11.94 65.00
120133 2023-09-26 03:48:18 Aussentemperatur 12.50 11.76 74.90
120132 2023-09-26 03:25:38 Terrasse 13.20 12.25 64.10
120131 2023-09-26 03:24:48 Bahnzimmer 17.90 17.57 69.80
120130 2023-09-26 03:19:55 Aussentemperatur 12.80 12.08 74.50
120129 2023-09-26 02:57:27 Terrasse 13.50 12.56 63.30
120128 2023-09-26 02:54:47 Bahnzimmer 18.00 17.68 69.70
120127 2023-09-26 02:51:32 Aussentemperatur 12.90 12.18 74.10
120126 2023-09-26 02:29:18 Terrasse 13.70 12.75 62.20
120125 2023-09-26 02:24:47 Bahnzimmer 18.00 17.67 69.60
120124 2023-09-26 02:23:09 Aussentemperatur 13.10 12.39 73.70
120123 2023-09-26 02:01:07 Terrasse 14.00 13.06 61.50
120122 2023-09-26 01:54:46 Aussentemperatur 13.30 12.60 73.20
120121 2023-09-26 01:54:46 Bahnzimmer 18.00 17.67 69.50
120120 2023-09-26 01:32:57 Terrasse 14.20 13.27 61.10
120119 2023-09-26 01:26:23 Aussentemperatur 13.40 12.69 72.40
120118 2023-09-26 01:24:45 Bahnzimmer 18.00 17.66 69.20
120117 2023-09-26 01:04:47 Terrasse 14.50 13.57 59.80
120116 2023-09-26 00:58:02 Aussentemperatur 13.70 13.01 72.00
120115 2023-09-26 00:54:45 Bahnzimmer 18.10 17.77 69.20
120114 2023-09-26 00:37:36 Terrasse 14.90 13.98 58.70
120113 2023-09-26 00:29:48 Aussentemperatur 13.90 13.21 71.60
120112 2023-09-26 00:24:44 Bahnzimmer 18.10 17.77 69.10
120111 2023-09-26 00:08:20 Terrasse 15.20 14.30 58.20
120110 2023-09-26 00:01:21 Aussentemperatur 13.90 13.22 71.80
120109 2023-09-25 23:54:43 Bahnzimmer 18.20 17.87 68.90
120108 2023-09-25 23:40:10 Terrasse 15.40 14.51 58.00
120107 2023-09-25 23:32:59 Aussentemperatur 14.20 13.55 71.70
120106 2023-09-25 23:24:43 Bahnzimmer 18.20 17.87 68.80
120105 2023-09-25 23:11:59 Terrasse 15.60 14.72 57.60
120104 2023-09-25 23:04:36 Aussentemperatur 14.20 13.54 71.50
120103 2023-09-25 22:54:42 Bahnzimmer 18.20 17.87 68.70
120102 2023-09-25 22:43:48 Terrasse 15.70 14.82 57.10
120101 2023-09-25 22:36:13 Aussentemperatur 14.30 13.65 71.40
120100 2023-09-25 22:24:41 Bahnzimmer 18.30 17.98 68.70
120099 2023-09-25 22:15:45 Terrasse 15.80 14.95 57.90
120098 2023-09-25 22:07:50 Aussentemperatur 14.40 13.77 71.70
120097 2023-09-25 21:54:41 Bahnzimmer 18.30 17.98 68.60
120096 2023-09-25 21:47:32 Terrasse 16.10 15.26 57.30
120095 2023-09-25 21:39:27 Aussentemperatur 14.50 13.87 71.30
120094 2023-09-25 21:24:40 Bahnzimmer 18.40 18.08 68.30
120093 2023-09-25 21:19:21 Terrasse 16.40 15.57 56.50
120092 2023-09-25 21:11:04 Aussentemperatur 14.70 14.08 71.00
120091 2023-09-25 20:54:39 Bahnzimmer 18.40 18.08 68.20
120090 2023-09-25 20:51:11 Terrasse 16.70 15.91 56.70
120089 2023-09-25 20:42:42 Aussentemperatur 15.00 14.39 70.40
120088 2023-09-25 20:24:39 Bahnzimmer 18.50 18.18 68.10
120087 2023-09-25 20:23:01 Terrasse 17.10 16.30 55.10
120086 2023-09-25 20:14:18 Aussentemperatur 15.30 14.70 69.60
120085 2023-09-25 19:55:51 Terrasse 17.70 16.92 53.60
120084 2023-09-25 19:54:38 Bahnzimmer 18.40 18.05 67.30
120083 2023-09-25 19:45:55 Aussentemperatur 15.60 15.01 68.70
120082 2023-09-25 19:26:49 Terrasse 18.60 17.85 51.10
120081 2023-09-25 19:24:38 Bahnzimmer 18.60 18.25 66.40
120080 2023-09-25 19:17:34 Aussentemperatur 16.00 15.43 67.80
120079 2023-09-25 18:58:45 Terrasse 19.50 18.82 50.40
120078 2023-09-25 18:54:37 Bahnzimmer 18.60 18.23 65.70
120077 2023-09-25 18:49:12 Aussentemperatur 16.60 16.04 65.90
120076 2023-09-25 18:30:42 Terrasse 20.30 19.62 47.40
120075 2023-09-25 18:24:36 Bahnzimmer 18.60 18.20 64.50
120074 2023-09-25 18:20:51 Aussentemperatur 17.00 16.43 64.00
120073 2023-09-25 18:02:34 Terrasse 21.10 20.41 43.70
120072 2023-09-25 17:54:36 Bahnzimmer 18.80 18.39 63.50
120071 2023-09-25 17:52:30 Aussentemperatur 17.50 16.89 60.50
120070 2023-09-25 17:34:30 Terrasse 22.50 21.91 42.40
120069 2023-09-25 17:24:35 Bahnzimmer 19.10 18.69 62.20
120068 2023-09-25 17:24:09 Aussentemperatur 17.90 17.28 58.60
120067 2023-09-25 17:06:26 Terrasse 24.20 23.75 41.00
120066 2023-09-25 16:55:45 Aussentemperatur 18.20 17.56 56.90
120065 2023-09-25 16:54:34 Bahnzimmer 19.40 19.02 62.30
120064 2023-09-25 16:38:15 Terrasse 24.50 24.05 40.10
120063 2023-09-25 16:27:22 Aussentemperatur 18.30 17.69 57.70
120062 2023-09-25 16:24:34 Bahnzimmer 19.10 18.76 65.00
120061 2023-09-25 16:10:13 Terrasse 25.00 24.56 38.50
120060 2023-09-25 15:58:58 Aussentemperatur 18.50 17.92 58.00
120059 2023-09-25 15:54:33 Bahnzimmer 18.80 18.44 65.40
120058 2023-09-25 15:41:53 Terrasse 24.40 23.95 40.40
120057 2023-09-25 15:30:32 Aussentemperatur 18.40 17.83 58.80
120056 2023-09-25 15:24:32 Bahnzimmer 18.70 18.36 66.50
120055 2023-09-25 15:13:39 Terrasse 23.90 23.45 42.40
120054 2023-09-25 15:02:07 Aussentemperatur 18.10 17.52 59.50
120053 2023-09-25 14:54:32 Bahnzimmer 18.60 18.26 66.90
120052 2023-09-25 14:45:28 Terrasse 23.60 23.16 43.90
120051 2023-09-25 14:33:42 Aussentemperatur 18.00 17.39 58.70
120050 2023-09-25 14:24:31 Bahnzimmer 18.50 18.24 70.40
120049 2023-09-25 14:17:18 Terrasse 23.70 23.24 42.50
120048 2023-09-25 14:05:17 Aussentemperatur 18.00 17.41 59.70
120047 2023-09-25 13:54:30 Bahnzimmer 18.60 18.35 70.40
120046 2023-09-25 13:49:14 Terrasse 24.30 23.91 43.00
120045 2023-09-25 13:36:52 Aussentemperatur 18.00 17.41 59.50
120044 2023-09-25 13:24:30 Bahnzimmer 18.50 18.25 70.70
120043 2023-09-25 13:21:20 Terrasse 25.80 25.56 43.00
120042 2023-09-25 13:08:26 Aussentemperatur 18.10 17.54 60.40
120041 2023-09-25 12:54:29 Bahnzimmer 18.40 18.13 70.30
120040 2023-09-25 12:53:00 Terrasse 27.10 27.06 42.30
120039 2023-09-25 12:40:04 Aussentemperatur 17.90 17.37 62.10
120038 2023-09-25 12:24:29 Bahnzimmer 18.40 18.11 69.50
120037 2023-09-25 12:24:06 Terrasse 22.50 22.16 52.00
120036 2023-09-25 12:11:13 Aussentemperatur 15.60 15.03 69.50
120035 2023-09-25 11:55:34 Terrasse 17.50 16.86 59.50
120034 2023-09-25 11:54:28 Bahnzimmer 18.10 17.69 66.00
120033 2023-09-25 11:42:40 Aussentemperatur 14.10 13.43 71.40
120032 2023-09-25 11:27:14 Terrasse 16.20 15.41 58.70
120031 2023-09-25 11:24:27 Bahnzimmer 18.40 18.19 72.50
120030 2023-09-25 11:14:14 Aussentemperatur 13.70 13.00 71.90
120029 2023-09-25 10:58:55 Terrasse 15.30 14.44 59.40
120028 2023-09-25 10:54:27 Bahnzimmer 18.30 18.08 72.40
120027 2023-09-25 10:45:48 Aussentemperatur 13.30 12.58 72.70
120026 2023-09-25 10:30:36 Terrasse 14.20 13.27 61.20
120025 2023-09-25 10:24:26 Bahnzimmer 18.20 17.96 72.20
120024 2023-09-25 10:17:22 Aussentemperatur 12.80 12.04 73.00
120023 2023-09-25 10:02:20 Terrasse 13.50 12.52 62.00
120022 2023-09-25 09:54:25 Bahnzimmer 18.00 17.75 72.60
120021 2023-09-25 09:48:57 Aussentemperatur 12.50 11.72 73.20
120020 2023-09-25 09:34:06 Terrasse 12.90 11.90 63.20
120019 2023-09-25 09:24:25 Bahnzimmer 18.00 17.74 72.30
120018 2023-09-25 09:20:33 Aussentemperatur 12.20 11.39 73.40
120017 2023-09-25 09:05:52 Terrasse 12.50 11.46 63.40
120016 2023-09-25 08:54:24 Bahnzimmer 18.00 17.74 72.00
120015 2023-09-25 08:52:09 Aussentemperatur 12.00 11.18 73.70
120014 2023-09-25 08:37:39 Terrasse 12.10 11.05 64.50
120013 2023-09-25 08:24:23 Bahnzimmer 18.20 17.96 72.10
120012 2023-09-25 08:23:44 Aussentemperatur 11.70 10.85 73.70
120011 2023-09-25 08:09:26 Terrasse 11.90 10.83 64.70
120010 2023-09-25 07:55:21 Aussentemperatur 11.50 10.64 74.10
120009 2023-09-25 07:54:23 Bahnzimmer 18.00 17.76 72.80
120008 2023-09-25 07:41:13 Terrasse 11.70 10.61 64.70
120007 2023-09-25 07:26:59 Aussentemperatur 11.60 10.75 73.90
120006 2023-09-25 07:24:22 Bahnzimmer 17.80 17.53 72.50
120005 2023-09-25 07:13:02 Terrasse 11.80 10.71 64.30
120004 2023-09-25 06:58:37 Aussentemperatur 11.70 10.85 73.80
120003 2023-09-25 06:54:21 Bahnzimmer 17.80 17.51 71.80
120002 2023-09-25 06:44:51 Terrasse 11.90 10.82 64.20
120001 2023-09-25 06:30:13 Aussentemperatur 11.80 10.97 73.90
120000 2023-09-25 06:24:21 Bahnzimmer 17.80 17.51 71.80
119999 2023-09-25 06:16:40 Terrasse 12.00 10.93 64.20
119998 2023-09-25 06:01:51 Aussentemperatur 11.90 11.08 74.20
119997 2023-09-25 05:54:20 Bahnzimmer 17.80 17.51 71.80
119996 2023-09-25 05:48:28 Terrasse 12.20 11.16 64.40
119995 2023-09-25 05:33:29 Aussentemperatur 11.90 11.08 74.10
119994 2023-09-25 05:24:20 Bahnzimmer 17.80 17.51 71.70
119993 2023-09-25 05:20:18 Terrasse 12.20 11.16 64.50
119992 2023-09-25 05:05:06 Aussentemperatur 12.00 11.19 73.90
119991 2023-09-25 04:54:19 Bahnzimmer 17.80 17.51 71.80
119990 2023-09-25 04:52:07 Terrasse 12.40 11.37 64.30
119989 2023-09-25 04:36:43 Aussentemperatur 12.10 11.29 73.70
119988 2023-09-25 04:24:18 Bahnzimmer 17.80 17.50 71.60
119987 2023-09-25 04:23:57 Terrasse 12.50 11.48 64.00
119986 2023-09-25 04:08:20 Aussentemperatur 12.20 11.39 73.30
119985 2023-09-25 03:55:46 Terrasse 12.50 11.47 63.60
119984 2023-09-25 03:54:18 Bahnzimmer 17.80 17.51 71.70
119983 2023-09-25 03:39:56 Aussentemperatur 12.30 11.49 73.10
119982 2023-09-25 03:27:34 Terrasse 12.90 11.89 63.00
119981 2023-09-25 03:24:17 Bahnzimmer 17.80 17.51 71.70
119980 2023-09-25 03:11:34 Aussentemperatur 12.50 11.70 72.50
119979 2023-09-25 02:59:33 Terrasse 13.20 12.20 62.20
119978 2023-09-25 02:54:16 Bahnzimmer 17.80 17.51 71.80
119977 2023-09-25 02:43:12 Aussentemperatur 12.60 11.80 72.10
119976 2023-09-25 02:31:20 Terrasse 13.30 12.30 61.80
119975 2023-09-25 02:24:16 Bahnzimmer 17.80 17.51 71.80
119974 2023-09-25 02:14:49 Aussentemperatur 12.70 11.91 72.00
119973 2023-09-25 02:03:10 Terrasse 13.30 12.29 61.60
119972 2023-09-25 01:54:11 Bahnzimmer 17.90 17.62 71.70
119971 2023-09-25 01:46:25 Aussentemperatur 12.80 12.02 72.00
119970 2023-09-25 01:34:59 Terrasse 13.40 12.40 61.60
119969 2023-09-25 01:24:10 Bahnzimmer 17.80 17.51 71.80
119968 2023-09-25 01:18:03 Aussentemperatur 12.90 12.11 71.60
119967 2023-09-25 01:06:48 Terrasse 13.50 12.50 61.10
119966 2023-09-25 00:54:10 Bahnzimmer 17.90 17.62 71.70
119965 2023-09-25 00:49:40 Aussentemperatur 12.90 12.11 71.50
119964 2023-09-25 00:38:38 Terrasse 13.80 12.82 60.70
119963 2023-09-25 00:24:09 Bahnzimmer 18.00 17.73 71.70
119962 2023-09-25 00:21:17 Aussentemperatur 13.00 12.21 71.10
119961 2023-09-25 00:10:27 Terrasse 14.00 13.02 59.90
119960 2023-09-24 23:54:09 Bahnzimmer 18.00 17.73 71.70
119959 2023-09-24 23:52:55 Aussentemperatur 13.30 12.53 70.60
119958 2023-09-24 23:42:17 Terrasse 14.20 13.23 59.40
119957 2023-09-24 23:24:32 Aussentemperatur 13.30 12.51 70.00
119956 2023-09-24 23:24:08 Bahnzimmer 18.00 17.72 71.50
119955 2023-09-24 23:14:14 Terrasse 14.40 13.42 58.30
119954 2023-09-24 22:56:08 Aussentemperatur 13.50 12.73 69.70
119953 2023-09-24 22:54:07 Bahnzimmer 18.00 17.72 71.50
119952 2023-09-24 22:46:02 Terrasse 14.60 13.63 58.00
119951 2023-09-24 22:27:46 Aussentemperatur 13.60 12.83 69.60
119950 2023-09-24 22:24:07 Bahnzimmer 18.00 17.72 71.40
119949 2023-09-24 22:17:58 Terrasse 14.90 13.95 57.70
119948 2023-09-24 21:59:23 Aussentemperatur 13.90 13.15 69.00
119947 2023-09-24 21:54:06 Bahnzimmer 18.10 17.83 71.30
119946 2023-09-24 21:49:52 Terrasse 15.20 14.27 57.20
119945 2023-09-24 21:31:00 Aussentemperatur 13.90 13.13 68.30
119944 2023-09-24 21:24:05 Bahnzimmer 18.20 17.94 71.30
119943 2023-09-24 21:21:47 Terrasse 15.30 14.35 56.20
119942 2023-09-24 21:02:37 Aussentemperatur 14.10 13.32 67.10
119941 2023-09-24 20:54:05 Bahnzimmer 18.20 17.93 71.20
119940 2023-09-24 20:53:35 Terrasse 15.60 14.64 54.40
119939 2023-09-24 20:34:15 Aussentemperatur 14.30 13.52 66.50
119938 2023-09-24 20:25:25 Terrasse 16.00 15.05 53.30
119937 2023-09-24 20:24:04 Bahnzimmer 18.20 17.94 71.60
119936 2023-09-24 20:05:53 Aussentemperatur 14.60 13.83 65.60
119935 2023-09-24 19:57:18 Terrasse 16.70 15.76 51.00
119934 2023-09-24 19:54:03 Bahnzimmer 18.20 17.93 71.20
119933 2023-09-24 19:37:31 Aussentemperatur 14.90 14.14 64.80
119932 2023-09-24 19:29:26 Terrasse 17.50 16.58 48.80
119931 2023-09-24 19:24:03 Bahnzimmer 18.20 17.93 71.20
119930 2023-09-24 19:09:10 Aussentemperatur 15.50 14.78 64.00
119929 2023-09-24 19:01:24 Terrasse 18.50 17.65 47.80
119928 2023-09-24 18:54:02 Bahnzimmer 18.30 18.04 71.00
119927 2023-09-24 18:40:50 Aussentemperatur 16.10 15.37 61.40
119926 2023-09-24 18:34:17 Terrasse 19.20 18.43 47.90
119925 2023-09-24 18:24:01 Bahnzimmer 18.40 18.14 70.80
119924 2023-09-24 18:12:29 Aussentemperatur 16.70 15.98 59.60
119923 2023-09-24 18:04:07 Terrasse 20.10 19.32 44.40
119922 2023-09-24 17:54:00 Bahnzimmer 18.40 18.13 70.40
119921 2023-09-24 17:44:07 Aussentemperatur 16.80 16.08 59.30
119920 2023-09-24 17:36:41 Terrasse 21.50 20.84 43.30
119919 2023-09-24 17:24:00 Bahnzimmer 18.50 18.24 70.30
119918 2023-09-24 17:15:44 Aussentemperatur 17.00 16.29 58.80
119917 2023-09-24 17:08:02 Terrasse 22.80 22.23 42.10
119916 2023-09-24 16:53:59 Bahnzimmer 18.50 18.23 70.00
119915 2023-09-24 16:47:20 Aussentemperatur 17.20 16.51 58.60
119914 2023-09-24 16:39:50 Terrasse 23.30 22.77 41.50
119913 2023-09-24 16:23:59 Bahnzimmer 18.60 18.34 69.70
119912 2023-09-24 16:18:56 Aussentemperatur 17.20 16.50 58.30
119911 2023-09-24 16:11:36 Terrasse 23.50 22.97 40.80
119910 2023-09-24 15:53:58 Bahnzimmer 18.50 18.23 69.90
119909 2023-09-24 15:50:33 Aussentemperatur 17.50 16.87 59.90
119908 2023-09-24 15:43:19 Terrasse 23.20 22.69 42.80
119907 2023-09-24 15:23:57 Bahnzimmer 18.40 18.12 69.80
119906 2023-09-24 15:22:08 Aussentemperatur 17.30 16.65 60.00
119905 2023-09-24 15:15:03 Terrasse 22.20 21.63 44.10
119904 2023-09-24 14:53:57 Bahnzimmer 18.40 18.11 69.60
119903 2023-09-24 14:53:43 Aussentemperatur 17.00 16.36 61.40
119902 2023-09-24 14:46:52 Terrasse 21.90 21.32 44.90
119901 2023-09-24 14:25:19 Aussentemperatur 17.00 16.38 62.30
119900 2023-09-24 14:23:56 Bahnzimmer 18.30 18.00 69.60
119899 2023-09-24 14:18:43 Terrasse 21.90 21.38 47.20
119898 2023-09-24 13:56:54 Aussentemperatur 16.80 16.19 63.40
119897 2023-09-24 13:53:55 Bahnzimmer 18.30 18.00 69.40
119896 2023-09-24 13:50:36 Terrasse 21.90 21.32 44.80
119895 2023-09-24 13:28:31 Aussentemperatur 17.40 16.87 64.20
119894 2023-09-24 13:23:55 Bahnzimmer 18.20 17.87 68.90
119893 2023-09-24 13:22:40 Terrasse 23.90 23.51 44.70
119892 2023-09-24 13:00:04 Aussentemperatur 17.30 16.81 66.20
119891 2023-09-24 12:54:20 Terrasse 25.30 25.02 43.50
119890 2023-09-24 12:53:54 Bahnzimmer 18.20 17.86 68.20
119889 2023-09-24 12:31:53 Aussentemperatur 16.90 16.47 69.90
119888 2023-09-24 12:25:33 Terrasse 21.00 20.55 53.50
119887 2023-09-24 12:23:53 Bahnzimmer 18.10 17.74 68.10
119886 2023-09-24 12:02:56 Aussentemperatur 14.30 13.76 75.70
119885 2023-09-24 11:57:04 Terrasse 16.40 15.70 61.60
119884 2023-09-24 11:53:53 Bahnzimmer 18.00 17.74 72.10
119883 2023-09-24 11:34:29 Aussentemperatur 13.30 12.69 76.60
119882 2023-09-24 11:28:45 Terrasse 15.20 14.45 64.00
119881 2023-09-24 11:23:52 Bahnzimmer 18.00 17.74 72.20
119880 2023-09-24 11:06:04 Aussentemperatur 13.00 12.39 78.10
119879 2023-09-24 11:00:26 Terrasse 14.10 13.33 67.50
119878 2023-09-24 10:53:51 Bahnzimmer 17.90 17.63 72.30
119877 2023-09-24 10:37:39 Aussentemperatur 12.50 11.87 79.00
119876 2023-09-24 10:32:06 Terrasse 13.10 12.31 70.70
119875 2023-09-24 10:23:51 Bahnzimmer 18.00 17.74 72.20
119874 2023-09-24 10:09:14 Aussentemperatur 12.10 11.45 79.90
119873 2023-09-24 10:03:49 Terrasse 12.10 11.28 73.30
119872 2023-09-24 09:53:50 Bahnzimmer 18.00 17.73 71.90
119871 2023-09-24 09:40:49 Aussentemperatur 11.90 11.22 79.30
119870 2023-09-24 09:35:34 Terrasse 11.50 10.61 73.10
119869 2023-09-24 09:23:49 Bahnzimmer 18.00 17.74 72.30
119868 2023-09-24 09:12:24 Aussentemperatur 11.40 10.66 78.90
119867 2023-09-24 09:07:33 Terrasse 10.90 9.96 73.40
119866 2023-09-24 08:53:49 Bahnzimmer 18.00 17.75 72.50
119865 2023-09-24 08:43:58 Aussentemperatur 10.90 10.10 78.50
119864 2023-09-24 08:39:20 Terrasse 10.30 9.29 73.00
119863 2023-09-24 08:23:48 Bahnzimmer 17.80 17.53 72.50
119862 2023-09-24 08:15:34 Aussentemperatur 10.50 9.64 77.90
119861 2023-09-24 08:11:22 Terrasse 9.90 8.82 71.90
119860 2023-09-24 07:53:47 Bahnzimmer 17.90 17.63 72.30
119859 2023-09-24 07:47:09 Aussentemperatur 10.30 9.42 78.00
119858 2023-09-24 07:43:10 Terrasse 9.80 8.70 71.40
119857 2023-09-24 07:23:46 Bahnzimmer 18.00 17.74 72.30
119856 2023-09-24 07:18:46 Aussentemperatur 10.40 9.51 77.20
119855 2023-09-24 07:15:05 Terrasse 9.80 8.68 70.70
119854 2023-09-24 06:53:46 Bahnzimmer 18.00 17.74 72.20
119853 2023-09-24 06:50:24 Aussentemperatur 10.30 9.40 77.20
119852 2023-09-24 06:47:00 Terrasse 10.00 8.88 70.00
119851 2023-09-24 06:23:45 Bahnzimmer 18.00 17.74 72.20
119850 2023-09-24 06:22:01 Aussentemperatur 10.40 9.52 77.70
119849 2023-09-24 06:18:47 Terrasse 10.00 8.89 70.30
119848 2023-09-24 05:53:44 Bahnzimmer 18.00 17.75 72.40
119847 2023-09-24 05:53:39 Aussentemperatur 10.70 9.83 76.90
119846 2023-09-24 05:50:43 Terrasse 10.30 9.22 70.40
119845 2023-09-24 05:25:17 Aussentemperatur 10.80 9.94 76.90
119844 2023-09-24 05:23:44 Bahnzimmer 18.00 17.74 72.20
119843 2023-09-24 05:22:36 Terrasse 10.30 9.21 70.00
119842 2023-09-24 04:56:55 Aussentemperatur 10.80 9.93 76.50
119841 2023-09-24 04:54:23 Terrasse 10.50 9.42 69.50
119840 2023-09-24 04:53:43 Bahnzimmer 18.00 17.74 72.20
119839 2023-09-24 04:28:32 Aussentemperatur 11.10 10.26 76.50
119838 2023-09-24 04:26:18 Terrasse 10.70 9.64 69.50
119837 2023-09-24 04:23:42 Bahnzimmer 18.00 17.74 72.20
119836 2023-09-24 04:00:10 Aussentemperatur 11.10 10.24 75.70
119835 2023-09-24 03:58:05 Terrasse 10.80 9.74 69.10
119834 2023-09-24 03:53:42 Bahnzimmer 18.10 17.85 72.00
119833 2023-09-24 03:31:47 Aussentemperatur 11.10 10.24 75.50
119832 2023-09-24 03:30:02 Terrasse 10.70 9.62 68.70
119831 2023-09-24 03:23:41 Bahnzimmer 18.10 17.85 72.10
119830 2023-09-24 03:03:24 Aussentemperatur 11.10 10.23 75.30
119829 2023-09-24 03:01:55 Terrasse 10.80 9.72 68.20
119828 2023-09-24 02:53:40 Bahnzimmer 18.10 17.84 71.90
119827 2023-09-24 02:35:02 Aussentemperatur 11.00 10.11 75.00
119826 2023-09-24 02:33:48 Terrasse 10.80 9.72 68.30
119825 2023-09-24 02:23:40 Bahnzimmer 18.10 17.85 72.20
119824 2023-09-24 02:06:40 Aussentemperatur 11.20 10.33 74.70
119823 2023-09-24 02:05:42 Terrasse 10.90 9.82 67.80
119822 2023-09-24 01:53:39 Bahnzimmer 18.20 17.95 71.80
119821 2023-09-24 01:38:18 Aussentemperatur 11.30 10.42 74.20
119820 2023-09-24 01:37:37 Terrasse 11.10 10.02 67.30
119819 2023-09-24 01:23:38 Bahnzimmer 18.20 17.95 71.70
119818 2023-09-24 01:09:56 Aussentemperatur 11.50 10.63 73.80
119817 2023-09-24 01:09:31 Terrasse 11.30 10.22 66.60
119816 2023-09-24 00:53:38 Bahnzimmer 18.30 18.05 71.60
119815 2023-09-24 00:41:35 Aussentemperatur 11.70 10.84 73.40
119814 2023-09-24 00:41:26 Terrasse 11.60 10.54 65.90
119813 2023-09-24 00:23:37 Bahnzimmer 18.30 18.05 71.50
119812 2023-09-24 00:13:20 Terrasse 11.80 10.74 65.20
119811 2023-09-24 00:13:13 Aussentemperatur 11.90 11.05 72.90
119810 2023-09-23 23:53:36 Bahnzimmer 18.30 18.05 71.50
119809 2023-09-23 23:45:16 Terrasse 12.20 11.15 64.20
119808 2023-09-23 23:44:51 Aussentemperatur 12.00 11.15 72.70
119807 2023-09-23 23:23:36 Bahnzimmer 18.30 18.05 71.50
119806 2023-09-23 23:17:11 Terrasse 12.50 11.45 63.00
119805 2023-09-23 23:16:29 Aussentemperatur 12.20 11.36 72.00
119804 2023-09-23 22:53:35 Bahnzimmer 18.40 18.16 71.40
119803 2023-09-23 22:49:04 Terrasse 12.40 11.35 63.20
119802 2023-09-23 22:48:06 Aussentemperatur 12.40 11.56 71.30
119801 2023-09-23 22:23:34 Bahnzimmer 18.30 18.05 71.30
119800 2023-09-23 22:20:51 Terrasse 12.50 11.48 64.00
119799 2023-09-23 22:19:42 Aussentemperatur 12.20 11.36 72.30
119798 2023-09-23 21:53:34 Bahnzimmer 18.50 18.25 70.80
119797 2023-09-23 21:52:42 Terrasse 12.90 11.90 63.20
119796 2023-09-23 21:51:20 Aussentemperatur 12.50 11.67 71.50
119795 2023-09-23 21:24:38 Terrasse 13.20 12.19 62.00
119794 2023-09-23 21:23:33 Bahnzimmer 18.60 18.36 70.70
119793 2023-09-23 21:23:00 Aussentemperatur 12.80 11.99 71.00
119792 2023-09-23 20:56:31 Terrasse 13.60 12.62 61.60
119791 2023-09-23 20:54:38 Aussentemperatur 12.90 12.09 70.60
119790 2023-09-23 20:53:32 Bahnzimmer 18.60 18.36 70.50
119789 2023-09-23 20:28:19 Terrasse 13.90 12.94 60.90
119788 2023-09-23 20:26:17 Aussentemperatur 13.20 12.40 69.70
119787 2023-09-23 20:23:32 Bahnzimmer 18.70 18.46 70.30
119786 2023-09-23 20:00:10 Terrasse 14.50 13.58 60.20
119785 2023-09-23 19:57:58 Aussentemperatur 13.60 12.80 68.50
119784 2023-09-23 19:53:31 Bahnzimmer 18.70 18.45 70.00
119783 2023-09-23 19:32:07 Terrasse 14.90 13.96 57.90
119782 2023-09-23 19:29:36 Aussentemperatur 14.10 13.28 65.70
119781 2023-09-23 19:23:30 Bahnzimmer 18.70 18.46 70.10
119780 2023-09-23 19:03:57 Terrasse 16.00 15.08 54.40
119779 2023-09-23 19:01:17 Aussentemperatur 14.90 14.09 63.00
119778 2023-09-23 18:53:30 Bahnzimmer 18.60 18.35 70.10
119777 2023-09-23 18:35:48 Terrasse 16.70 15.75 50.80
119776 2023-09-23 18:32:56 Aussentemperatur 15.30 14.44 59.70
119775 2023-09-23 18:23:29 Bahnzimmer 18.80 18.55 69.50
119774 2023-09-23 18:09:04 Terrasse 17.20 16.31 51.00
119773 2023-09-23 18:04:34 Aussentemperatur 15.60 14.75 58.60
119772 2023-09-23 17:53:27 Bahnzimmer 18.70 18.44 69.50
119771 2023-09-23 17:38:01 Terrasse 18.00 17.12 48.50
119770 2023-09-23 17:36:11 Aussentemperatur 15.80 14.97 58.60
119769 2023-09-23 17:23:26 Bahnzimmer 18.70 18.43 69.00
119768 2023-09-23 17:10:30 Terrasse 18.70 17.86 47.20
119767 2023-09-23 17:07:48 Aussentemperatur 15.80 14.96 58.20
119766 2023-09-23 16:53:26 Bahnzimmer 18.90 18.61 67.40
119765 2023-09-23 16:41:56 Terrasse 18.20 17.30 46.90
119764 2023-09-23 16:39:24 Aussentemperatur 15.60 14.74 58.20
119763 2023-09-23 16:23:25 Bahnzimmer 18.90 18.60 67.30
119762 2023-09-23 16:13:51 Terrasse 19.70 18.92 45.90
119761 2023-09-23 16:11:03 Aussentemperatur 16.00 15.16 57.60
119760 2023-09-23 15:53:24 Bahnzimmer 18.90 18.61 67.50
119759 2023-09-23 15:46:32 Terrasse 18.10 17.29 50.60
119758 2023-09-23 15:42:36 Aussentemperatur 15.60 14.84 62.20
119757 2023-09-23 15:23:24 Bahnzimmer 18.90 18.58 66.60
119756 2023-09-23 15:18:26 Terrasse 17.80 17.02 52.90
119755 2023-09-23 15:14:13 Aussentemperatur 15.60 14.88 63.90
119754 2023-09-23 14:53:23 Bahnzimmer 18.80 18.54 69.00
119753 2023-09-23 14:49:34 Terrasse 17.80 16.99 52.00
119752 2023-09-23 14:45:45 Aussentemperatur 15.40 14.70 65.10
119751 2023-09-23 14:23:22 Bahnzimmer 18.90 18.73 72.20
119750 2023-09-23 14:18:51 Terrasse 17.00 16.20 55.20
119749 2023-09-23 14:17:23 Aussentemperatur 15.20 14.55 67.90
119748 2023-09-23 13:53:21 Bahnzimmer 18.80 18.62 72.00
119747 2023-09-23 13:49:04 Aussentemperatur 16.00 15.41 67.20
119746 2023-09-23 13:23:21 Bahnzimmer 18.60 18.40 72.00
119745 2023-09-23 13:22:45 Terrasse 18.30 17.63 55.40
119744 2023-09-23 13:20:32 Aussentemperatur 15.10 14.56 72.50
119743 2023-09-23 12:54:28 Terrasse 15.90 15.13 60.70
119742 2023-09-23 12:53:20 Bahnzimmer 18.70 18.52 72.50
119741 2023-09-23 12:52:07 Aussentemperatur 14.40 13.82 73.80
119740 2023-09-23 12:26:21 Terrasse 15.50 14.74 62.50
119739 2023-09-23 12:23:49 Aussentemperatur 14.50 13.98 75.60
119738 2023-09-23 12:23:19 Bahnzimmer 18.50 18.31 73.10
119737 2023-09-23 11:58:01 Terrasse 14.80 14.07 66.30
119736 2023-09-23 11:55:19 Aussentemperatur 13.70 13.17 78.30
119735 2023-09-23 11:53:18 Bahnzimmer 18.50 18.31 73.00
119734 2023-09-23 11:29:39 Terrasse 13.30 12.52 70.20
119733 2023-09-23 11:26:52 Aussentemperatur 13.00 12.42 79.00
119732 2023-09-23 11:23:18 Bahnzimmer 18.40 18.21 73.20
119731 2023-09-23 11:01:27 Terrasse 13.00 12.17 69.40
119730 2023-09-23 10:58:27 Aussentemperatur 12.80 12.21 79.50
119729 2023-09-23 10:53:17 Bahnzimmer 18.40 18.21 73.20
119728 2023-09-23 10:33:12 Terrasse 12.40 11.56 71.40
119727 2023-09-23 10:30:01 Aussentemperatur 12.40 11.78 79.70
119726 2023-09-23 10:23:16 Bahnzimmer 18.60 18.41 72.60
119725 2023-09-23 10:04:56 Terrasse 11.90 11.06 73.20
119724 2023-09-23 10:01:37 Aussentemperatur 12.10 11.47 80.70
119723 2023-09-23 09:53:16 Bahnzimmer 18.70 18.52 72.40
119722 2023-09-23 09:36:52 Terrasse 11.50 10.61 73.00
119721 2023-09-23 09:33:13 Aussentemperatur 11.70 11.03 80.70
119720 2023-09-23 09:23:15 Bahnzimmer 18.50 18.31 73.00
119719 2023-09-23 09:08:37 Terrasse 11.40 10.51 73.20
119718 2023-09-23 09:04:51 Aussentemperatur 11.80 11.13 80.40
119717 2023-09-23 08:53:14 Bahnzimmer 18.50 18.32 73.50
119716 2023-09-23 08:40:27 Terrasse 11.10 10.17 73.10
119715 2023-09-23 08:36:27 Aussentemperatur 11.50 10.81 80.70
119714 2023-09-23 08:23:14 Bahnzimmer 18.30 18.11 73.90
119713 2023-09-23 08:12:15 Terrasse 11.10 10.18 73.30
119712 2023-09-23 08:08:12 Aussentemperatur 11.50 10.83 81.20
119711 2023-09-23 07:53:13 Bahnzimmer 18.30 18.10 73.40
119710 2023-09-23 07:44:03 Terrasse 11.10 10.20 73.90
119709 2023-09-23 07:39:49 Aussentemperatur 11.70 11.05 81.30
119708 2023-09-23 07:23:12 Bahnzimmer 18.40 18.21 73.30
119707 2023-09-23 07:15:51 Terrasse 11.00 10.09 73.90
119706 2023-09-23 07:11:27 Aussentemperatur 11.50 10.83 81.30
119705 2023-09-23 06:53:11 Bahnzimmer 18.40 18.21 73.50
119704 2023-09-23 06:47:39 Terrasse 10.80 9.86 73.80
119703 2023-09-23 06:43:03 Aussentemperatur 11.30 10.61 81.30
119702 2023-09-23 06:23:10 Bahnzimmer 18.40 18.21 73.40
119701 2023-09-23 06:19:29 Terrasse 10.70 9.70 71.90
119700 2023-09-23 06:14:43 Aussentemperatur 11.20 10.47 80.30
119699 2023-09-23 05:53:10 Bahnzimmer 18.40 18.21 73.40
119698 2023-09-23 05:51:18 Terrasse 10.80 9.81 71.80
119697 2023-09-23 05:46:21 Aussentemperatur 11.30 10.59 80.70
119696 2023-09-23 05:23:09 Bahnzimmer 18.40 18.21 73.40
119695 2023-09-23 05:23:08 Terrasse 11.10 10.12 70.90
119694 2023-09-23 05:18:00 Aussentemperatur 11.50 10.82 80.90
119693 2023-09-23 04:54:59 Terrasse 11.40 10.47 71.70
119692 2023-09-23 04:53:08 Bahnzimmer 18.40 18.21 73.30
119691 2023-09-23 04:49:39 Aussentemperatur 11.80 11.15 81.00
119690 2023-09-23 04:26:48 Terrasse 11.80 10.90 71.30
119689 2023-09-23 04:23:08 Bahnzimmer 18.50 18.32 73.30
119688 2023-09-23 04:21:17 Aussentemperatur 12.10 11.45 80.00
119687 2023-09-23 03:58:37 Terrasse 11.90 11.01 71.50
119686 2023-09-23 03:53:07 Bahnzimmer 18.40 18.22 73.60
119685 2023-09-23 03:52:55 Aussentemperatur 12.20 11.55 79.60
119684 2023-09-23 03:30:26 Terrasse 11.90 11.00 71.20
119683 2023-09-23 03:24:33 Aussentemperatur 12.20 11.55 79.60
119682 2023-09-23 03:23:07 Bahnzimmer 18.40 18.22 73.70
119681 2023-09-23 03:02:15 Terrasse 11.90 11.01 71.40
119680 2023-09-23 02:56:10 Aussentemperatur 12.20 11.56 79.70
119679 2023-09-23 02:53:06 Bahnzimmer 18.40 18.22 73.90
119678 2023-09-23 02:34:04 Terrasse 12.00 11.08 70.00
119677 2023-09-23 02:27:47 Aussentemperatur 12.00 11.33 79.50
119676 2023-09-23 02:23:05 Bahnzimmer 18.40 18.22 73.90
119675 2023-09-23 02:05:55 Terrasse 12.10 11.21 70.50
119674 2023-09-23 01:59:26 Aussentemperatur 12.30 11.68 80.10
119673 2023-09-23 01:53:05 Bahnzimmer 18.40 18.22 73.90
119672 2023-09-23 01:37:46 Terrasse 12.30 11.44 71.00
119671 2023-09-23 01:31:05 Aussentemperatur 12.50 11.91 80.50
119670 2023-09-23 01:23:04 Bahnzimmer 18.40 18.22 73.80
119669 2023-09-23 01:09:37 Terrasse 12.70 11.88 71.10
119668 2023-09-23 01:02:43 Aussentemperatur 12.90 12.34 80.40
119667 2023-09-23 00:53:03 Bahnzimmer 18.50 18.33 73.70
119666 2023-09-23 00:41:27 Terrasse 12.80 12.01 71.70
119665 2023-09-23 00:34:24 Aussentemperatur 12.90 12.36 80.80
119664 2023-09-23 00:23:03 Bahnzimmer 18.50 18.33 73.60
119663 2023-09-23 00:13:16 Terrasse 13.00 12.23 71.70
119662 2023-09-23 00:06:01 Aussentemperatur 12.90 12.34 80.40
119661 2023-09-22 23:53:02 Bahnzimmer 18.50 18.33 73.60
119660 2023-09-22 23:45:05 Terrasse 13.00 12.23 71.70
119659 2023-09-22 23:37:39 Aussentemperatur 13.10 12.56 80.30
119658 2023-09-22 23:23:01 Bahnzimmer 18.60 18.43 73.40
119657 2023-09-22 23:16:53 Terrasse 13.00 12.21 71.20
119656 2023-09-22 23:09:16 Aussentemperatur 13.00 12.44 80.00
119655 2023-09-22 22:53:01 Bahnzimmer 18.70 18.54 73.30
119654 2023-09-22 22:49:01 Terrasse 13.20 12.42 70.70
119653 2023-09-22 22:40:54 Aussentemperatur 13.30 12.78 80.30
119652 2023-09-22 22:23:00 Bahnzimmer 18.70 18.54 73.20
119651 2023-09-22 22:20:53 Terrasse 13.10 12.31 70.50
119650 2023-09-22 22:12:32 Aussentemperatur 13.10 12.54 79.50
119649 2023-09-22 21:52:59 Bahnzimmer 18.80 18.64 73.00
119648 2023-09-22 21:52:46 Terrasse 13.30 12.51 70.00
119647 2023-09-22 21:44:10 Aussentemperatur 13.30 12.77 79.70
119646 2023-09-22 21:24:36 Terrasse 13.70 12.93 69.00
119645 2023-09-22 21:22:59 Bahnzimmer 18.80 18.64 72.80
119644 2023-09-22 21:15:49 Aussentemperatur 13.50 12.97 79.20
119643 2023-09-22 20:57:58 Terrasse 14.10 13.34 67.90
119642 2023-09-22 20:52:58 Bahnzimmer 18.90 18.74 72.70
119641 2023-09-22 20:47:29 Aussentemperatur 13.80 13.28 78.40
119640 2023-09-22 20:27:44 Terrasse 14.70 13.97 66.90
119639 2023-09-22 20:22:57 Bahnzimmer 19.10 18.96 72.70
119638 2023-09-22 20:19:07 Aussentemperatur 13.90 13.38 77.90
119637 2023-09-22 19:59:37 Terrasse 15.30 14.59 65.40
119636 2023-09-22 19:52:57 Bahnzimmer 19.00 18.85 72.50
119635 2023-09-22 19:50:46 Aussentemperatur 14.30 13.81 77.40
119634 2023-09-22 19:31:41 Terrasse 16.20 15.52 62.80
119633 2023-09-22 19:22:56 Bahnzimmer 19.00 18.83 71.90
119632 2023-09-22 19:22:27 Aussentemperatur 14.80 14.28 74.30
119631 2023-09-22 19:03:37 Terrasse 18.00 17.37 57.90
119630 2023-09-22 18:54:08 Aussentemperatur 16.40 15.90 69.30
119629 2023-09-22 18:52:56 Bahnzimmer 19.10 18.93 71.40
119628 2023-09-22 18:35:34 Terrasse 18.50 17.85 55.30
119627 2023-09-22 18:25:47 Aussentemperatur 16.70 16.17 66.80
119626 2023-09-22 18:22:55 Bahnzimmer 19.20 19.03 71.10
119625 2023-09-22 18:07:28 Terrasse 18.90 18.23 53.20
119624 2023-09-22 17:57:26 Aussentemperatur 17.00 16.46 65.10
119623 2023-09-22 17:52:54 Bahnzimmer 19.30 19.13 70.80
119622 2023-09-22 17:39:24 Terrasse 19.70 19.08 52.00
119621 2023-09-22 17:29:05 Aussentemperatur 17.30 16.71 62.20
119620 2023-09-22 17:22:54 Bahnzimmer 19.40 19.24 70.70
119619 2023-09-22 17:11:22 Terrasse 20.90 20.30 48.00
119618 2023-09-22 17:00:43 Aussentemperatur 17.70 17.06 58.70
119617 2023-09-22 16:52:53 Bahnzimmer 19.40 19.22 69.70
119616 2023-09-22 16:43:18 Terrasse 21.40 20.80 46.30
119615 2023-09-22 16:32:18 Aussentemperatur 17.80 17.18 59.10
119614 2023-09-22 16:22:52 Bahnzimmer 19.30 19.10 69.60
119613 2023-09-22 16:15:04 Terrasse 21.10 20.46 45.90
119612 2023-09-22 16:03:57 Aussentemperatur 17.80 17.20 60.10
119611 2023-09-22 15:52:52 Bahnzimmer 19.10 18.85 68.40
119610 2023-09-22 15:46:58 Terrasse 21.20 20.60 47.00
119609 2023-09-22 15:35:33 Aussentemperatur 17.60 17.00 60.60
119608 2023-09-22 15:22:51 Bahnzimmer 19.10 18.85 68.20
119607 2023-09-22 15:19:01 Terrasse 20.50 19.84 47.40
119606 2023-09-22 15:07:11 Aussentemperatur 17.50 16.84 58.70
119605 2023-09-22 14:52:50 Bahnzimmer 19.10 18.89 70.00
119604 2023-09-22 14:50:50 Terrasse 20.70 20.07 47.70
119603 2023-09-22 14:38:45 Aussentemperatur 17.20 16.59 61.90
119602 2023-09-22 14:22:50 Bahnzimmer 18.90 18.67 69.80
119601 2023-09-22 14:22:47 Terrasse 20.70 20.07 47.70
119600 2023-09-22 14:10:22 Aussentemperatur 17.40 16.85 63.30
119599 2023-09-22 13:54:45 Terrasse 21.00 20.43 48.90
119598 2023-09-22 13:52:49 Bahnzimmer 18.90 18.65 69.00
119597 2023-09-22 13:42:00 Aussentemperatur 17.20 16.64 63.80
119596 2023-09-22 13:27:00 Terrasse 23.70 23.31 45.20
119595 2023-09-22 13:22:48 Bahnzimmer 18.60 18.23 65.80
119594 2023-09-22 13:13:40 Aussentemperatur 18.30 17.90 65.80
119593 2023-09-22 12:58:44 Terrasse 25.80 25.62 45.50
119592 2023-09-22 12:52:48 Bahnzimmer 19.20 19.12 74.60
119591 2023-09-22 12:45:13 Aussentemperatur 17.50 17.11 69.00
119590 2023-09-22 12:29:58 Terrasse 19.90 19.34 53.50
119589 2023-09-22 12:22:47 Bahnzimmer 19.00 18.90 74.40
119588 2023-09-22 12:16:45 Aussentemperatur 15.70 15.34 77.10
119587 2023-09-22 12:01:35 Terrasse 15.60 14.98 67.40
119586 2023-09-22 11:52:46 Bahnzimmer 18.90 18.79 74.60
119585 2023-09-22 11:48:19 Aussentemperatur 14.60 14.18 79.00
119584 2023-09-22 11:33:23 Terrasse 15.30 14.68 68.90
119583 2023-09-22 11:22:46 Bahnzimmer 18.80 18.68 74.40
119582 2023-09-22 11:19:55 Aussentemperatur 14.50 14.15 82.10
119581 2023-09-22 11:05:08 Terrasse 14.90 14.30 71.20
119580 2023-09-22 10:52:45 Bahnzimmer 18.60 18.44 73.80
119579 2023-09-22 10:51:32 Aussentemperatur 14.40 14.08 83.60
119578 2023-09-22 10:36:50 Terrasse 14.40 13.85 74.80
119577 2023-09-22 10:23:08 Aussentemperatur 14.20 13.87 84.20
119576 2023-09-22 10:22:45 Bahnzimmer 18.10 17.86 72.40
119575 2023-09-22 10:08:37 Terrasse 14.00 13.43 75.50
119574 2023-09-22 09:54:46 Aussentemperatur 14.30 13.98 84.00
119573 2023-09-22 09:52:44 Bahnzimmer 18.90 18.84 76.50
119572 2023-09-22 09:40:25 Terrasse 14.10 13.53 75.40
119571 2023-09-22 09:26:21 Aussentemperatur 14.00 13.65 84.10
119570 2023-09-22 09:22:43 Bahnzimmer 19.00 18.96 76.70
119569 2023-09-22 09:12:13 Terrasse 13.90 13.32 75.50
119568 2023-09-22 08:57:58 Aussentemperatur 14.00 13.66 84.50
119567 2023-09-22 08:52:43 Bahnzimmer 18.90 18.85 76.90
119566 2023-09-22 08:44:01 Terrasse 13.80 13.22 76.10
119565 2023-09-22 08:29:35 Aussentemperatur 13.90 13.55 84.50
119564 2023-09-22 08:22:42 Bahnzimmer 18.60 18.53 77.10
119563 2023-09-22 08:15:51 Terrasse 13.50 12.91 76.70
119562 2023-09-22 08:01:15 Aussentemperatur 13.90 13.54 84.20
119561 2023-09-22 07:52:41 Bahnzimmer 18.50 18.40 76.20
119560 2023-09-22 07:47:39 Terrasse 13.40 12.78 76.10
119559 2023-09-22 07:32:53 Aussentemperatur 13.70 13.31 83.50
119558 2023-09-22 07:22:41 Bahnzimmer 18.50 18.40 76.40
119557 2023-09-22 07:19:48 Terrasse 13.50 12.86 75.00
119556 2023-09-22 07:04:30 Aussentemperatur 13.50 13.08 83.30
119555 2023-09-22 06:52:40 Bahnzimmer 18.50 18.40 76.40
119554 2023-09-22 06:51:52 Terrasse 13.20 12.52 74.40
119553 2023-09-22 06:36:07 Aussentemperatur 13.50 13.08 83.20
119552 2023-09-22 06:23:59 Terrasse 13.20 12.50 73.60
119551 2023-09-22 06:22:39 Bahnzimmer 18.50 18.40 76.40
119550 2023-09-22 06:07:46 Aussentemperatur 13.60 13.18 82.90
119549 2023-09-22 05:56:06 Terrasse 13.40 12.71 73.50
119548 2023-09-22 05:52:39 Bahnzimmer 18.50 18.40 76.40
119547 2023-09-22 05:39:25 Aussentemperatur 13.70 13.30 83.30
119546 2023-09-22 05:28:02 Terrasse 13.70 13.04 73.30
119545 2023-09-22 05:22:38 Bahnzimmer 18.60 18.51 76.30
119544 2023-09-22 05:11:03 Aussentemperatur 13.90 13.54 84.00
119543 2023-09-22 05:00:16 Terrasse 13.90 13.26 73.40
119542 2023-09-22 04:52:37 Bahnzimmer 18.60 18.51 76.30
119541 2023-09-22 04:42:40 Aussentemperatur 14.00 13.65 84.10
119540 2023-09-22 04:32:23 Terrasse 14.30 13.70 73.20
119539 2023-09-22 04:22:36 Bahnzimmer 18.60 18.51 76.30
119538 2023-09-22 04:14:20 Aussentemperatur 14.10 13.78 84.70
119537 2023-09-22 04:04:15 Terrasse 14.50 13.92 73.20
119536 2023-09-22 03:52:36 Bahnzimmer 18.70 18.62 76.30
119535 2023-09-22 03:45:59 Aussentemperatur 14.40 14.12 85.20
119534 2023-09-22 03:36:28 Terrasse 15.00 14.50 74.40
119533 2023-09-22 03:22:35 Bahnzimmer 18.70 18.62 76.20
119532 2023-09-22 03:17:38 Aussentemperatur 14.50 14.24 85.50
119531 2023-09-22 03:08:34 Terrasse 15.00 14.50 74.40
119530 2023-09-22 02:52:34 Bahnzimmer 18.70 18.62 76.20
119529 2023-09-22 02:49:16 Aussentemperatur 14.70 14.46 85.50
119528 2023-09-22 02:40:39 Terrasse 15.20 14.70 73.70
119527 2023-09-22 02:22:34 Bahnzimmer 18.70 18.62 76.20
119526 2023-09-22 02:20:55 Aussentemperatur 14.90 14.69 86.00
119525 2023-09-22 02:12:44 Terrasse 15.40 14.94 74.60
119524 2023-09-22 01:52:33 Bahnzimmer 18.80 18.73 76.20
119523 2023-09-22 01:52:32 Aussentemperatur 15.10 14.92 86.30
119522 2023-09-22 01:44:48 Terrasse 15.50 15.07 75.20
119521 2023-09-22 01:24:10 Aussentemperatur 15.00 14.81 86.40
119520 2023-09-22 01:22:33 Bahnzimmer 18.80 18.72 76.10
119519 2023-09-22 01:17:12 Terrasse 15.60 15.17 74.80
119518 2023-09-22 00:55:48 Aussentemperatur 15.10 14.91 86.00
119517 2023-09-22 00:52:32 Bahnzimmer 18.80 18.72 76.10
119516 2023-09-22 00:49:01 Terrasse 15.80 15.37 74.20
119515 2023-09-22 00:27:27 Aussentemperatur 15.30 15.14 86.40
119514 2023-09-22 00:22:31 Bahnzimmer 18.90 18.83 76.10
119513 2023-09-22 00:21:06 Terrasse 16.00 15.61 74.70
119512 2023-09-21 23:59:05 Aussentemperatur 15.30 15.15 86.70
119511 2023-09-21 23:53:12 Terrasse 16.10 15.73 75.10
119510 2023-09-21 23:52:31 Bahnzimmer 18.90 18.83 76.00
119509 2023-09-21 23:30:43 Aussentemperatur 15.50 15.37 86.60
119508 2023-09-21 23:25:18 Terrasse 16.30 15.93 74.30
119507 2023-09-21 23:22:30 Bahnzimmer 19.00 18.93 75.80
119506 2023-09-21 23:02:21 Aussentemperatur 15.60 15.47 86.30
119505 2023-09-21 22:57:42 Terrasse 16.40 16.02 73.70
119504 2023-09-21 22:52:29 Bahnzimmer 19.00 18.93 75.70
119503 2023-09-21 22:33:59 Aussentemperatur 15.80 15.66 85.20
119502 2023-09-21 22:29:46 Terrasse 16.60 16.21 72.70
119501 2023-09-21 22:22:29 Bahnzimmer 19.10 19.04 75.70
119500 2023-09-21 22:05:35 Aussentemperatur 15.70 15.51 83.80
119499 2023-09-21 22:01:08 Terrasse 16.80 16.37 70.40
119498 2023-09-21 21:52:28 Bahnzimmer 19.10 19.04 75.70
119497 2023-09-21 21:37:13 Aussentemperatur 15.80 15.57 81.90
119496 2023-09-21 21:32:59 Terrasse 17.10 16.67 69.20
119495 2023-09-21 21:22:27 Bahnzimmer 19.20 19.14 75.20
119494 2023-09-21 21:08:56 Aussentemperatur 16.60 16.32 76.70
119493 2023-09-21 21:05:09 Terrasse 18.10 17.65 64.60
119492 2023-09-21 20:52:27 Bahnzimmer 19.30 19.25 75.20
119491 2023-09-21 20:40:35 Aussentemperatur 17.50 17.16 71.10
119490 2023-09-21 20:37:21 Terrasse 18.80 18.27 58.90
119489 2023-09-21 20:22:26 Bahnzimmer 19.30 19.26 75.80
119488 2023-09-21 20:12:16 Aussentemperatur 18.20 17.94 71.30
119487 2023-09-21 20:09:14 Terrasse 19.50 19.00 57.20
119486 2023-09-21 19:52:25 Bahnzimmer 19.10 19.03 75.20
119485 2023-09-21 19:43:52 Aussentemperatur 18.20 18.14 79.00
119484 2023-09-21 19:41:08 Terrasse 20.00 19.70 62.80
119483 2023-09-21 19:22:24 Bahnzimmer 19.10 19.03 75.20
119482 2023-09-21 19:15:31 Aussentemperatur 18.20 18.14 79.00
119481 2023-09-21 19:13:10 Terrasse 20.10 19.82 63.50
119480 2023-09-21 18:52:24 Bahnzimmer 19.20 19.13 75.00
119479 2023-09-21 18:47:09 Aussentemperatur 18.40 18.37 79.30
119478 2023-09-21 18:45:12 Terrasse 20.30 20.05 63.70
119477 2023-09-21 18:22:23 Bahnzimmer 19.20 19.14 75.10
119476 2023-09-21 18:18:47 Aussentemperatur 18.60 18.56 78.30
119475 2023-09-21 18:17:13 Terrasse 20.60 20.37 63.30
119474 2023-09-21 17:52:22 Bahnzimmer 19.20 19.14 75.10
119473 2023-09-21 17:50:24 Aussentemperatur 18.90 18.84 76.20
119472 2023-09-21 17:49:12 Terrasse 20.90 20.65 61.50
119471 2023-09-21 17:22:22 Bahnzimmer 19.20 19.14 75.10
119470 2023-09-21 17:22:03 Aussentemperatur 19.10 19.04 75.50
119469 2023-09-21 17:21:01 Terrasse 21.00 20.73 60.40
119468 2023-09-21 16:53:40 Aussentemperatur 19.40 19.30 72.80
119467 2023-09-21 16:53:09 Terrasse 21.30 21.05 60.00
119466 2023-09-21 16:52:21 Bahnzimmer 19.20 19.14 75.10
119465 2023-09-21 16:25:18 Aussentemperatur 19.70 19.61 72.20
119464 2023-09-21 16:24:57 Terrasse 21.50 21.24 58.60
119463 2023-09-21 16:22:21 Bahnzimmer 19.20 19.14 75.10
119462 2023-09-21 15:56:59 Terrasse 21.50 21.29 60.80
119461 2023-09-21 15:56:54 Aussentemperatur 19.50 19.45 74.50
119460 2023-09-21 15:52:20 Bahnzimmer 19.20 19.13 75.00
119459 2023-09-21 15:29:00 Terrasse 21.70 21.51 60.50
119458 2023-09-21 15:28:32 Aussentemperatur 19.70 19.62 72.40
119457 2023-09-21 15:22:19 Bahnzimmer 19.20 19.14 75.10
119456 2023-09-21 15:01:08 Terrasse 22.10 21.92 59.70
119455 2023-09-21 15:00:08 Aussentemperatur 20.00 19.94 72.20
119454 2023-09-21 14:52:19 Bahnzimmer 19.20 19.14 75.10
119453 2023-09-21 14:33:13 Terrasse 21.00 20.77 61.70
119452 2023-09-21 14:31:41 Aussentemperatur 19.30 19.21 73.60
119451 2023-09-21 14:22:18 Bahnzimmer 19.20 19.14 75.10
119450 2023-09-21 14:05:10 Terrasse 20.80 20.55 62.00
119449 2023-09-21 14:03:20 Aussentemperatur 19.00 18.88 73.80
119448 2023-09-21 13:52:17 Bahnzimmer 19.20 19.14 75.10
119447 2023-09-21 13:36:44 Terrasse 20.60 20.29 60.40
119446 2023-09-21 13:34:57 Aussentemperatur 18.80 18.64 72.80
119445 2023-09-21 13:22:17 Bahnzimmer 19.10 19.03 75.20
119444 2023-09-21 13:08:34 Terrasse 21.10 20.83 60.00
119443 2023-09-21 13:06:35 Aussentemperatur 19.10 18.96 72.50
119442 2023-09-21 12:52:16 Bahnzimmer 19.10 19.03 75.40
119441 2023-09-21 12:40:38 Terrasse 22.30 22.08 57.40
119440 2023-09-21 12:38:15 Aussentemperatur 19.50 19.39 72.00
119439 2023-09-21 12:22:15 Bahnzimmer 19.10 19.03 75.20
119438 2023-09-21 12:12:22 Terrasse 19.80 19.48 62.90
119437 2023-09-21 12:09:44 Aussentemperatur 18.00 17.79 74.20
119436 2023-09-21 11:52:15 Bahnzimmer 19.00 18.93 75.60
119435 2023-09-21 11:43:56 Terrasse 18.80 18.39 63.40
119434 2023-09-21 11:41:19 Aussentemperatur 17.50 17.27 75.10
119433 2023-09-21 11:22:14 Bahnzimmer 19.00 18.92 75.40
119432 2023-09-21 11:15:38 Terrasse 17.60 17.15 66.40
119431 2023-09-21 11:12:53 Aussentemperatur 16.90 16.64 76.20
119430 2023-09-21 10:52:13 Bahnzimmer 19.00 18.92 75.40
119429 2023-09-21 10:47:23 Terrasse 17.00 16.54 68.40
119428 2023-09-21 10:44:28 Aussentemperatur 16.50 16.21 76.90
119427 2023-09-21 10:22:13 Bahnzimmer 18.90 18.82 75.50
119426 2023-09-21 10:19:09 Terrasse 16.50 15.96 67.20
119425 2023-09-21 10:16:04 Aussentemperatur 16.30 16.00 77.30
119424 2023-09-21 09:52:12 Bahnzimmer 19.00 18.92 75.30
119423 2023-09-21 09:50:57 Terrasse 16.40 15.87 67.80
119422 2023-09-21 09:47:42 Aussentemperatur 16.10 15.78 77.00
119421 2023-09-21 09:22:45 Terrasse 16.40 15.86 67.60
119420 2023-09-21 09:22:11 Bahnzimmer 19.00 18.93 75.50
119419 2023-09-21 09:19:18 Aussentemperatur 16.00 15.69 78.10
119418 2023-09-21 08:54:46 Terrasse 15.80 15.27 70.40
119417 2023-09-21 08:52:11 Bahnzimmer 19.00 18.93 75.50
119416 2023-09-21 08:50:53 Aussentemperatur 15.50 15.17 78.90
119415 2023-09-21 08:26:59 Terrasse 15.60 15.04 69.80
119414 2023-09-21 08:22:29 Aussentemperatur 15.30 14.94 78.80
119413 2023-09-21 08:22:10 Bahnzimmer 19.00 18.93 75.60
119412 2023-09-21 07:58:40 Terrasse 15.50 14.92 69.60
119411 2023-09-21 07:54:06 Aussentemperatur 15.40 15.04 78.20
119410 2023-09-21 07:52:10 Bahnzimmer 19.00 18.93 75.60
119409 2023-09-21 07:30:25 Terrasse 15.40 14.82 69.80
119408 2023-09-21 07:25:44 Aussentemperatur 15.40 15.02 77.70
119407 2023-09-21 07:22:09 Bahnzimmer 19.00 18.95 76.30
119406 2023-09-21 07:02:45 Terrasse 15.40 14.79 68.90
119405 2023-09-21 06:57:21 Aussentemperatur 15.30 14.90 77.00
119404 2023-09-21 06:52:08 Bahnzimmer 18.90 18.82 75.60
119403 2023-09-21 06:35:01 Terrasse 15.20 14.56 68.20
119402 2023-09-21 06:28:57 Aussentemperatur 15.00 14.57 77.10
119401 2023-09-21 06:22:08 Bahnzimmer 18.90 18.82 75.50
119400 2023-09-21 06:06:52 Terrasse 15.30 14.67 68.20
119399 2023-09-21 06:00:34 Aussentemperatur 15.00 14.57 77.00
119398 2023-09-21 05:52:07 Bahnzimmer 18.90 18.82 75.50
119397 2023-09-21 05:38:56 Terrasse 15.20 14.56 68.20
119396 2023-09-21 05:32:12 Aussentemperatur 15.00 14.56 76.80
119395 2023-09-21 05:22:06 Bahnzimmer 18.90 18.82 75.50
119394 2023-09-21 05:11:04 Terrasse 15.30 14.66 67.80
119393 2023-09-21 05:03:50 Aussentemperatur 15.00 14.55 76.50
119392 2023-09-21 04:52:06 Bahnzimmer 18.90 18.82 75.50
119391 2023-09-21 04:43:10 Terrasse 15.40 14.75 67.10
119390 2023-09-21 04:35:28 Aussentemperatur 15.10 14.65 76.10
119389 2023-09-21 04:22:05 Bahnzimmer 19.00 18.92 75.30
119388 2023-09-21 04:15:15 Terrasse 15.60 14.95 66.50
119387 2023-09-21 04:07:07 Aussentemperatur 15.30 14.86 75.70
119386 2023-09-21 03:52:04 Bahnzimmer 19.00 18.92 75.30
119385 2023-09-21 03:47:21 Terrasse 15.80 15.15 65.80
119384 2023-09-21 03:38:44 Aussentemperatur 15.30 14.85 75.40
119383 2023-09-21 03:22:04 Bahnzimmer 19.00 18.92 75.30
119382 2023-09-21 03:20:32 Terrasse 15.80 15.13 65.00
119381 2023-09-21 03:10:22 Aussentemperatur 15.40 14.96 75.20
119380 2023-09-21 02:52:03 Bahnzimmer 19.10 19.03 75.30
119379 2023-09-21 02:49:46 Terrasse 16.00 15.35 65.00
119378 2023-09-21 02:42:00 Aussentemperatur 15.50 15.06 74.90
119377 2023-09-21 02:21:54 Terrasse 16.10 15.45 64.40
119376 2023-09-21 02:13:38 Aussentemperatur 15.80 15.37 74.20
119375 2023-09-21 01:53:59 Terrasse 16.40 15.77 64.10
119374 2023-09-21 01:51:57 Bahnzimmer 19.10 19.03 75.20
119373 2023-09-21 01:45:15 Aussentemperatur 15.60 15.16 74.30
119372 2023-09-21 01:26:05 Terrasse 16.50 15.87 63.70
119371 2023-09-21 01:21:56 Bahnzimmer 19.20 19.14 75.20
119370 2023-09-21 01:16:54 Aussentemperatur 15.90 15.48 73.90
119369 2023-09-21 00:58:11 Terrasse 16.70 16.07 62.90
119368 2023-09-21 00:51:55 Bahnzimmer 19.20 19.14 75.30
119367 2023-09-21 00:48:33 Aussentemperatur 15.90 15.47 73.60
119366 2023-09-21 00:30:18 Terrasse 16.80 16.17 62.70
119365 2023-09-21 00:21:55 Bahnzimmer 19.20 19.14 75.20
119364 2023-09-21 00:20:11 Aussentemperatur 16.10 15.68 73.40
119363 2023-09-21 00:02:29 Terrasse 17.00 16.38 62.20
119362 2023-09-20 23:51:54 Bahnzimmer 19.20 19.14 75.20
119361 2023-09-20 23:51:49 Aussentemperatur 16.20 15.79 73.30
119360 2023-09-20 23:34:37 Terrasse 17.30 16.70 61.80
119359 2023-09-20 23:23:27 Aussentemperatur 16.40 16.01 73.20
119358 2023-09-20 23:21:54 Bahnzimmer 19.20 19.14 75.20
119357 2023-09-20 23:06:42 Terrasse 17.50 16.92 61.70
119356 2023-09-20 22:55:06 Aussentemperatur 16.60 16.22 73.10
119355 2023-09-20 22:51:53 Bahnzimmer 19.30 19.25 75.40
119354 2023-09-20 22:38:47 Terrasse 17.80 17.23 61.20
119353 2023-09-20 22:26:45 Aussentemperatur 16.80 16.44 72.90
119352 2023-09-20 22:21:52 Bahnzimmer 19.30 19.25 75.40
119351 2023-09-20 22:10:46 Terrasse 18.10 17.55 60.80
119350 2023-09-20 21:58:23 Aussentemperatur 17.00 16.66 73.10
119349 2023-09-20 21:51:52 Bahnzimmer 19.30 19.25 75.40
119348 2023-09-20 21:42:44 Terrasse 18.40 17.87 60.20
119347 2023-09-20 21:30:02 Aussentemperatur 17.20 16.85 71.70
119346 2023-09-20 21:21:51 Bahnzimmer 19.30 19.25 75.30
119345 2023-09-20 21:15:01 Terrasse 18.70 18.18 59.70
119344 2023-09-20 21:01:41 Aussentemperatur 17.40 17.06 71.50
119343 2023-09-20 20:51:50 Bahnzimmer 19.40 19.35 75.00
119342 2023-09-20 20:46:50 Terrasse 19.20 18.73 59.40
119341 2023-09-20 20:33:20 Aussentemperatur 18.00 17.70 70.50
119340 2023-09-20 20:21:50 Bahnzimmer 19.40 19.35 75.00
119339 2023-09-20 20:19:05 Terrasse 19.70 19.26 58.70
119338 2023-09-20 20:04:59 Aussentemperatur 18.20 17.90 69.70
119337 2023-09-20 19:51:49 Bahnzimmer 19.40 19.35 75.00
119336 2023-09-20 19:50:43 Terrasse 20.50 20.10 57.10
119335 2023-09-20 19:36:39 Aussentemperatur 18.80 18.49 67.30
119334 2023-09-20 19:22:37 Terrasse 21.40 21.03 54.80
119333 2023-09-20 19:21:48 Bahnzimmer 19.40 19.35 74.90
119332 2023-09-20 19:08:21 Aussentemperatur 19.90 19.62 64.10
119331 2023-09-20 18:54:29 Terrasse 22.10 21.71 51.60
119330 2023-09-20 18:51:48 Bahnzimmer 19.40 19.35 74.80
119329 2023-09-20 18:40:01 Aussentemperatur 20.50 20.21 61.40
119328 2023-09-20 18:26:26 Terrasse 22.70 22.34 50.40
119327 2023-09-20 18:21:47 Bahnzimmer 19.50 19.46 74.70
119326 2023-09-20 18:11:40 Aussentemperatur 20.80 20.53 61.20
119325 2023-09-20 17:58:23 Terrasse 23.50 23.19 49.10
119324 2023-09-20 17:51:46 Bahnzimmer 19.50 19.46 74.70
119323 2023-09-20 17:43:19 Aussentemperatur 21.10 20.86 60.90
119322 2023-09-20 17:30:29 Terrasse 24.40 24.14 47.80
119321 2023-09-20 17:21:46 Bahnzimmer 19.50 19.46 74.70
119320 2023-09-20 17:14:56 Aussentemperatur 21.10 20.87 61.30
119319 2023-09-20 17:02:22 Terrasse 25.20 25.05 48.90
119318 2023-09-20 16:51:45 Bahnzimmer 19.50 19.45 74.50
119317 2023-09-20 16:46:32 Aussentemperatur 21.30 21.08 61.20
119316 2023-09-20 16:34:09 Terrasse 25.70 25.58 48.00
119315 2023-09-20 16:21:44 Bahnzimmer 19.50 19.45 74.50
119314 2023-09-20 16:18:09 Aussentemperatur 21.20 20.97 61.00
119313 2023-09-20 16:05:58 Terrasse 25.00 24.83 48.90
119312 2023-09-20 15:51:44 Bahnzimmer 19.50 19.45 74.40
119311 2023-09-20 15:49:43 Aussentemperatur 20.90 20.64 61.00
119310 2023-09-20 15:37:41 Terrasse 24.20 24.06 53.00
119309 2023-09-20 15:21:43 Bahnzimmer 19.40 19.35 74.90
119308 2023-09-20 15:21:22 Aussentemperatur 21.10 20.88 62.00
119307 2023-09-20 15:09:27 Terrasse 24.00 23.75 49.70
119306 2023-09-20 14:52:58 Aussentemperatur 20.70 20.55 66.10
119305 2023-09-20 14:51:42 Bahnzimmer 19.30 19.24 74.90
119304 2023-09-20 14:41:24 Terrasse 23.00 22.76 53.90
119303 2023-09-20 14:24:31 Aussentemperatur 19.60 19.41 68.60
119302 2023-09-20 14:21:42 Bahnzimmer 19.30 19.24 75.00
119301 2023-09-20 14:13:22 Terrasse 22.80 22.56 54.60
119300 2023-09-20 13:56:11 Aussentemperatur 20.20 20.06 68.30
119299 2023-09-20 13:51:41 Bahnzimmer 19.30 19.25 75.10
119298 2023-09-20 13:45:18 Terrasse 23.60 23.41 53.50
119297 2023-09-20 13:27:47 Aussentemperatur 20.00 19.84 68.40
119296 2023-09-20 13:21:40 Bahnzimmer 19.30 19.24 75.00
119295 2023-09-20 13:17:33 Terrasse 26.00 25.95 49.70
119294 2023-09-20 12:59:20 Aussentemperatur 20.00 19.89 70.20
119293 2023-09-20 12:51:40 Bahnzimmer 19.20 19.14 75.10
119292 2023-09-20 12:49:13 Terrasse 24.60 24.52 53.80
119291 2023-09-20 12:30:49 Aussentemperatur 18.40 18.22 73.80
119290 2023-09-20 12:21:39 Bahnzimmer 19.10 19.04 75.60
119289 2023-09-20 12:21:01 Terrasse 20.70 20.40 60.40
119288 2023-09-20 12:02:22 Aussentemperatur 17.50 17.30 76.20
119287 2023-09-20 11:53:10 Terrasse 19.50 19.15 62.90
119286 2023-09-20 11:51:38 Bahnzimmer 19.10 19.03 75.40
119285 2023-09-20 11:33:56 Aussentemperatur 16.60 16.33 77.20
119284 2023-09-20 11:25:50 Terrasse 18.00 17.59 66.50
119283 2023-09-20 11:21:38 Bahnzimmer 19.10 19.03 75.40
119282 2023-09-20 11:05:32 Aussentemperatur 16.30 16.01 77.40
119281 2023-09-20 10:53:35 Terrasse 17.00 16.52 67.40
119280 2023-09-20 10:51:37 Bahnzimmer 19.10 19.03 75.40
119279 2023-09-20 10:37:07 Aussentemperatur 16.00 15.69 77.90
119278 2023-09-20 10:25:50 Terrasse 16.40 15.89 68.70
119277 2023-09-20 10:21:36 Bahnzimmer 19.10 19.04 75.50
119276 2023-09-20 10:08:43 Aussentemperatur 15.70 15.37 78.40
119275 2023-09-20 09:57:28 Terrasse 15.80 15.26 69.80
119274 2023-09-20 09:51:36 Bahnzimmer 19.10 19.04 75.50
119273 2023-09-20 09:40:20 Aussentemperatur 15.30 14.95 79.10
119272 2023-09-20 09:29:12 Terrasse 15.30 14.73 70.50
119271 2023-09-20 09:21:35 Bahnzimmer 19.00 18.93 75.50
119270 2023-09-20 09:11:56 Aussentemperatur 15.00 14.63 79.50
119269 2023-09-20 09:01:00 Terrasse 15.00 14.42 71.50
119268 2023-09-20 08:51:34 Bahnzimmer 19.00 18.93 75.50
119267 2023-09-20 08:43:33 Aussentemperatur 14.90 14.52 79.60
119266 2023-09-20 08:32:50 Terrasse 14.70 14.11 72.20
119265 2023-09-20 08:21:34 Bahnzimmer 19.00 18.93 75.60
119264 2023-09-20 08:15:11 Aussentemperatur 14.70 14.31 80.00
119263 2023-09-20 08:04:37 Terrasse 14.50 13.88 71.80
119262 2023-09-20 07:51:33 Bahnzimmer 19.00 18.93 75.50
119261 2023-09-20 07:46:48 Aussentemperatur 14.60 14.19 79.30
119260 2023-09-20 07:36:25 Terrasse 14.50 13.86 70.90
119259 2023-09-20 07:21:33 Bahnzimmer 19.10 19.03 75.40
119258 2023-09-20 07:18:26 Aussentemperatur 14.50 14.07 79.00
119257 2023-09-20 07:08:13 Terrasse 14.50 13.85 70.80
119256 2023-09-20 06:51:32 Bahnzimmer 19.10 19.03 75.40
119255 2023-09-20 06:50:06 Aussentemperatur 14.50 14.07 78.90
119254 2023-09-20 06:40:04 Terrasse 14.40 13.74 70.50
119253 2023-09-20 06:21:43 Aussentemperatur 14.50 14.06 78.70
119252 2023-09-20 06:21:31 Bahnzimmer 19.10 19.03 75.30
119251 2023-09-20 06:11:54 Terrasse 14.50 13.84 70.30
119250 2023-09-20 05:53:21 Aussentemperatur 14.50 14.04 78.00
119249 2023-09-20 05:51:31 Bahnzimmer 19.20 19.14 75.20
119248 2023-09-20 05:43:44 Terrasse 14.50 13.84 70.10
119247 2023-09-20 05:25:08 Aussentemperatur 14.60 14.14 77.70
119246 2023-09-20 05:21:30 Bahnzimmer 19.20 19.14 75.20
119245 2023-09-20 05:15:33 Terrasse 14.60 13.93 69.60
119244 2023-09-20 04:56:43 Aussentemperatur 14.60 14.14 77.50
119243 2023-09-20 04:51:29 Bahnzimmer 19.20 19.14 75.10
119242 2023-09-20 04:47:22 Terrasse 14.60 13.94 69.70
119241 2023-09-20 04:28:23 Aussentemperatur 14.60 14.13 77.00
119240 2023-09-20 04:21:29 Bahnzimmer 19.30 19.24 75.00
119239 2023-09-20 04:19:11 Terrasse 14.60 13.92 69.10
119238 2023-09-20 04:00:01 Aussentemperatur 14.70 14.22 76.50
119237 2023-09-20 03:51:28 Bahnzimmer 19.30 19.24 75.00
119236 2023-09-20 03:51:02 Terrasse 14.80 14.12 68.30
119235 2023-09-20 03:31:40 Aussentemperatur 15.00 14.54 76.10
119234 2023-09-20 03:22:52 Terrasse 15.00 14.33 68.00
119233 2023-09-20 03:21:27 Bahnzimmer 19.30 19.24 75.00
119232 2023-09-20 03:03:20 Aussentemperatur 14.90 14.43 76.00
119231 2023-09-20 02:54:43 Terrasse 15.20 14.53 67.30
119230 2023-09-20 02:51:27 Bahnzimmer 19.30 19.24 75.00
119229 2023-09-20 02:34:59 Aussentemperatur 15.30 14.84 75.00
119228 2023-09-20 02:26:33 Terrasse 15.60 14.95 66.40
119227 2023-09-20 02:21:26 Bahnzimmer 19.40 19.35 74.90
119226 2023-09-20 02:06:39 Aussentemperatur 15.40 14.94 74.40
119225 2023-09-20 01:58:23 Terrasse 15.60 14.94 65.90
119224 2023-09-20 01:51:25 Bahnzimmer 19.40 19.35 74.80
119223 2023-09-20 01:38:18 Aussentemperatur 15.40 14.93 73.90
119222 2023-09-20 01:30:12 Terrasse 15.60 14.92 65.10
119221 2023-09-20 01:21:25 Bahnzimmer 19.40 19.35 74.70
119220 2023-09-20 01:09:57 Aussentemperatur 15.40 14.89 72.60
119219 2023-09-20 01:02:00 Terrasse 15.60 14.90 64.40
119218 2023-09-20 00:51:24 Bahnzimmer 19.40 19.35 74.70
119217 2023-09-20 00:41:34 Aussentemperatur 15.20 14.67 72.70
119216 2023-09-20 00:33:50 Terrasse 15.50 14.79 64.60
119215 2023-09-20 00:21:23 Bahnzimmer 19.50 19.46 74.70
119214 2023-09-20 00:13:12 Aussentemperatur 15.30 14.78 72.50
119213 2023-09-20 00:05:41 Terrasse 15.50 14.78 64.20
119212 2023-09-19 23:51:23 Bahnzimmer 19.50 19.45 74.60
119211 2023-09-19 23:44:52 Aussentemperatur 15.40 14.87 71.80
119210 2023-09-19 23:37:31 Terrasse 15.90 15.19 63.00
119209 2023-09-19 23:21:22 Bahnzimmer 19.50 19.45 74.50
119208 2023-09-19 23:16:30 Aussentemperatur 15.60 15.07 71.00
119207 2023-09-19 23:09:21 Terrasse 16.10 15.40 62.50
119206 2023-09-19 22:51:21 Bahnzimmer 19.50 19.45 74.60
119205 2023-09-19 22:48:09 Aussentemperatur 15.60 15.05 70.30
119204 2023-09-19 22:41:11 Terrasse 16.40 15.69 60.90
119203 2023-09-19 22:21:21 Bahnzimmer 19.50 19.45 74.60
119202 2023-09-19 22:19:49 Aussentemperatur 16.00 15.45 68.60
119201 2023-09-19 22:13:04 Terrasse 16.70 15.98 59.70
119200 2023-09-19 21:51:29 Aussentemperatur 16.40 15.84 66.80
119199 2023-09-19 21:51:20 Bahnzimmer 19.60 19.56 74.60
119198 2023-09-19 21:44:55 Terrasse 17.20 16.48 57.50
119197 2023-09-19 21:23:08 Aussentemperatur 16.80 16.24 65.20
119196 2023-09-19 21:21:19 Bahnzimmer 19.70 19.67 74.40
119195 2023-09-19 21:16:47 Terrasse 17.60 16.90 56.90
119194 2023-09-19 20:54:47 Aussentemperatur 16.90 16.32 64.30
119193 2023-09-19 20:51:19 Bahnzimmer 19.70 19.68 74.70
119192 2023-09-19 20:48:38 Terrasse 18.00 17.31 55.70
119191 2023-09-19 20:26:27 Aussentemperatur 17.20 16.64 63.80
119190 2023-09-19 20:21:18 Bahnzimmer 19.50 19.46 74.70
119189 2023-09-19 20:20:29 Terrasse 18.30 17.61 54.70
119188 2023-09-19 19:58:05 Aussentemperatur 17.50 16.92 62.00
119187 2023-09-19 19:52:19 Terrasse 18.70 18.01 53.10
119186 2023-09-19 19:51:17 Bahnzimmer 19.50 19.45 74.50
119185 2023-09-19 19:29:45 Aussentemperatur 17.60 16.99 60.30
119184 2023-09-19 19:24:11 Terrasse 19.10 18.42 51.90
119183 2023-09-19 19:21:17 Bahnzimmer 19.60 19.56 74.30
119182 2023-09-19 19:01:25 Aussentemperatur 18.10 17.47 57.70
119181 2023-09-19 18:56:46 Terrasse 19.70 19.01 49.30
119180 2023-09-19 18:51:16 Bahnzimmer 19.60 19.55 74.00
119179 2023-09-19 18:33:05 Aussentemperatur 18.50 17.86 55.90
119178 2023-09-19 18:28:33 Terrasse 20.10 19.42 47.90
119177 2023-09-19 18:21:15 Bahnzimmer 19.70 19.65 73.80
119176 2023-09-19 18:04:43 Aussentemperatur 18.60 17.94 54.70
119175 2023-09-19 18:00:17 Terrasse 20.50 19.82 46.50
119174 2023-09-19 17:51:15 Bahnzimmer 19.70 19.65 73.60
119173 2023-09-19 17:36:21 Aussentemperatur 18.40 17.69 53.50
119172 2023-09-19 17:32:23 Terrasse 20.90 20.21 44.70
119171 2023-09-19 17:21:14 Bahnzimmer 19.70 19.67 74.60
119170 2023-09-19 17:08:02 Aussentemperatur 18.50 17.76 51.90
119169 2023-09-19 17:04:17 Terrasse 21.70 21.01 41.50
119168 2023-09-19 16:51:13 Bahnzimmer 19.70 19.67 74.50
119167 2023-09-19 16:39:38 Aussentemperatur 18.90 18.23 53.20
119166 2023-09-19 16:36:05 Terrasse 22.30 21.70 42.70
119165 2023-09-19 16:21:13 Bahnzimmer 19.70 19.66 74.10
119164 2023-09-19 16:11:15 Aussentemperatur 18.90 18.24 53.40
119163 2023-09-19 16:07:54 Terrasse 23.00 22.46 42.20
119162 2023-09-19 15:51:12 Bahnzimmer 19.70 19.65 73.80
119161 2023-09-19 15:42:53 Aussentemperatur 18.90 18.24 53.30
119160 2023-09-19 15:39:43 Terrasse 22.60 22.01 42.00
119159 2023-09-19 15:21:11 Bahnzimmer 19.50 19.42 73.20
119158 2023-09-19 15:14:30 Aussentemperatur 19.00 18.36 53.70
119157 2023-09-19 15:11:30 Terrasse 22.80 22.27 43.30
119156 2023-09-19 14:51:11 Bahnzimmer 19.50 19.41 73.00
119155 2023-09-19 14:46:07 Aussentemperatur 18.80 18.18 55.30
119154 2023-09-19 14:43:19 Terrasse 22.50 21.92 42.50
119153 2023-09-19 14:21:10 Bahnzimmer 19.50 19.40 72.50
119152 2023-09-19 14:17:45 Aussentemperatur 18.70 18.10 56.50
119151 2023-09-19 14:15:06 Terrasse 22.10 21.56 45.80
119150 2023-09-19 13:51:09 Bahnzimmer 19.40 19.29 72.70
119149 2023-09-19 13:49:18 Aussentemperatur 18.20 17.63 59.70
119148 2023-09-19 13:46:52 Terrasse 21.50 20.96 47.90
119147 2023-09-19 13:21:09 Bahnzimmer 19.40 19.32 73.60
119146 2023-09-19 13:20:57 Aussentemperatur 18.10 17.53 59.90
119145 2023-09-19 13:18:56 Terrasse 22.80 22.33 45.80
119144 2023-09-19 12:52:33 Aussentemperatur 17.90 17.41 63.90
119143 2023-09-19 12:51:08 Bahnzimmer 19.30 19.21 73.60
119142 2023-09-19 12:50:31 Terrasse 21.90 21.41 48.30
119141 2023-09-19 12:24:09 Aussentemperatur 17.40 17.00 69.10
119140 2023-09-19 12:21:57 Terrasse 19.20 18.63 55.60
119139 2023-09-19 12:21:07 Bahnzimmer 19.20 19.09 73.30
119138 2023-09-19 11:55:40 Aussentemperatur 16.10 15.68 73.30
119137 2023-09-19 11:53:40 Terrasse 17.70 17.12 61.00
119136 2023-09-19 11:51:07 Bahnzimmer 19.20 19.07 72.50
119135 2023-09-19 11:27:17 Aussentemperatur 15.80 15.35 73.40
119134 2023-09-19 11:25:25 Terrasse 17.00 16.35 60.90
119133 2023-09-19 11:21:06 Bahnzimmer 18.40 18.08 68.50
119132 2023-09-19 10:58:52 Aussentemperatur 15.60 15.25 77.80
119131 2023-09-19 10:58:11 Terrasse 16.40 15.82 65.90
119130 2023-09-19 10:51:05 Bahnzimmer 19.40 19.42 77.60
119129 2023-09-19 10:30:28 Aussentemperatur 15.30 14.99 80.70
119128 2023-09-19 10:28:55 Terrasse 15.80 15.28 70.50
119127 2023-09-19 10:21:05 Bahnzimmer 19.40 19.42 77.60
119126 2023-09-19 10:02:08 Aussentemperatur 15.10 14.82 82.70
119125 2023-09-19 10:00:49 Terrasse 15.60 15.08 71.60
119124 2023-09-19 09:51:04 Bahnzimmer 19.30 19.31 77.60
119123 2023-09-19 09:33:43 Aussentemperatur 14.90 14.63 83.80
119122 2023-09-19 09:32:41 Terrasse 15.30 14.80 73.40
119121 2023-09-19 09:21:03 Bahnzimmer 19.40 19.42 77.70
119120 2023-09-19 09:05:22 Aussentemperatur 14.80 14.54 84.30
119119 2023-09-19 09:04:33 Terrasse 15.00 14.51 74.70
119118 2023-09-19 08:51:03 Bahnzimmer 19.40 19.42 77.60
119117 2023-09-19 08:37:00 Aussentemperatur 14.80 14.55 84.80
119116 2023-09-19 08:36:27 Terrasse 15.00 14.52 75.20
119115 2023-09-19 08:21:02 Bahnzimmer 19.40 19.43 77.80
119114 2023-09-19 08:08:47 Aussentemperatur 14.70 14.44 84.70
119113 2023-09-19 08:08:17 Terrasse 14.90 14.42 75.60
119112 2023-09-19 07:51:01 Bahnzimmer 19.40 19.43 77.80
119111 2023-09-19 07:40:23 Aussentemperatur 14.80 14.54 84.50
119110 2023-09-19 07:40:04 Terrasse 14.90 14.41 75.30
119109 2023-09-19 07:21:01 Bahnzimmer 19.50 19.53 77.50
119108 2023-09-19 07:12:03 Aussentemperatur 14.90 14.64 84.20
119107 2023-09-19 07:11:53 Terrasse 15.00 14.52 75.30
119106 2023-09-19 06:51:00 Bahnzimmer 19.50 19.54 77.80
119105 2023-09-19 06:43:44 Aussentemperatur 15.00 14.75 84.00
119104 2023-09-19 06:43:43 Terrasse 15.00 14.51 74.80
119103 2023-09-19 06:20:59 Bahnzimmer 19.50 19.54 77.80
119102 2023-09-19 06:15:42 Terrasse 15.00 14.49 74.00
119101 2023-09-19 06:15:22 Aussentemperatur 15.00 14.74 83.70
119100 2023-09-19 05:50:59 Bahnzimmer 19.50 19.54 77.80
119099 2023-09-19 05:47:39 Terrasse 15.10 14.57 73.00
119098 2023-09-19 05:47:02 Aussentemperatur 15.20 14.96 83.60
119097 2023-09-19 05:20:58 Bahnzimmer 19.50 19.54 77.80
119096 2023-09-19 05:19:34 Terrasse 15.60 15.11 72.50
119095 2023-09-19 05:18:42 Aussentemperatur 15.50 15.30 84.00
119094 2023-09-19 04:52:43 Terrasse 16.00 15.59 73.90
119093 2023-09-19 04:50:57 Bahnzimmer 19.50 19.53 77.70
119092 2023-09-19 04:50:23 Aussentemperatur 15.80 15.65 85.00
119091 2023-09-19 04:22:40 Terrasse 16.40 16.04 74.60
119090 2023-09-19 04:22:02 Aussentemperatur 16.00 15.90 85.80
119089 2023-09-19 04:20:57 Bahnzimmer 19.60 19.65 77.80
119088 2023-09-19 03:54:36 Terrasse 16.50 16.16 75.00
119087 2023-09-19 03:53:41 Aussentemperatur 16.10 16.01 86.10
119086 2023-09-19 03:50:56 Bahnzimmer 19.70 19.75 77.70
119085 2023-09-19 03:27:41 Terrasse 16.70 16.40 75.70
119084 2023-09-19 03:25:19 Aussentemperatur 16.20 16.13 86.50
119083 2023-09-19 03:20:55 Bahnzimmer 19.70 19.76 77.80
119082 2023-09-19 02:58:42 Terrasse 16.80 16.51 75.80
119081 2023-09-19 02:56:57 Aussentemperatur 16.40 16.35 86.40
119080 2023-09-19 02:50:55 Bahnzimmer 19.70 19.76 77.80
119079 2023-09-19 02:29:35 Terrasse 16.90 16.62 75.60
119078 2023-09-19 02:28:35 Aussentemperatur 16.40 16.35 86.40
119077 2023-09-19 02:20:54 Bahnzimmer 19.70 19.75 77.70
119076 2023-09-19 02:00:25 Terrasse 17.00 16.71 75.00
119075 2023-09-19 02:00:14 Aussentemperatur 16.40 16.35 86.20
119074 2023-09-19 01:50:53 Bahnzimmer 19.80 19.86 77.70
119073 2023-09-19 01:32:57 Terrasse 17.30 17.03 74.60
119072 2023-09-19 01:31:53 Aussentemperatur 16.60 16.57 86.20
119071 2023-09-19 01:20:53 Bahnzimmer 19.80 19.86 77.60
119070 2023-09-19 01:05:19 Terrasse 17.50 17.26 74.90
119069 2023-09-19 01:03:32 Aussentemperatur 16.80 16.80 86.60
119068 2023-09-19 00:50:52 Bahnzimmer 19.80 19.86 77.40
119067 2023-09-19 00:37:08 Terrasse 17.80 17.59 75.00
119066 2023-09-19 00:35:12 Aussentemperatur 17.00 16.99 85.70
119065 2023-09-19 00:20:51 Bahnzimmer 19.80 19.85 77.30
119064 2023-09-19 00:08:00 Terrasse 18.10 17.89 73.70
119063 2023-09-19 00:06:51 Aussentemperatur 17.20 17.17 84.20
119062 2023-09-18 23:50:51 Bahnzimmer 19.90 19.96 77.30
119061 2023-09-18 23:40:44 Terrasse 18.40 18.17 71.80
119060 2023-09-18 23:38:31 Aussentemperatur 17.80 17.76 81.40
119059 2023-09-18 23:20:50 Bahnzimmer 19.90 19.96 77.30
119058 2023-09-18 23:11:48 Terrasse 18.70 18.45 69.70
119057 2023-09-18 23:10:09 Aussentemperatur 18.00 17.95 80.40
119056 2023-09-18 22:50:49 Bahnzimmer 19.90 19.96 77.30
119055 2023-09-18 22:43:43 Terrasse 18.80 18.55 69.50
119054 2023-09-18 22:41:48 Aussentemperatur 18.00 17.95 80.10
119053 2023-09-18 22:20:49 Bahnzimmer 19.90 19.96 77.20
119052 2023-09-18 22:15:37 Terrasse 19.00 18.76 69.00
119051 2023-09-18 22:13:28 Aussentemperatur 18.10 18.05 79.70
119050 2023-09-18 21:50:48 Bahnzimmer 20.00 20.07 77.10
119049 2023-09-18 21:47:34 Terrasse 19.30 19.06 67.80
119048 2023-09-18 21:45:07 Aussentemperatur 18.30 18.25 79.10
119047 2023-09-18 21:20:47 Bahnzimmer 20.00 20.07 77.20
119046 2023-09-18 21:19:28 Terrasse 19.60 19.36 67.00
119045 2023-09-18 21:16:46 Aussentemperatur 18.50 18.47 78.90
119044 2023-09-18 20:51:57 Terrasse 19.90 19.71 67.50
119043 2023-09-18 20:50:47 Bahnzimmer 20.00 20.07 77.20
119042 2023-09-18 20:48:25 Aussentemperatur 18.70 18.69 79.10
119041 2023-09-18 20:23:21 Terrasse 20.10 19.98 69.50
119040 2023-09-18 20:20:46 Bahnzimmer 20.00 20.07 77.20
119039 2023-09-18 20:20:05 Aussentemperatur 19.00 19.04 79.70
119038 2023-09-18 19:55:11 Terrasse 20.60 20.49 67.80
119037 2023-09-18 19:51:44 Aussentemperatur 19.30 19.33 78.20
119036 2023-09-18 19:50:45 Bahnzimmer 20.00 20.07 77.30
119035 2023-09-18 19:27:01 Terrasse 20.80 20.65 65.60
119034 2023-09-18 19:23:22 Aussentemperatur 19.50 19.50 76.40
119033 2023-09-18 19:20:44 Bahnzimmer 20.10 20.18 77.30
119032 2023-09-18 18:58:54 Terrasse 21.10 20.94 64.10
119031 2023-09-18 18:55:02 Aussentemperatur 19.80 19.80 75.30
119030 2023-09-18 18:50:43 Bahnzimmer 20.10 20.19 77.50
119029 2023-09-18 18:30:44 Terrasse 21.50 21.36 63.50
119028 2023-09-18 18:26:40 Aussentemperatur 20.00 20.00 74.60
119027 2023-09-18 18:20:43 Bahnzimmer 20.20 20.30 77.50
119026 2023-09-18 18:02:37 Terrasse 22.00 21.89 62.70
119025 2023-09-18 17:58:21 Aussentemperatur 20.50 20.53 73.80
119024 2023-09-18 17:50:42 Bahnzimmer 20.30 20.41 77.50
119023 2023-09-18 17:34:38 Terrasse 22.20 22.05 60.20
119022 2023-09-18 17:29:56 Aussentemperatur 20.30 20.25 71.60
119021 2023-09-18 17:20:41 Bahnzimmer 20.40 20.52 77.60
119020 2023-09-18 17:06:34 Terrasse 22.60 22.41 57.40
119019 2023-09-18 17:01:36 Aussentemperatur 20.60 20.57 71.00
119018 2023-09-18 16:50:41 Bahnzimmer 20.50 20.62 77.30
119017 2023-09-18 16:38:23 Terrasse 23.20 23.09 57.90
119016 2023-09-18 16:33:15 Aussentemperatur 20.90 20.92 71.70
119015 2023-09-18 16:20:40 Bahnzimmer 20.50 20.62 77.30
119014 2023-09-18 16:10:11 Terrasse 22.10 21.95 60.50
119013 2023-09-18 16:04:51 Aussentemperatur 20.30 20.30 73.20
119012 2023-09-18 15:50:39 Bahnzimmer 20.30 20.41 77.50
119011 2023-09-18 15:42:06 Terrasse 22.10 21.95 60.50
119010 2023-09-18 15:36:30 Aussentemperatur 20.30 20.31 73.70
119009 2023-09-18 15:20:39 Bahnzimmer 20.30 20.41 77.60
119008 2023-09-18 15:13:54 Terrasse 22.20 22.08 61.60
119007 2023-09-18 15:08:08 Aussentemperatur 20.40 20.44 74.40
119006 2023-09-18 14:50:38 Bahnzimmer 20.30 20.42 78.00
119005 2023-09-18 14:45:42 Terrasse 22.40 22.32 62.30
119004 2023-09-18 14:39:43 Aussentemperatur 20.20 20.27 76.50
119003 2023-09-18 14:20:37 Bahnzimmer 20.30 20.42 78.00
119002 2023-09-18 14:17:25 Terrasse 20.50 20.33 65.90
119001 2023-09-18 14:11:22 Aussentemperatur 19.20 19.21 77.80
119000 2023-09-18 13:50:36 Bahnzimmer 20.10 20.21 78.30
118999 2023-09-18 13:49:13 Terrasse 20.10 19.90 66.50
118998 2023-09-18 13:42:58 Aussentemperatur 18.90 18.89 78.40
118997 2023-09-18 13:21:03 Terrasse 20.10 19.89 66.00
118996 2023-09-18 13:20:36 Bahnzimmer 20.00 20.10 78.30
118995 2023-09-18 13:14:37 Aussentemperatur 19.00 18.99 77.90
118994 2023-09-18 12:52:51 Terrasse 20.30 20.12 66.50
118993 2023-09-18 12:50:35 Bahnzimmer 20.00 20.11 78.60
118992 2023-09-18 12:46:15 Aussentemperatur 19.10 19.12 78.70
118991 2023-09-18 12:24:40 Terrasse 20.10 19.92 67.10
118990 2023-09-18 12:20:34 Bahnzimmer 20.10 20.22 78.70
118989 2023-09-18 12:17:52 Aussentemperatur 19.10 19.13 79.10
118988 2023-09-18 11:56:27 Terrasse 19.70 19.50 68.00
118987 2023-09-18 11:50:34 Bahnzimmer 20.10 20.23 79.00
118986 2023-09-18 11:49:28 Aussentemperatur 18.70 18.72 80.40
118985 2023-09-18 11:28:16 Terrasse 19.70 19.51 68.20
118984 2023-09-18 11:21:07 Aussentemperatur 18.70 18.76 81.70
118983 2023-09-18 11:20:33 Bahnzimmer 20.00 20.12 78.90
118982 2023-09-18 11:00:05 Terrasse 19.80 19.66 69.90
118981 2023-09-18 10:52:45 Aussentemperatur 18.80 18.89 82.60
118980 2023-09-18 10:50:33 Bahnzimmer 20.00 20.12 79.10
118979 2023-09-18 10:31:54 Terrasse 19.90 19.80 70.90
118978 2023-09-18 10:24:22 Aussentemperatur 18.60 18.69 83.40
118977 2023-09-18 10:20:32 Bahnzimmer 19.80 19.93 80.30
118976 2023-09-18 09:56:00 Aussentemperatur 18.30 18.37 83.70
118975 2023-09-18 09:50:31 Bahnzimmer 19.50 19.62 81.00
118974 2023-09-18 09:35:37 Terrasse 19.40 19.28 72.00
118973 2023-09-18 09:27:38 Aussentemperatur 18.30 18.38 84.00
118972 2023-09-18 09:20:30 Bahnzimmer 19.50 19.62 81.10
118971 2023-09-18 09:07:27 Terrasse 19.40 19.23 70.40
118970 2023-09-18 08:59:16 Aussentemperatur 18.30 18.35 82.80
118969 2023-09-18 08:50:30 Bahnzimmer 19.40 19.51 80.90
118968 2023-09-18 08:39:14 Terrasse 19.20 19.02 70.70
118967 2023-09-18 08:30:54 Aussentemperatur 18.20 18.26 83.50
118966 2023-09-18 08:20:29 Bahnzimmer 19.40 19.54 82.30
118965 2023-09-18 08:11:06 Terrasse 19.30 19.13 70.60
118964 2023-09-18 08:02:33 Aussentemperatur 18.10 18.15 83.80
118963 2023-09-18 07:50:28 Bahnzimmer 19.50 19.54 77.80
118962 2023-09-18 07:34:12 Aussentemperatur 18.20 18.26 83.70
118961 2023-09-18 07:20:27 Bahnzimmer 19.50 19.48 75.50
118960 2023-09-18 07:14:54 Terrasse 19.50 19.35 70.70
118959 2023-09-18 07:05:52 Aussentemperatur 18.20 18.26 83.60
118958 2023-09-18 06:50:27 Bahnzimmer 19.50 19.48 75.60
118957 2023-09-18 06:46:45 Terrasse 19.50 19.33 69.80
118956 2023-09-18 06:37:29 Aussentemperatur 18.20 18.25 83.10
118955 2023-09-18 06:20:26 Bahnzimmer 19.50 19.48 75.70
118954 2023-09-18 06:18:33 Terrasse 19.60 19.43 69.40
118953 2023-09-18 06:09:07 Aussentemperatur 18.20 18.24 82.90
118952 2023-09-18 05:50:25 Bahnzimmer 19.50 19.48 75.70
118951 2023-09-18 05:50:25 Terrasse 19.90 19.73 68.50
118950 2023-09-18 05:40:47 Aussentemperatur 18.40 18.45 82.60
118949 2023-09-18 05:22:16 Terrasse 20.10 19.94 67.80
118948 2023-09-18 05:20:25 Bahnzimmer 19.50 19.48 75.60
118947 2023-09-18 05:12:26 Aussentemperatur 18.50 18.55 82.20
118946 2023-09-18 04:54:06 Terrasse 20.40 20.29 68.60
118945 2023-09-18 04:50:24 Bahnzimmer 19.50 19.48 75.70
118944 2023-09-18 04:44:07 Aussentemperatur 19.00 19.07 81.00
118943 2023-09-18 04:26:05 Terrasse 20.70 20.51 64.40
118942 2023-09-18 04:20:23 Bahnzimmer 19.50 19.48 75.70
118941 2023-09-18 04:15:44 Aussentemperatur 19.10 19.11 78.40
118940 2023-09-18 03:58:43 Terrasse 20.80 20.58 63.10
118939 2023-09-18 03:50:23 Bahnzimmer 19.50 19.48 75.70
118938 2023-09-18 03:47:23 Aussentemperatur 19.10 19.10 77.90
118937 2023-09-18 03:29:30 Terrasse 20.90 20.68 62.50
118936 2023-09-18 03:20:22 Bahnzimmer 19.50 19.48 75.70
118935 2023-09-18 03:19:01 Aussentemperatur 19.10 19.10 77.80
118934 2023-09-18 03:01:35 Terrasse 20.90 20.67 62.40
118933 2023-09-18 02:50:39 Aussentemperatur 18.90 18.89 78.30
118932 2023-09-18 02:50:22 Bahnzimmer 19.50 19.48 75.70
118931 2023-09-18 02:33:19 Terrasse 21.00 20.77 61.80
118930 2023-09-18 02:22:17 Aussentemperatur 19.00 18.99 78.00
118929 2023-09-18 02:20:21 Bahnzimmer 19.50 19.48 75.70
118928 2023-09-18 02:05:09 Terrasse 21.10 20.87 61.60
118927 2023-09-18 01:53:56 Aussentemperatur 19.10 19.11 78.20
118926 2023-09-18 01:50:20 Bahnzimmer 19.50 19.48 75.70
118925 2023-09-18 01:37:31 Terrasse 21.10 20.87 61.40
118924 2023-09-18 01:25:34 Aussentemperatur 19.20 19.22 78.40
118923 2023-09-18 01:20:20 Bahnzimmer 19.50 19.48 75.70
118922 2023-09-18 01:09:10 Terrasse 21.40 21.19 61.20
118921 2023-09-18 00:57:13 Aussentemperatur 19.30 19.31 77.70
118920 2023-09-18 00:50:19 Bahnzimmer 19.50 19.48 75.80
118919 2023-09-18 00:40:59 Terrasse 21.50 21.29 60.70
118918 2023-09-18 00:28:52 Aussentemperatur 19.40 19.44 78.20
118917 2023-09-18 00:20:18 Bahnzimmer 19.50 19.48 75.80
118916 2023-09-18 00:12:56 Terrasse 21.70 21.52 61.10
118915 2023-09-18 00:00:30 Aussentemperatur 19.50 19.55 78.30
118914 2023-09-17 23:50:18 Bahnzimmer 19.50 19.48 75.80
118913 2023-09-17 23:44:47 Terrasse 21.90 21.75 61.30
118912 2023-09-17 23:32:09 Aussentemperatur 19.70 19.78 78.60
118911 2023-09-17 23:20:17 Bahnzimmer 19.50 19.49 75.90
118910 2023-09-17 23:16:37 Terrasse 21.90 21.75 61.30
118909 2023-09-17 23:03:47 Aussentemperatur 19.60 19.67 78.70
118908 2023-09-17 22:50:16 Bahnzimmer 19.50 19.49 75.90
118907 2023-09-17 22:48:27 Terrasse 22.10 21.97 61.30
118906 2023-09-17 22:35:26 Aussentemperatur 19.70 19.78 78.70
118905 2023-09-17 22:20:16 Bahnzimmer 19.50 19.49 75.90
118904 2023-09-17 22:20:16 Terrasse 22.10 21.96 61.10
118903 2023-09-17 22:07:05 Aussentemperatur 19.70 19.78 78.80
118902 2023-09-17 21:52:07 Terrasse 22.20 22.09 61.90
118901 2023-09-17 21:50:15 Bahnzimmer 19.50 19.48 75.80
118900 2023-09-17 21:38:44 Aussentemperatur 20.00 20.11 78.60
118899 2023-09-17 21:24:14 Terrasse 22.50 22.41 61.50
118898 2023-09-17 21:20:14 Bahnzimmer 19.50 19.48 75.50
118897 2023-09-17 21:10:22 Aussentemperatur 20.30 20.43 78.30
118896 2023-09-17 20:56:06 Terrasse 22.90 22.85 61.30
118895 2023-09-17 20:50:14 Bahnzimmer 19.50 19.48 75.50
118894 2023-09-17 20:42:03 Aussentemperatur 20.50 20.65 78.20
118893 2023-09-17 20:28:05 Terrasse 23.30 23.25 60.10
118892 2023-09-17 20:20:13 Bahnzimmer 19.50 19.48 75.50
118891 2023-09-17 20:13:42 Aussentemperatur 20.70 20.85 77.50
118890 2023-09-17 20:00:00 Terrasse 23.80 23.80 59.90
118889 2023-09-17 19:50:12 Bahnzimmer 19.60 19.59 75.50
118888 2023-09-17 19:45:22 Aussentemperatur 21.10 21.28 77.00
118887 2023-09-17 19:31:52 Terrasse 24.50 24.53 58.30
118886 2023-09-17 19:20:12 Bahnzimmer 19.60 19.59 75.50
118885 2023-09-17 19:17:02 Aussentemperatur 21.40 21.57 75.70
118884 2023-09-17 19:03:53 Terrasse 25.40 25.46 56.00
118883 2023-09-17 18:50:11 Bahnzimmer 19.60 19.59 75.60
118882 2023-09-17 18:48:43 Aussentemperatur 22.00 22.18 73.90
118881 2023-09-17 18:35:42 Terrasse 25.90 25.95 53.90
118880 2023-09-17 18:20:25 Aussentemperatur 22.70 22.89 71.30
118879 2023-09-17 18:20:11 Bahnzimmer 19.70 19.70 75.70
118878 2023-09-17 18:07:34 Terrasse 26.60 27.18 52.50
118877 2023-09-17 17:52:05 Aussentemperatur 23.40 23.57 68.10
118876 2023-09-17 17:50:10 Bahnzimmer 19.70 19.70 75.80
118875 2023-09-17 17:39:24 Terrasse 27.20 27.70 51.30
118874 2023-09-17 17:23:43 Aussentemperatur 23.60 23.77 67.30
118873 2023-09-17 17:20:09 Bahnzimmer 19.70 19.70 75.80
118872 2023-09-17 17:11:16 Terrasse 27.80 28.20 49.70
118871 2023-09-17 16:55:21 Aussentemperatur 23.80 24.00 67.40
118870 2023-09-17 16:50:09 Bahnzimmer 19.70 19.70 75.80
118869 2023-09-17 16:43:06 Terrasse 28.10 28.56 50.00
118868 2023-09-17 16:26:58 Aussentemperatur 23.60 23.77 67.30
118867 2023-09-17 16:20:08 Bahnzimmer 19.70 19.71 76.00
118866 2023-09-17 16:14:53 Terrasse 28.10 28.53 49.70
118865 2023-09-17 15:58:34 Aussentemperatur 23.50 23.66 67.20
118864 2023-09-17 15:50:07 Bahnzimmer 19.60 19.60 76.00
118863 2023-09-17 15:46:39 Terrasse 27.50 27.90 49.80
118862 2023-09-17 15:30:15 Aussentemperatur 23.60 23.77 67.20
118861 2023-09-17 15:20:07 Bahnzimmer 19.60 19.61 76.20
118860 2023-09-17 15:18:27 Terrasse 27.80 28.32 51.10
118859 2023-09-17 15:01:53 Aussentemperatur 23.60 23.78 67.70
118858 2023-09-17 14:50:18 Terrasse 28.00 28.49 50.50
118857 2023-09-17 14:50:06 Bahnzimmer 19.60 19.61 76.30
118856 2023-09-17 14:33:30 Aussentemperatur 23.40 23.60 69.20
118855 2023-09-17 14:22:07 Terrasse 28.00 28.52 50.80
118854 2023-09-17 14:20:05 Bahnzimmer 19.60 19.61 76.50
118853 2023-09-17 14:05:09 Aussentemperatur 23.80 24.03 68.80
118852 2023-09-17 13:54:01 Terrasse 28.60 29.06 49.10
118851 2023-09-17 13:50:05 Bahnzimmer 19.50 19.51 76.90
118850 2023-09-17 13:36:46 Aussentemperatur 23.60 23.86 70.60
118849 2023-09-17 13:26:16 Terrasse 30.00 30.96 49.40
118848 2023-09-17 13:20:04 Bahnzimmer 19.50 19.52 77.10
118847 2023-09-17 13:08:23 Aussentemperatur 23.60 23.88 71.50
118846 2023-09-17 12:58:01 Terrasse 30.60 31.74 48.70
118845 2023-09-17 12:50:03 Bahnzimmer 19.50 19.52 77.20
118844 2023-09-17 12:39:54 Aussentemperatur 22.30 22.60 77.20
118843 2023-09-17 12:29:07 Terrasse 25.30 25.36 56.30
118842 2023-09-17 12:20:03 Bahnzimmer 19.50 19.53 77.40
118841 2023-09-17 12:11:35 Aussentemperatur 20.90 21.19 82.10
118840 2023-09-17 12:00:49 Terrasse 23.40 23.44 62.80
118839 2023-09-17 11:50:02 Bahnzimmer 19.60 19.68 79.00
118838 2023-09-17 11:43:07 Aussentemperatur 19.50 19.70 84.10
118837 2023-09-17 11:32:31 Terrasse 22.30 22.28 65.00
118836 2023-09-17 11:20:01 Bahnzimmer 24.00 23.76 50.00
118835 2023-09-17 11:14:42 Aussentemperatur 19.00 19.17 85.00
118834 2023-09-17 11:04:13 Terrasse 21.30 21.26 67.80
118833 2023-09-17 10:58:44 Bahnzimmer 19.60 19.72 80.70
118832 2023-09-17 10:46:20 Aussentemperatur 18.80 18.94 84.50
118831 2023-09-17 10:35:58 Terrasse 20.60 20.48 67.60
118830 2023-09-17 10:28:43 Bahnzimmer 19.60 19.71 80.20
118829 2023-09-17 10:17:56 Aussentemperatur 18.50 18.64 85.50
118828 2023-09-17 10:07:43 Terrasse 20.00 19.91 71.00
118827 2023-09-17 09:58:42 Bahnzimmer 19.30 19.23 74.50
118826 2023-09-17 09:49:32 Aussentemperatur 18.00 18.12 86.70
118825 2023-09-17 09:39:42 Terrasse 19.50 19.39 72.10
118824 2023-09-17 09:28:42 Bahnzimmer 19.30 19.23 74.50
118823 2023-09-17 09:21:08 Aussentemperatur 17.60 17.69 87.00
118822 2023-09-17 09:11:26 Terrasse 18.90 18.76 73.40
118821 2023-09-17 08:58:41 Bahnzimmer 19.30 19.23 74.50
118820 2023-09-17 08:52:47 Aussentemperatur 17.60 17.68 86.90
118819 2023-09-17 08:43:37 Terrasse 18.80 18.65 73.50
118818 2023-09-17 08:28:40 Bahnzimmer 19.30 19.23 74.60
118817 2023-09-17 08:24:25 Aussentemperatur 17.50 17.56 86.50
118816 2023-09-17 08:15:26 Terrasse 18.60 18.42 73.10
118815 2023-09-17 07:58:40 Bahnzimmer 19.30 19.23 74.60
118814 2023-09-17 07:56:03 Aussentemperatur 17.40 17.44 85.80
118813 2023-09-17 07:47:50 Terrasse 18.40 18.17 71.90
118812 2023-09-17 07:28:39 Bahnzimmer 19.30 19.23 74.60
118811 2023-09-17 07:27:41 Aussentemperatur 17.50 17.53 85.20
118810 2023-09-17 07:19:44 Terrasse 18.50 18.26 70.90
118809 2023-09-17 06:59:21 Aussentemperatur 17.50 17.52 85.00
118808 2023-09-17 06:58:39 Bahnzimmer 19.30 19.23 74.40
118807 2023-09-17 06:52:01 Terrasse 18.60 18.35 70.10
118806 2023-09-17 06:31:00 Aussentemperatur 17.50 17.51 84.50
118805 2023-09-17 06:28:38 Bahnzimmer 19.30 19.23 74.50
118804 2023-09-17 06:23:38 Terrasse 18.70 18.45 69.70
118803 2023-09-17 06:02:37 Aussentemperatur 17.50 17.51 84.40
118802 2023-09-17 05:58:37 Bahnzimmer 19.30 19.23 74.40
118801 2023-09-17 05:55:43 Terrasse 18.70 18.43 69.00
118800 2023-09-17 05:34:16 Aussentemperatur 17.50 17.51 84.40
118799 2023-09-17 05:28:37 Bahnzimmer 19.30 19.23 74.40
118798 2023-09-17 05:27:33 Terrasse 18.90 18.64 68.90
118797 2023-09-17 05:05:53 Aussentemperatur 17.50 17.51 84.30
118796 2023-09-17 04:59:29 Terrasse 18.90 18.62 67.90
118795 2023-09-17 04:58:36 Bahnzimmer 19.40 19.34 74.50
118794 2023-09-17 04:37:31 Aussentemperatur 17.50 17.51 84.40
118793 2023-09-17 04:31:22 Terrasse 18.90 18.63 68.30
118792 2023-09-17 04:28:35 Bahnzimmer 19.30 19.23 74.30
118791 2023-09-17 04:09:11 Aussentemperatur 17.60 17.63 84.80
118790 2023-09-17 04:03:22 Terrasse 19.00 18.72 67.60
118789 2023-09-17 03:58:35 Bahnzimmer 19.30 19.23 74.30
118788 2023-09-17 03:40:50 Aussentemperatur 17.70 17.73 84.30
118787 2023-09-17 03:35:26 Terrasse 19.30 19.00 65.60
118786 2023-09-17 03:28:34 Bahnzimmer 19.40 19.32 73.90
118785 2023-09-17 03:12:29 Aussentemperatur 17.70 17.74 84.70
118784 2023-09-17 03:07:17 Terrasse 19.30 19.05 67.50
118783 2023-09-17 02:58:33 Bahnzimmer 19.30 19.22 74.00
118782 2023-09-17 02:44:08 Aussentemperatur 17.80 17.85 85.00
118781 2023-09-17 02:39:13 Terrasse 19.50 19.28 68.00
118780 2023-09-17 02:28:33 Bahnzimmer 19.40 19.32 73.90
118779 2023-09-17 02:15:46 Aussentemperatur 17.90 17.97 85.20
118778 2023-09-17 02:11:13 Terrasse 19.70 19.48 67.20
118777 2023-09-17 01:58:32 Bahnzimmer 19.40 19.32 73.80
118776 2023-09-17 01:47:25 Aussentemperatur 18.00 18.09 85.60
118775 2023-09-17 01:43:19 Terrasse 19.90 19.72 68.00
118774 2023-09-17 01:28:31 Bahnzimmer 19.40 19.32 73.80
118773 2023-09-17 01:19:04 Aussentemperatur 18.10 18.21 85.80
118772 2023-09-17 01:15:19 Terrasse 20.00 19.83 67.80
118771 2023-09-17 00:58:31 Bahnzimmer 19.40 19.32 73.80
118770 2023-09-17 00:50:43 Aussentemperatur 18.30 18.43 85.90
118769 2023-09-17 00:47:29 Terrasse 20.20 20.05 67.90
118768 2023-09-17 00:28:30 Bahnzimmer 19.40 19.32 73.70
118767 2023-09-17 00:22:23 Aussentemperatur 18.60 18.77 86.50
118766 2023-09-17 00:19:32 Terrasse 20.30 20.19 69.20
118765 2023-09-16 23:58:29 Bahnzimmer 19.40 19.32 73.60
118764 2023-09-16 23:54:02 Aussentemperatur 18.60 18.77 86.50
118763 2023-09-16 23:51:32 Terrasse 20.30 20.23 70.80
118762 2023-09-16 23:28:29 Bahnzimmer 19.40 19.32 73.60
118761 2023-09-16 23:25:42 Aussentemperatur 18.90 19.08 85.70
118760 2023-09-16 23:23:09 Terrasse 20.60 20.55 70.10
118759 2023-09-16 22:58:28 Bahnzimmer 19.40 19.31 73.50
118758 2023-09-16 22:57:22 Aussentemperatur 19.10 19.27 84.60
118757 2023-09-16 22:55:01 Terrasse 21.00 20.99 70.20
118756 2023-09-16 22:29:00 Aussentemperatur 19.10 19.21 82.10
118755 2023-09-16 22:28:28 Bahnzimmer 19.40 19.31 73.50
118754 2023-09-16 22:26:53 Terrasse 21.40 21.36 67.60
118753 2023-09-16 22:00:38 Aussentemperatur 19.30 19.36 79.30
118752 2023-09-16 21:58:46 Terrasse 21.80 21.64 61.60
118751 2023-09-16 21:58:27 Bahnzimmer 19.40 19.31 73.50
118750 2023-09-16 21:32:17 Aussentemperatur 19.50 19.56 78.80
118749 2023-09-16 21:30:36 Terrasse 22.00 21.82 60.10
118748 2023-09-16 21:28:26 Bahnzimmer 19.40 19.31 73.50
118747 2023-09-16 21:03:55 Aussentemperatur 19.50 19.56 78.50
118746 2023-09-16 21:02:27 Terrasse 22.20 22.03 59.70
118745 2023-09-16 20:58:26 Bahnzimmer 19.40 19.31 73.40
118744 2023-09-16 20:35:34 Aussentemperatur 19.70 19.76 78.10
118743 2023-09-16 20:34:18 Terrasse 22.30 22.17 60.80
118742 2023-09-16 20:28:25 Bahnzimmer 19.40 19.31 73.30
118741 2023-09-16 20:07:13 Aussentemperatur 20.00 20.06 76.70
118740 2023-09-16 20:06:10 Terrasse 22.80 22.68 59.10
118739 2023-09-16 19:58:24 Bahnzimmer 19.50 19.42 73.30
118738 2023-09-16 19:38:53 Aussentemperatur 20.30 20.36 75.60
118737 2023-09-16 19:38:01 Terrasse 23.30 23.20 57.90
118736 2023-09-16 19:28:24 Bahnzimmer 19.50 19.42 73.30
118735 2023-09-16 19:10:33 Aussentemperatur 20.50 20.54 74.20
118734 2023-09-16 19:09:59 Terrasse 23.60 23.50 57.00
118733 2023-09-16 18:58:23 Bahnzimmer 19.50 19.42 73.20
118732 2023-09-16 18:42:11 Aussentemperatur 20.80 20.88 74.40
118731 2023-09-16 18:41:48 Terrasse 24.00 23.94 57.00
118730 2023-09-16 18:28:22 Bahnzimmer 19.50 19.42 73.20
118729 2023-09-16 18:13:51 Aussentemperatur 21.20 21.27 72.40
118728 2023-09-16 18:13:43 Terrasse 24.80 24.75 54.00
118727 2023-09-16 17:58:22 Bahnzimmer 19.50 19.42 73.20
118726 2023-09-16 17:45:35 Terrasse 25.40 25.30 50.10
118725 2023-09-16 17:45:33 Aussentemperatur 21.60 21.60 68.20
118724 2023-09-16 17:28:21 Bahnzimmer 19.50 19.42 73.20
118723 2023-09-16 17:17:27 Terrasse 26.10 26.03 48.50
118722 2023-09-16 17:17:14 Aussentemperatur 22.20 22.13 63.20
118721 2023-09-16 16:58:20 Bahnzimmer 19.50 19.41 73.10
118720 2023-09-16 16:49:20 Terrasse 27.30 27.51 47.00
118719 2023-09-16 16:48:55 Aussentemperatur 22.90 22.90 63.40
118718 2023-09-16 16:28:19 Bahnzimmer 19.50 19.41 73.00
118717 2023-09-16 16:21:11 Terrasse 28.00 28.16 46.60
118716 2023-09-16 16:20:32 Aussentemperatur 22.90 22.94 65.00
118715 2023-09-16 15:58:18 Bahnzimmer 19.50 19.42 73.20
118714 2023-09-16 15:53:02 Terrasse 28.60 28.66 45.10
118713 2023-09-16 15:52:10 Aussentemperatur 23.10 23.14 64.00
118712 2023-09-16 15:28:18 Bahnzimmer 19.50 19.42 73.30
118711 2023-09-16 15:24:52 Terrasse 28.80 28.92 45.50
118710 2023-09-16 15:23:48 Aussentemperatur 23.00 23.04 64.70
118709 2023-09-16 14:58:17 Bahnzimmer 19.50 19.42 73.30
118708 2023-09-16 14:56:40 Terrasse 28.10 28.44 48.70
118707 2023-09-16 14:55:24 Aussentemperatur 22.60 22.65 66.60
118706 2023-09-16 14:28:34 Terrasse 28.10 28.42 48.40
118705 2023-09-16 14:28:17 Bahnzimmer 19.50 19.42 73.30
118704 2023-09-16 14:27:03 Aussentemperatur 22.80 22.86 65.90
118703 2023-09-16 14:00:29 Terrasse 28.60 28.78 46.40
118702 2023-09-16 13:58:38 Aussentemperatur 22.80 22.87 66.50
118701 2023-09-16 13:58:16 Bahnzimmer 19.50 19.42 73.30
118700 2023-09-16 13:32:39 Terrasse 30.50 30.91 44.50
118699 2023-09-16 13:30:15 Aussentemperatur 22.80 22.88 66.80
118698 2023-09-16 13:28:15 Bahnzimmer 19.50 19.42 73.50
118697 2023-09-16 13:04:27 Terrasse 32.50 33.76 43.60
118696 2023-09-16 13:01:52 Aussentemperatur 22.80 22.91 67.90
118695 2023-09-16 12:58:15 Bahnzimmer 19.40 19.30 73.00
118694 2023-09-16 12:35:35 Terrasse 27.90 28.22 48.60
118693 2023-09-16 12:33:20 Aussentemperatur 21.50 21.54 70.30
118692 2023-09-16 12:28:14 Bahnzimmer 19.40 19.29 72.40
118691 2023-09-16 12:06:58 Terrasse 22.20 22.00 58.20
118690 2023-09-16 12:04:25 Aussentemperatur 18.70 18.60 75.70
118689 2023-09-16 11:58:13 Bahnzimmer 19.20 19.08 72.80
118688 2023-09-16 11:38:41 Terrasse 21.10 20.86 61.20
118687 2023-09-16 11:36:02 Aussentemperatur 18.10 17.93 75.40
118686 2023-09-16 11:28:13 Bahnzimmer 19.10 18.96 72.60
118685 2023-09-16 11:10:24 Terrasse 20.20 19.88 61.60
118684 2023-09-16 11:07:38 Aussentemperatur 17.60 17.37 75.00
118683 2023-09-16 10:58:12 Bahnzimmer 19.10 18.96 72.40
118682 2023-09-16 10:42:09 Terrasse 19.20 18.79 61.90
118681 2023-09-16 10:39:16 Aussentemperatur 17.30 17.04 74.80
118680 2023-09-16 10:28:11 Bahnzimmer 19.10 18.95 72.30
118679 2023-09-16 10:14:30 Terrasse 18.50 18.02 62.00
118678 2023-09-16 10:10:52 Aussentemperatur 16.80 16.49 74.90
118677 2023-09-16 09:58:11 Bahnzimmer 19.00 18.82 71.30
118676 2023-09-16 09:45:46 Terrasse 17.80 17.30 63.60
118675 2023-09-16 09:42:29 Aussentemperatur 16.40 16.06 75.20
118674 2023-09-16 09:28:10 Bahnzimmer 18.80 18.58 70.70
118673 2023-09-16 09:18:21 Terrasse 17.30 16.73 63.10
118672 2023-09-16 09:14:08 Aussentemperatur 16.40 16.03 74.10
118671 2023-09-16 08:58:09 Bahnzimmer 19.00 18.81 71.00
118670 2023-09-16 08:49:36 Terrasse 16.90 16.32 64.30
118669 2023-09-16 08:45:45 Aussentemperatur 16.10 15.72 74.80
118668 2023-09-16 08:28:09 Bahnzimmer 19.10 19.00 74.10
118667 2023-09-16 08:22:32 Terrasse 16.50 15.90 64.90
118666 2023-09-16 08:17:23 Aussentemperatur 15.70 15.27 74.60
118665 2023-09-16 07:58:08 Bahnzimmer 19.10 19.00 74.00
118664 2023-09-16 07:52:36 Terrasse 16.30 15.65 63.80
118663 2023-09-16 07:49:01 Aussentemperatur 15.60 15.15 74.00
118662 2023-09-16 07:28:07 Bahnzimmer 19.10 19.00 74.00
118661 2023-09-16 07:24:23 Terrasse 16.20 15.53 63.50
118660 2023-09-16 07:20:40 Aussentemperatur 15.60 15.14 73.80
118659 2023-09-16 06:58:07 Bahnzimmer 19.10 19.00 74.00
118658 2023-09-16 06:56:13 Terrasse 16.20 15.52 63.00
118657 2023-09-16 06:52:20 Aussentemperatur 15.60 15.13 73.40
118656 2023-09-16 06:28:06 Bahnzimmer 19.10 19.00 74.10
118655 2023-09-16 06:28:05 Terrasse 16.50 15.84 62.50
118654 2023-09-16 06:24:00 Aussentemperatur 15.80 15.34 72.90
118653 2023-09-16 05:59:55 Terrasse 16.80 16.15 61.70
118652 2023-09-16 05:58:05 Bahnzimmer 19.20 19.11 74.10
118651 2023-09-16 05:55:39 Aussentemperatur 16.00 15.55 72.60
118650 2023-09-16 05:31:46 Terrasse 16.90 16.24 61.20
118649 2023-09-16 05:28:05 Bahnzimmer 19.20 19.11 74.00
118648 2023-09-16 05:27:19 Aussentemperatur 16.00 15.54 72.20
118647 2023-09-16 05:03:37 Terrasse 17.00 16.34 60.80
118646 2023-09-16 04:58:58 Aussentemperatur 16.20 15.74 71.50
118645 2023-09-16 04:58:04 Bahnzimmer 19.20 19.10 73.90
118644 2023-09-16 04:35:26 Terrasse 17.40 16.74 59.30
118643 2023-09-16 04:30:38 Aussentemperatur 16.40 15.95 71.10
118642 2023-09-16 04:28:04 Bahnzimmer 19.30 19.21 73.90
118641 2023-09-16 04:07:16 Terrasse 17.50 16.84 58.70
118640 2023-09-16 04:02:18 Aussentemperatur 16.60 16.15 70.20
118639 2023-09-16 03:58:03 Bahnzimmer 19.30 19.22 74.00
118638 2023-09-16 03:39:07 Terrasse 17.60 16.94 58.20
118637 2023-09-16 03:33:56 Aussentemperatur 16.70 16.26 70.40
118636 2023-09-16 03:28:02 Bahnzimmer 19.30 19.22 74.00
118635 2023-09-16 03:10:58 Terrasse 17.90 17.25 57.80
118634 2023-09-16 03:05:36 Aussentemperatur 16.90 16.46 69.40
118633 2023-09-16 02:58:02 Bahnzimmer 19.30 19.21 73.90
118632 2023-09-16 02:42:48 Terrasse 18.00 17.36 57.70
118631 2023-09-16 02:37:15 Aussentemperatur 16.90 16.48 70.30
118630 2023-09-16 02:28:01 Bahnzimmer 19.30 19.22 74.00
118629 2023-09-16 02:14:37 Terrasse 18.10 17.50 58.70
118628 2023-09-16 02:08:55 Aussentemperatur 17.00 16.62 71.30
118627 2023-09-16 01:58:00 Bahnzimmer 19.30 19.21 73.90
118626 2023-09-16 01:46:28 Terrasse 18.20 17.61 58.90
118625 2023-09-16 01:40:34 Aussentemperatur 17.20 16.84 71.40
118624 2023-09-16 01:28:00 Bahnzimmer 19.40 19.33 74.00
118623 2023-09-16 01:18:19 Terrasse 18.50 17.94 58.60
118622 2023-09-16 01:12:14 Aussentemperatur 17.20 16.84 71.40
118621 2023-09-16 00:57:59 Bahnzimmer 19.40 19.32 73.90
118620 2023-09-16 00:50:08 Terrasse 18.70 18.15 58.50
118619 2023-09-16 00:43:53 Aussentemperatur 17.30 16.95 71.40
118618 2023-09-16 00:27:58 Bahnzimmer 19.40 19.33 74.00
118617 2023-09-16 00:21:58 Terrasse 18.70 18.17 59.10
118616 2023-09-16 00:15:33 Aussentemperatur 17.30 16.97 72.30
118615 2023-09-15 23:57:58 Bahnzimmer 19.40 19.33 74.00
118614 2023-09-15 23:53:48 Terrasse 18.70 18.19 59.80
118613 2023-09-15 23:47:11 Aussentemperatur 17.30 16.97 72.20
118612 2023-09-15 23:27:57 Bahnzimmer 19.40 19.33 74.00
118611 2023-09-15 23:25:38 Terrasse 19.00 18.50 59.30
118610 2023-09-15 23:18:50 Aussentemperatur 17.50 17.19 72.20
118609 2023-09-15 22:57:56 Bahnzimmer 19.50 19.44 74.10
118608 2023-09-15 22:57:27 Terrasse 19.20 18.71 58.70
118607 2023-09-15 22:50:28 Aussentemperatur 17.50 17.17 71.60
118606 2023-09-15 22:29:15 Terrasse 19.20 18.71 58.60
118605 2023-09-15 22:27:56 Bahnzimmer 19.50 19.44 74.10
118604 2023-09-15 22:22:07 Aussentemperatur 17.50 17.16 71.10
118603 2023-09-15 22:01:05 Terrasse 19.30 18.79 57.80
118602 2023-09-15 21:57:55 Bahnzimmer 19.50 19.43 73.90
118601 2023-09-15 21:53:46 Aussentemperatur 17.50 17.13 70.00
118600 2023-09-15 21:33:05 Terrasse 19.50 18.96 55.80
118599 2023-09-15 21:27:54 Bahnzimmer 19.50 19.43 73.70
118598 2023-09-15 21:25:25 Aussentemperatur 17.80 17.42 68.50
118597 2023-09-15 21:04:52 Terrasse 19.70 19.13 53.80
118596 2023-09-15 20:57:54 Bahnzimmer 19.50 19.42 73.50
118595 2023-09-15 20:57:04 Aussentemperatur 17.80 17.40 67.60
118594 2023-09-15 20:36:44 Terrasse 20.20 19.65 52.50
118593 2023-09-15 20:28:44 Aussentemperatur 18.00 17.63 68.00
118592 2023-09-15 20:27:53 Bahnzimmer 19.60 19.53 73.40
118591 2023-09-15 20:08:37 Terrasse 20.50 19.99 53.20
118590 2023-09-15 20:00:23 Aussentemperatur 18.20 17.86 68.50
118589 2023-09-15 19:57:52 Bahnzimmer 19.70 19.64 73.40
118588 2023-09-15 19:40:30 Terrasse 21.00 20.55 53.60
118587 2023-09-15 19:32:04 Aussentemperatur 18.70 18.40 68.00
118586 2023-09-15 19:27:52 Bahnzimmer 19.70 19.64 73.30
118585 2023-09-15 19:12:24 Terrasse 21.60 21.19 52.80
118584 2023-09-15 19:03:44 Aussentemperatur 19.10 18.80 66.40
118583 2023-09-15 18:57:51 Bahnzimmer 19.70 19.64 73.40
118582 2023-09-15 18:44:17 Terrasse 22.20 21.82 51.40
118581 2023-09-15 18:35:27 Aussentemperatur 19.90 19.62 64.00
118580 2023-09-15 18:27:50 Bahnzimmer 19.80 19.75 73.30
118579 2023-09-15 18:16:25 Terrasse 22.90 22.56 50.40
118578 2023-09-15 18:07:08 Aussentemperatur 20.50 20.24 62.60
118577 2023-09-15 17:57:50 Bahnzimmer 19.90 19.86 73.30
118576 2023-09-15 17:48:24 Terrasse 23.60 23.31 49.40
118575 2023-09-15 17:38:48 Aussentemperatur 20.60 20.34 62.30
118574 2023-09-15 17:27:49 Bahnzimmer 20.00 19.97 73.30
118573 2023-09-15 17:20:14 Terrasse 24.40 24.14 47.70
118572 2023-09-15 17:10:27 Aussentemperatur 20.70 20.46 62.60
118571 2023-09-15 16:57:48 Bahnzimmer 20.20 20.18 73.10
118570 2023-09-15 16:52:05 Terrasse 24.60 24.34 47.00
118569 2023-09-15 16:42:05 Aussentemperatur 20.90 20.70 63.50
118568 2023-09-15 16:27:48 Bahnzimmer 20.30 20.29 72.80
118567 2023-09-15 16:23:58 Terrasse 25.60 25.41 45.60
118566 2023-09-15 16:13:43 Aussentemperatur 21.00 20.78 62.20
118565 2023-09-15 15:57:47 Bahnzimmer 20.10 20.07 72.90
118564 2023-09-15 15:55:49 Terrasse 26.00 25.84 45.30
118563 2023-09-15 15:45:21 Aussentemperatur 21.00 20.76 61.60
118562 2023-09-15 15:27:47 Bahnzimmer 20.10 20.06 72.70
118561 2023-09-15 15:27:37 Terrasse 25.80 25.67 47.30
118560 2023-09-15 15:16:58 Aussentemperatur 20.80 20.57 62.60
118559 2023-09-15 14:59:28 Terrasse 25.60 25.52 50.00
118558 2023-09-15 14:57:46 Bahnzimmer 20.00 19.94 72.00
118557 2023-09-15 14:48:35 Aussentemperatur 20.60 20.35 62.60
118556 2023-09-15 14:31:17 Terrasse 25.50 25.35 47.80
118555 2023-09-15 14:27:45 Bahnzimmer 20.00 19.94 72.00
118554 2023-09-15 14:20:12 Aussentemperatur 20.60 20.38 63.70
118553 2023-09-15 14:03:05 Terrasse 25.00 24.84 49.30
118552 2023-09-15 13:57:45 Bahnzimmer 19.70 19.63 72.80
118551 2023-09-15 13:51:49 Aussentemperatur 20.60 20.39 64.30
118550 2023-09-15 13:35:05 Terrasse 25.50 25.40 49.50
118549 2023-09-15 13:27:44 Bahnzimmer 19.60 19.51 72.40
118548 2023-09-15 13:23:27 Aussentemperatur 20.50 20.31 65.20
118547 2023-09-15 13:06:58 Terrasse 27.00 27.23 46.90
118546 2023-09-15 12:57:43 Bahnzimmer 19.70 19.63 72.80
118545 2023-09-15 12:55:08 Aussentemperatur 20.70 20.60 68.00
118544 2023-09-15 12:38:24 Terrasse 25.00 24.87 50.50
118543 2023-09-15 12:27:43 Bahnzimmer 19.60 19.52 72.80
118542 2023-09-15 12:26:41 Aussentemperatur 19.50 19.39 72.00
118541 2023-09-15 12:09:51 Terrasse 20.00 19.66 61.60
118540 2023-09-15 11:57:49 Aussentemperatur 16.70 16.45 77.70
118539 2023-09-15 11:57:42 Bahnzimmer 19.50 19.40 72.50
118538 2023-09-15 11:41:51 Terrasse 18.80 18.41 64.30
118537 2023-09-15 11:29:26 Aussentemperatur 16.10 15.81 78.20
118536 2023-09-15 11:27:41 Bahnzimmer 19.50 19.40 72.50
118535 2023-09-15 11:13:47 Terrasse 17.60 17.12 65.20
118534 2023-09-15 11:01:01 Aussentemperatur 15.50 15.19 79.70
118533 2023-09-15 10:57:41 Bahnzimmer 19.40 19.29 72.40
118532 2023-09-15 10:45:34 Terrasse 16.60 16.10 68.20
118531 2023-09-15 10:32:39 Aussentemperatur 15.20 14.84 79.20
118530 2023-09-15 10:27:40 Bahnzimmer 19.30 19.15 71.60
118529 2023-09-15 10:17:39 Terrasse 15.60 15.04 69.80
118528 2023-09-15 10:04:15 Aussentemperatur 14.60 14.21 80.10
118527 2023-09-15 09:57:39 Bahnzimmer 19.30 19.18 72.60
118526 2023-09-15 09:49:40 Terrasse 14.70 14.10 71.90
118525 2023-09-15 09:35:53 Aussentemperatur 14.30 13.87 80.00
118524 2023-09-15 09:27:39 Bahnzimmer 19.20 19.08 73.00
118523 2023-09-15 09:21:31 Terrasse 14.00 13.36 72.80
118522 2023-09-15 09:07:31 Aussentemperatur 14.00 13.53 79.40
118521 2023-09-15 08:57:38 Bahnzimmer 19.20 19.09 73.20
118520 2023-09-15 08:53:45 Terrasse 13.50 12.81 73.10
118519 2023-09-15 08:39:09 Aussentemperatur 13.60 13.09 79.30
118518 2023-09-15 08:27:37 Bahnzimmer 19.10 18.98 73.50
118517 2023-09-15 08:25:20 Terrasse 13.00 12.27 73.50
118516 2023-09-15 08:10:46 Aussentemperatur 13.10 12.51 78.40
118515 2023-09-15 07:57:34 Bahnzimmer 18.80 18.65 73.30
118514 2023-09-15 07:57:12 Terrasse 12.50 11.70 72.50
118513 2023-09-15 07:42:24 Aussentemperatur 12.80 12.16 77.70
118512 2023-09-15 07:29:02 Terrasse 12.10 11.22 71.10
118511 2023-09-15 07:27:34 Bahnzimmer 18.80 18.64 73.00
118510 2023-09-15 07:14:03 Aussentemperatur 12.80 12.15 77.00
118509 2023-09-15 07:00:57 Terrasse 12.20 11.31 70.30
118508 2023-09-15 06:57:32 Bahnzimmer 18.80 18.64 73.00
118507 2023-09-15 06:45:43 Aussentemperatur 12.80 12.13 76.50
118506 2023-09-15 06:32:48 Terrasse 12.30 11.41 70.00
118505 2023-09-15 06:27:32 Bahnzimmer 18.80 18.64 72.90
118504 2023-09-15 06:17:24 Aussentemperatur 12.90 12.23 76.10
118503 2023-09-15 06:05:11 Terrasse 12.20 11.31 70.20
118502 2023-09-15 05:57:30 Bahnzimmer 18.80 18.64 72.80
118501 2023-09-15 05:49:03 Aussentemperatur 12.70 12.00 75.60
118500 2023-09-15 05:37:46 Terrasse 12.30 11.39 69.10
118499 2023-09-15 05:27:29 Bahnzimmer 18.80 18.63 72.70
118498 2023-09-15 05:20:44 Aussentemperatur 12.70 12.01 75.90
118497 2023-09-15 05:09:52 Terrasse 12.40 11.51 69.40
118496 2023-09-15 04:57:29 Bahnzimmer 18.90 18.74 72.70
118495 2023-09-15 04:52:23 Aussentemperatur 12.60 11.89 75.70
118494 2023-09-15 04:42:08 Terrasse 12.30 11.37 68.50
118493 2023-09-15 04:27:28 Bahnzimmer 18.90 18.74 72.50
118492 2023-09-15 04:24:03 Aussentemperatur 12.70 11.97 74.50
118491 2023-09-15 04:14:07 Terrasse 12.50 11.57 67.50
118490 2023-09-15 03:57:28 Bahnzimmer 18.90 18.74 72.40
118489 2023-09-15 03:55:43 Aussentemperatur 13.10 12.40 73.90
118488 2023-09-15 03:46:19 Terrasse 12.70 11.78 67.10
118487 2023-09-15 03:27:27 Bahnzimmer 19.00 18.84 72.20
118486 2023-09-15 03:27:25 Aussentemperatur 13.30 12.60 73.50
118485 2023-09-15 02:59:05 Aussentemperatur 13.40 12.71 73.20
118484 2023-09-15 02:57:26 Bahnzimmer 19.00 18.84 72.20
118483 2023-09-15 02:47:41 Terrasse 13.20 12.31 66.40
118482 2023-09-15 02:30:46 Aussentemperatur 13.70 13.02 72.50
118481 2023-09-15 02:27:26 Bahnzimmer 19.10 18.95 72.10
118480 2023-09-15 02:19:41 Terrasse 13.70 12.82 64.80
118479 2023-09-15 02:02:25 Aussentemperatur 13.90 13.24 72.40
118478 2023-09-15 01:57:24 Bahnzimmer 19.10 18.94 71.90
118477 2023-09-15 01:52:08 Terrasse 13.90 13.02 64.00
118476 2023-09-15 01:34:04 Aussentemperatur 14.00 13.34 72.00
118475 2023-09-15 01:27:23 Bahnzimmer 19.10 18.94 71.90
118474 2023-09-15 01:24:26 Terrasse 14.10 13.22 63.50
118473 2023-09-15 01:05:44 Aussentemperatur 14.00 13.33 71.70
118472 2023-09-15 00:57:23 Bahnzimmer 19.20 19.05 71.70
118471 2023-09-15 00:56:22 Terrasse 14.00 13.13 64.00
118470 2023-09-15 00:37:24 Aussentemperatur 14.20 13.55 71.70
118469 2023-09-15 00:28:19 Terrasse 14.00 13.13 64.10
118468 2023-09-15 00:27:22 Bahnzimmer 19.20 19.04 71.60
118467 2023-09-15 00:09:04 Aussentemperatur 14.20 13.54 71.50
118466 2023-09-15 00:00:44 Terrasse 14.20 13.33 63.40
118465 2023-09-14 23:57:21 Bahnzimmer 19.20 19.04 71.40
118464 2023-09-14 23:40:44 Aussentemperatur 14.40 13.74 70.70
118463 2023-09-14 23:32:39 Terrasse 14.60 13.72 61.50
118462 2023-09-14 23:27:21 Bahnzimmer 19.30 19.15 71.40
118461 2023-09-14 23:12:24 Aussentemperatur 14.60 13.94 70.00
118460 2023-09-14 23:05:14 Terrasse 15.00 14.13 60.30
118459 2023-09-14 22:57:20 Bahnzimmer 19.30 19.14 71.20
118458 2023-09-14 22:44:03 Aussentemperatur 14.70 14.05 69.80
118457 2023-09-14 22:37:11 Terrasse 14.80 13.92 60.80
118456 2023-09-14 22:27:19 Bahnzimmer 19.40 19.25 70.90
118455 2023-09-14 22:15:43 Aussentemperatur 14.60 13.95 70.40
118454 2023-09-14 22:08:54 Terrasse 14.80 13.95 61.80
118453 2023-09-14 21:57:19 Bahnzimmer 19.40 19.24 70.80
118452 2023-09-14 21:47:24 Aussentemperatur 14.80 14.15 69.60
118451 2023-09-14 21:40:51 Terrasse 15.20 14.34 60.10
118450 2023-09-14 21:27:18 Bahnzimmer 19.50 19.35 70.50
118449 2023-09-14 21:19:04 Aussentemperatur 15.10 14.46 68.70
118448 2023-09-14 21:12:48 Terrasse 15.50 14.66 59.40
118447 2023-09-14 20:57:17 Bahnzimmer 19.60 19.45 70.30
118446 2023-09-14 20:50:44 Aussentemperatur 15.20 14.57 68.60
118445 2023-09-14 20:44:52 Terrasse 15.60 14.76 59.20
118444 2023-09-14 20:27:17 Bahnzimmer 19.70 19.56 70.20
118443 2023-09-14 20:22:27 Aussentemperatur 15.60 15.00 68.40
118442 2023-09-14 20:17:07 Terrasse 16.20 15.41 58.60
118441 2023-09-14 19:57:16 Bahnzimmer 19.50 19.33 69.80
118440 2023-09-14 19:54:08 Aussentemperatur 16.10 15.53 67.60
118439 2023-09-14 19:49:46 Terrasse 17.00 16.24 56.70
118438 2023-09-14 19:27:15 Bahnzimmer 19.60 19.42 69.00
118437 2023-09-14 19:25:48 Aussentemperatur 16.50 15.96 67.20
118436 2023-09-14 19:21:31 Terrasse 17.50 16.75 55.50
118435 2023-09-14 18:57:28 Aussentemperatur 16.90 16.39 66.70
118434 2023-09-14 18:57:15 Bahnzimmer 19.70 19.51 68.20
118433 2023-09-14 18:53:49 Terrasse 18.10 17.41 55.30
118432 2023-09-14 18:29:09 Aussentemperatur 17.20 16.71 66.50
118431 2023-09-14 18:27:14 Bahnzimmer 19.70 19.49 67.70
118430 2023-09-14 18:25:53 Terrasse 18.60 17.94 54.40
118429 2023-09-14 18:00:49 Aussentemperatur 17.50 17.01 65.40
118428 2023-09-14 17:58:05 Terrasse 19.20 18.57 53.50
118427 2023-09-14 17:57:13 Bahnzimmer 19.70 19.47 66.80
118426 2023-09-14 17:32:29 Aussentemperatur 17.80 17.31 64.00
118425 2023-09-14 17:30:03 Terrasse 19.80 19.20 52.30
118424 2023-09-14 17:27:13 Bahnzimmer 19.50 19.17 63.90
118423 2023-09-14 17:04:08 Aussentemperatur 18.00 17.54 64.40
118422 2023-09-14 17:02:05 Terrasse 20.00 19.41 52.00
118421 2023-09-14 16:57:12 Bahnzimmer 19.50 19.16 63.40
118420 2023-09-14 16:35:48 Aussentemperatur 18.10 17.66 64.90
118419 2023-09-14 16:33:50 Terrasse 20.10 19.50 51.20
118418 2023-09-14 16:27:11 Bahnzimmer 19.70 19.42 65.00
118417 2023-09-14 16:07:30 Aussentemperatur 18.40 18.00 65.40
118416 2023-09-14 16:05:43 Terrasse 20.30 19.71 50.60
118415 2023-09-14 15:57:11 Bahnzimmer 20.10 20.01 70.70
118414 2023-09-14 15:39:09 Aussentemperatur 18.50 18.09 64.60
118413 2023-09-14 15:37:35 Terrasse 20.60 20.08 52.10
118412 2023-09-14 15:27:10 Bahnzimmer 20.00 19.90 70.50
118411 2023-09-14 15:10:46 Aussentemperatur 18.30 17.85 63.90
118410 2023-09-14 15:09:22 Terrasse 20.30 19.74 52.00
118409 2023-09-14 14:57:09 Bahnzimmer 19.90 19.79 70.70
118408 2023-09-14 14:42:21 Aussentemperatur 17.80 17.32 64.70
118407 2023-09-14 14:41:06 Terrasse 19.20 18.60 54.50
118406 2023-09-14 14:27:09 Bahnzimmer 19.90 19.78 70.40
118405 2023-09-14 14:14:00 Aussentemperatur 17.60 17.13 65.60
118404 2023-09-14 14:12:58 Terrasse 19.30 18.69 53.90
118403 2023-09-14 13:57:08 Bahnzimmer 20.00 19.88 69.80
118402 2023-09-14 13:45:40 Aussentemperatur 17.80 17.35 65.60
118401 2023-09-14 13:44:53 Terrasse 19.60 19.02 53.70
118400 2023-09-14 13:27:07 Bahnzimmer 20.00 19.88 70.00
118399 2023-09-14 13:17:16 Aussentemperatur 17.60 17.20 68.50
118398 2023-09-14 13:16:41 Terrasse 19.70 19.15 54.70
118397 2023-09-14 12:57:07 Bahnzimmer 19.90 19.75 69.30
118396 2023-09-14 12:48:53 Aussentemperatur 17.00 16.57 69.40
118395 2023-09-14 12:48:27 Terrasse 18.20 17.55 56.40
118394 2023-09-14 12:27:06 Bahnzimmer 19.70 19.52 68.60
118393 2023-09-14 12:20:28 Aussentemperatur 16.40 15.96 71.40
118392 2023-09-14 12:20:16 Terrasse 17.30 16.63 59.30
118391 2023-09-14 11:57:05 Bahnzimmer 19.60 19.40 68.20
118390 2023-09-14 11:52:09 Aussentemperatur 16.20 15.76 72.10
118389 2023-09-14 11:52:08 Terrasse 17.20 16.53 59.60
118388 2023-09-14 11:27:05 Bahnzimmer 19.40 19.17 67.80
118387 2023-09-14 11:24:04 Terrasse 18.00 17.39 58.70
118386 2023-09-14 11:23:47 Aussentemperatur 16.40 16.00 73.00
118385 2023-09-14 10:57:04 Bahnzimmer 18.70 18.33 65.40
118384 2023-09-14 10:55:51 Terrasse 17.40 16.73 58.60
118383 2023-09-14 10:55:26 Aussentemperatur 16.00 15.56 73.00
118382 2023-09-14 10:27:37 Terrasse 16.50 15.73 58.20
118381 2023-09-14 10:27:03 Bahnzimmer 18.60 18.24 65.90
118380 2023-09-14 10:27:02 Aussentemperatur 15.70 15.26 74.00
118379 2023-09-14 09:59:22 Terrasse 15.80 15.06 62.20
118378 2023-09-14 09:58:39 Aussentemperatur 15.40 14.93 74.00
118377 2023-09-14 09:57:03 Bahnzimmer 19.20 18.92 66.80
118376 2023-09-14 09:31:08 Terrasse 15.00 14.23 64.00
118375 2023-09-14 09:30:14 Aussentemperatur 14.90 14.51 79.00
118374 2023-09-14 09:27:02 Bahnzimmer 19.40 19.25 71.00
118373 2023-09-14 09:02:57 Terrasse 14.40 13.64 66.70
118372 2023-09-14 09:02:01 Aussentemperatur 14.40 13.98 79.80
118371 2023-09-14 08:57:02 Bahnzimmer 19.00 18.77 69.50
118370 2023-09-14 08:34:45 Terrasse 13.80 13.03 68.70
118369 2023-09-14 08:33:36 Aussentemperatur 14.00 13.57 80.90
118368 2023-09-14 08:27:01 Bahnzimmer 18.70 18.40 68.00
118367 2023-09-14 08:06:33 Terrasse 13.20 12.38 69.20
118366 2023-09-14 08:05:15 Aussentemperatur 13.80 13.33 80.30
118365 2023-09-14 07:57:00 Bahnzimmer 18.10 17.67 65.40
118364 2023-09-14 07:38:25 Terrasse 13.10 12.25 68.50
118363 2023-09-14 07:36:55 Aussentemperatur 13.90 13.42 79.60
118362 2023-09-14 07:27:00 Bahnzimmer 18.90 18.60 67.20
118361 2023-09-14 07:10:16 Terrasse 13.10 12.25 68.50
118360 2023-09-14 07:08:34 Aussentemperatur 13.90 13.43 79.90
118359 2023-09-14 06:42:08 Terrasse 13.10 12.23 67.50
118358 2023-09-14 06:40:15 Aussentemperatur 13.90 13.43 79.90
118357 2023-09-14 06:26:53 Bahnzimmer 19.60 19.63 77.30
118356 2023-09-14 06:14:04 Terrasse 13.30 12.44 67.20
118355 2023-09-14 06:11:56 Aussentemperatur 14.00 13.54 80.00
118354 2023-09-14 05:56:53 Bahnzimmer 19.60 19.63 77.20
118353 2023-09-14 05:46:22 Terrasse 13.60 12.75 66.60
118352 2023-09-14 05:43:36 Aussentemperatur 14.00 13.54 80.00
118351 2023-09-14 05:26:52 Bahnzimmer 19.70 19.74 77.10
118350 2023-09-14 05:18:27 Terrasse 13.70 12.86 66.50
118349 2023-09-14 05:15:16 Aussentemperatur 14.20 13.76 79.80
118348 2023-09-14 04:56:51 Bahnzimmer 19.70 19.74 77.00
118347 2023-09-14 04:50:32 Terrasse 13.70 12.86 66.30
118346 2023-09-14 04:46:57 Aussentemperatur 14.20 13.76 79.90
118345 2023-09-14 04:26:51 Bahnzimmer 19.70 19.74 77.00
118344 2023-09-14 04:22:31 Terrasse 13.90 13.06 65.60
118343 2023-09-14 04:18:38 Aussentemperatur 14.40 13.96 79.10
118342 2023-09-14 03:56:50 Bahnzimmer 19.80 19.85 77.00
118341 2023-09-14 03:54:58 Terrasse 14.20 13.36 64.60
118340 2023-09-14 03:50:17 Aussentemperatur 14.50 14.07 79.10
118339 2023-09-14 03:27:02 Terrasse 14.80 13.98 62.80
118338 2023-09-14 03:26:49 Bahnzimmer 19.90 19.95 76.90
118337 2023-09-14 03:21:57 Aussentemperatur 14.90 14.50 78.60
118336 2023-09-14 02:59:00 Terrasse 14.70 13.88 63.50
118335 2023-09-14 02:56:49 Bahnzimmer 19.90 19.95 76.90
118334 2023-09-14 02:53:39 Aussentemperatur 14.90 14.52 79.50
118333 2023-09-14 02:31:05 Terrasse 15.20 14.39 61.70
118332 2023-09-14 02:26:48 Bahnzimmer 19.90 19.95 76.90
118331 2023-09-14 02:25:18 Aussentemperatur 15.40 15.06 78.90
118330 2023-09-14 02:02:58 Terrasse 15.60 14.81 61.10
118329 2023-09-14 01:56:59 Aussentemperatur 15.50 15.16 78.70
118328 2023-09-14 01:56:47 Bahnzimmer 20.00 20.06 76.90
118327 2023-09-14 01:35:08 Terrasse 16.00 15.21 59.40
118326 2023-09-14 01:28:40 Aussentemperatur 15.60 15.28 79.10
118325 2023-09-14 01:26:46 Bahnzimmer 20.00 20.06 76.90
118324 2023-09-14 01:07:11 Terrasse 16.20 15.44 60.10
118323 2023-09-14 01:00:20 Aussentemperatur 15.90 15.62 79.50
118322 2023-09-14 00:56:46 Bahnzimmer 20.00 20.06 76.80
118321 2023-09-14 00:39:24 Terrasse 16.50 15.76 59.70
118320 2023-09-14 00:32:00 Aussentemperatur 16.20 15.95 79.30
118319 2023-09-14 00:26:45 Bahnzimmer 20.00 20.06 76.90
118318 2023-09-14 00:11:25 Terrasse 16.90 16.18 58.60
118317 2023-09-14 00:03:41 Aussentemperatur 16.60 16.39 79.60
118316 2023-09-13 23:56:44 Bahnzimmer 20.10 20.17 76.90
118315 2023-09-13 23:43:31 Terrasse 17.50 16.83 58.20
118314 2023-09-13 23:35:21 Aussentemperatur 16.80 16.63 80.30
118313 2023-09-13 23:26:44 Bahnzimmer 20.10 20.17 76.80
118312 2023-09-13 23:15:33 Terrasse 17.80 17.18 59.20
118311 2023-09-13 23:07:02 Aussentemperatur 17.10 17.01 82.10
118310 2023-09-13 22:56:43 Bahnzimmer 20.10 20.16 76.50
118309 2023-09-13 22:47:24 Terrasse 18.10 17.56 60.90
118308 2023-09-13 22:38:41 Aussentemperatur 17.30 17.24 82.60
118307 2023-09-13 22:26:42 Bahnzimmer 20.10 20.16 76.20
118306 2023-09-13 22:19:20 Terrasse 18.50 18.03 62.20
118305 2023-09-13 22:10:21 Aussentemperatur 17.70 17.71 83.70
118304 2023-09-13 21:56:42 Bahnzimmer 20.10 20.16 76.30
118303 2023-09-13 21:51:48 Terrasse 18.90 18.46 61.90
118302 2023-09-13 21:42:01 Aussentemperatur 18.00 18.03 83.40
118301 2023-09-13 21:26:41 Bahnzimmer 20.10 20.15 76.10
118300 2023-09-13 21:23:28 Terrasse 19.20 18.79 61.90
118299 2023-09-13 21:13:40 Aussentemperatur 18.20 18.27 84.20
118298 2023-09-13 20:56:40 Bahnzimmer 20.10 20.14 75.70
118297 2023-09-13 20:55:53 Terrasse 19.50 19.17 63.90
118296 2023-09-13 20:45:19 Aussentemperatur 18.20 18.30 85.10
118295 2023-09-13 20:27:42 Terrasse 19.90 19.58 62.50
118294 2023-09-13 20:26:40 Bahnzimmer 20.00 20.01 75.00
118293 2023-09-13 20:16:57 Aussentemperatur 18.30 18.39 84.50
118292 2023-09-13 19:59:38 Terrasse 21.00 20.71 59.60
118291 2023-09-13 19:56:39 Bahnzimmer 20.10 20.13 75.40
118290 2023-09-13 19:48:39 Aussentemperatur 18.70 18.82 84.00
118289 2023-09-13 19:31:23 Terrasse 20.90 20.66 61.80
118288 2023-09-13 19:26:38 Bahnzimmer 20.30 20.42 77.80
118287 2023-09-13 19:20:19 Aussentemperatur 19.30 19.48 84.10
118286 2023-09-13 18:56:38 Bahnzimmer 20.30 20.41 77.70
118285 2023-09-13 18:52:00 Aussentemperatur 19.50 19.69 83.70
118284 2023-09-13 18:26:37 Bahnzimmer 20.30 20.41 77.70
118283 2023-09-13 18:23:39 Aussentemperatur 19.70 19.89 82.90
118282 2023-09-13 17:56:36 Bahnzimmer 20.30 20.41 77.40
118281 2023-09-13 17:55:21 Aussentemperatur 20.30 20.52 81.60
118280 2023-09-13 17:26:59 Aussentemperatur 20.30 20.55 83.00
118279 2023-09-13 17:26:35 Bahnzimmer 20.30 20.41 77.70
118278 2023-09-13 16:58:39 Aussentemperatur 20.50 20.82 84.80
118277 2023-09-13 16:56:35 Bahnzimmer 20.30 20.41 77.60
118276 2023-09-13 16:30:18 Aussentemperatur 20.80 21.10 83.00
118275 2023-09-13 16:26:34 Bahnzimmer 20.30 20.41 77.50
118274 2023-09-13 16:01:57 Aussentemperatur 21.10 21.43 82.90
118273 2023-09-13 15:56:33 Bahnzimmer 20.30 20.41 77.50
118272 2023-09-13 15:33:32 Aussentemperatur 20.80 21.14 84.30
118271 2023-09-13 15:26:33 Bahnzimmer 20.30 20.41 77.50
118270 2023-09-13 15:05:04 Aussentemperatur 20.20 20.48 84.50
118269 2023-09-13 14:56:32 Bahnzimmer 20.50 20.63 77.40
118268 2023-09-13 14:36:49 Aussentemperatur 21.10 21.45 83.70
118267 2023-09-13 14:26:31 Bahnzimmer 20.30 20.41 77.70
118266 2023-09-13 14:08:22 Aussentemperatur 21.00 21.37 84.70
118265 2023-09-13 13:56:31 Bahnzimmer 20.30 20.41 77.70
118264 2023-09-13 13:39:58 Aussentemperatur 20.60 20.92 84.50
118263 2023-09-13 13:26:30 Bahnzimmer 20.20 20.31 77.80
118262 2023-09-13 13:11:35 Aussentemperatur 20.60 20.97 86.50
118261 2023-09-13 12:56:29 Bahnzimmer 20.20 20.31 77.90
118260 2023-09-13 12:43:33 Aussentemperatur 21.90 22.36 84.70
118259 2023-09-13 12:26:29 Bahnzimmer 20.20 20.31 77.90
118258 2023-09-13 12:15:15 Aussentemperatur 20.00 20.37 88.70
118257 2023-09-13 11:56:28 Bahnzimmer 20.10 20.20 78.10
118256 2023-09-13 11:46:42 Aussentemperatur 18.30 18.52 89.60
118255 2023-09-13 11:26:27 Bahnzimmer 20.10 20.21 78.40
118254 2023-09-13 11:18:19 Aussentemperatur 18.20 18.43 90.10
118253 2023-09-13 10:56:27 Bahnzimmer 20.00 20.11 78.50
118252 2023-09-13 10:49:55 Aussentemperatur 18.00 18.21 90.30
118251 2023-09-13 10:26:26 Bahnzimmer 20.00 20.11 78.80
118250 2023-09-13 10:21:33 Aussentemperatur 18.00 18.23 90.90
118249 2023-09-13 09:56:25 Bahnzimmer 19.70 19.81 79.80
118248 2023-09-13 09:53:11 Aussentemperatur 17.80 18.03 91.80
118247 2023-09-13 09:26:25 Bahnzimmer 19.50 19.62 81.10
118246 2023-09-13 09:24:48 Aussentemperatur 17.80 18.03 91.80
118245 2023-09-13 08:56:24 Aussentemperatur 17.60 17.80 91.50
118244 2023-09-13 08:56:24 Bahnzimmer 19.70 19.82 80.10
118243 2023-09-13 08:28:01 Aussentemperatur 17.60 17.80 91.30
118242 2023-09-13 08:26:23 Bahnzimmer 20.30 20.42 77.80
118241 2023-09-13 07:59:39 Aussentemperatur 17.50 17.68 91.10
118240 2023-09-13 07:56:23 Bahnzimmer 20.40 20.53 77.80
118239 2023-09-13 07:31:15 Aussentemperatur 17.40 17.58 91.20
118238 2023-09-13 07:26:22 Bahnzimmer 20.50 20.62 77.30
118237 2023-09-13 07:02:59 Aussentemperatur 17.40 17.57 90.80
118236 2023-09-13 06:56:21 Bahnzimmer 20.50 20.62 77.20
118235 2023-09-13 06:47:47 Bahnzimmer 20.50 20.62 77.20
118234 2023-09-13 06:34:33 Aussentemperatur 17.40 17.55 90.20
118233 2023-09-13 06:17:46 Bahnzimmer 20.50 20.62 77.10
118232 2023-09-12 20:29:21 Terrasse 25.00 25.22 63.70
118231 2023-09-12 20:25:26 Aussentemperatur 22.10 22.50 81.80
118230 2023-09-12 20:16:00 Bahnzimmer 20.70 20.83 76.60
118229 2023-09-12 20:01:06 Terrasse 25.50 25.65 59.10
118228 2023-09-12 19:57:10 Aussentemperatur 22.30 22.67 79.70
118227 2023-09-12 19:45:59 Bahnzimmer 20.80 20.94 76.60
118226 2023-09-12 19:32:50 Terrasse 25.90 26.05 57.80
118225 2023-09-12 19:28:55 Aussentemperatur 22.80 23.18 78.20
118224 2023-09-12 19:15:59 Bahnzimmer 20.60 20.72 76.60
118223 2023-09-12 19:04:38 Terrasse 26.60 27.39 56.30
118222 2023-09-12 19:00:44 Aussentemperatur 23.50 23.85 74.40
118221 2023-09-12 18:45:58 Bahnzimmer 20.70 20.82 76.50
118220 2023-09-12 18:36:22 Terrasse 27.20 27.93 54.60
118219 2023-09-12 18:32:33 Aussentemperatur 24.20 24.42 66.90
118218 2023-09-12 18:15:57 Bahnzimmer 20.70 20.83 76.60
118217 2023-09-12 18:08:08 Terrasse 27.90 28.50 51.80
118216 2023-09-12 18:04:21 Aussentemperatur 25.00 25.25 64.90
118215 2023-09-12 17:45:57 Bahnzimmer 20.70 20.83 76.60
118214 2023-09-12 17:39:53 Terrasse 28.30 28.74 49.50
118213 2023-09-12 17:36:07 Aussentemperatur 25.20 25.43 63.50
118212 2023-09-12 17:15:56 Bahnzimmer 20.80 20.94 76.70
118211 2023-09-12 17:11:36 Terrasse 28.80 29.57 51.40
118210 2023-09-12 17:07:50 Aussentemperatur 25.20 25.44 63.70
118209 2023-09-12 16:45:55 Bahnzimmer 20.90 21.04 76.50
118208 2023-09-12 16:43:23 Terrasse 29.50 30.25 49.40
118207 2023-09-12 16:39:36 Aussentemperatur 25.60 25.83 62.00
118206 2023-09-12 16:15:55 Bahnzimmer 20.80 20.94 76.70
118205 2023-09-12 16:15:03 Terrasse 29.50 30.15 48.70
118204 2023-09-12 16:11:19 Aussentemperatur 25.40 25.61 61.90
118203 2023-09-12 15:46:51 Terrasse 30.50 31.05 45.40
118202 2023-09-12 15:45:54 Bahnzimmer 20.50 20.59 76.10
118201 2023-09-12 15:43:04 Aussentemperatur 25.90 26.84 60.50
118200 2023-09-12 15:18:30 Terrasse 30.10 30.72 46.90
118199 2023-09-12 15:15:53 Bahnzimmer 20.50 20.59 76.10
118198 2023-09-12 15:14:47 Aussentemperatur 25.60 25.80 60.80
118197 2023-09-12 14:50:13 Terrasse 30.30 31.14 47.80
118196 2023-09-12 14:46:32 Aussentemperatur 25.80 26.00 59.80
118195 2023-09-12 14:45:53 Bahnzimmer 20.60 20.70 76.00
118194 2023-09-12 14:21:57 Terrasse 30.30 30.85 45.90
118193 2023-09-12 14:18:17 Aussentemperatur 25.90 26.09 59.10
118192 2023-09-12 14:15:52 Bahnzimmer 20.50 20.60 76.20
118191 2023-09-12 13:53:35 Terrasse 30.00 30.40 45.60
118190 2023-09-12 13:49:54 Aussentemperatur 25.00 25.14 60.50
118189 2023-09-12 13:45:51 Bahnzimmer 20.50 20.59 76.10
118188 2023-09-12 13:25:52 Terrasse 32.80 34.03 42.60
118187 2023-09-12 13:21:42 Aussentemperatur 26.00 26.88 58.60
118186 2023-09-12 13:15:51 Bahnzimmer 20.50 20.59 76.10
118185 2023-09-12 12:57:24 Terrasse 32.70 34.16 43.90
118184 2023-09-12 12:53:34 Aussentemperatur 26.20 27.11 59.20
118183 2023-09-12 12:45:50 Bahnzimmer 20.50 20.59 76.10
118182 2023-09-12 12:28:30 Terrasse 28.00 28.27 48.00
118181 2023-09-12 12:25:27 Aussentemperatur 25.10 25.31 63.10
118180 2023-09-12 12:15:49 Bahnzimmer 20.50 20.59 76.10
118179 2023-09-12 12:00:03 Terrasse 25.40 25.41 54.20
118178 2023-09-12 11:56:40 Aussentemperatur 21.90 21.93 68.40
118177 2023-09-12 11:45:49 Bahnzimmer 20.50 20.60 76.20
118176 2023-09-12 11:31:41 Terrasse 24.40 24.39 57.10
118175 2023-09-12 11:28:23 Aussentemperatur 21.70 21.76 70.40
118174 2023-09-12 11:15:48 Bahnzimmer 20.50 20.60 76.20
118173 2023-09-12 11:03:15 Terrasse 23.30 23.19 57.70
118172 2023-09-12 11:00:05 Aussentemperatur 21.10 21.12 71.10
118171 2023-09-12 10:45:47 Bahnzimmer 20.70 20.81 76.00
118170 2023-09-12 10:34:53 Terrasse 22.60 22.60 64.50
118169 2023-09-12 10:31:47 Aussentemperatur 20.90 20.94 72.50
118168 2023-09-12 10:15:47 Bahnzimmer 20.40 20.49 76.40
118167 2023-09-12 10:06:29 Terrasse 21.90 21.71 60.00
118166 2023-09-12 10:03:29 Aussentemperatur 20.30 20.30 73.30
118165 2023-09-12 09:45:46 Bahnzimmer 20.50 20.60 76.30
118164 2023-09-12 09:38:08 Terrasse 21.10 20.86 61.00
118163 2023-09-12 09:35:12 Aussentemperatur 19.70 19.69 75.30
118162 2023-09-12 09:15:46 Bahnzimmer 20.50 20.60 76.40
118161 2023-09-12 09:09:50 Terrasse 20.60 20.40 64.60
118160 2023-09-12 09:06:54 Aussentemperatur 19.40 19.38 76.00
118159 2023-09-12 08:45:45 Bahnzimmer 20.50 20.60 76.40
118158 2023-09-12 08:41:30 Terrasse 20.10 19.84 64.20
118157 2023-09-12 08:38:39 Aussentemperatur 19.40 19.36 75.40
118156 2023-09-12 08:29:48 Bahnzimmer 20.00 20.07 77.20
118155 2023-09-12 08:13:12 Terrasse 20.10 19.84 64.10
118154 2023-09-12 08:10:24 Aussentemperatur 19.30 19.26 75.50
118153 2023-09-12 07:59:48 Bahnzimmer 20.00 20.06 76.90
118152 2023-09-12 07:44:56 Terrasse 20.00 19.73 64.00
118151 2023-09-12 07:42:08 Aussentemperatur 19.30 19.21 73.80
118150 2023-09-12 07:29:47 Bahnzimmer 20.00 20.07 77.10
118149 2023-09-12 07:16:37 Terrasse 19.90 19.59 63.00
118148 2023-09-12 07:13:54 Aussentemperatur 19.10 19.02 74.80
118147 2023-09-12 06:59:46 Bahnzimmer 20.30 20.37 75.90
118146 2023-09-12 06:48:30 Terrasse 20.00 19.72 63.80
118145 2023-09-12 06:45:40 Aussentemperatur 19.20 19.11 74.10
118144 2023-09-12 06:29:45 Bahnzimmer 20.30 20.36 75.80
118143 2023-09-12 06:20:13 Terrasse 20.00 19.70 62.80
118142 2023-09-12 06:17:34 Aussentemperatur 19.20 19.09 73.40
118141 2023-09-12 05:59:45 Bahnzimmer 20.30 20.36 75.80
118140 2023-09-12 05:51:57 Terrasse 20.00 19.65 61.00
118139 2023-09-12 05:49:15 Aussentemperatur 19.20 19.07 72.70
118138 2023-09-12 05:29:44 Bahnzimmer 20.30 20.37 75.90
118137 2023-09-12 05:23:41 Terrasse 20.00 19.66 61.30
118136 2023-09-12 05:21:00 Aussentemperatur 19.10 18.95 72.00
118135 2023-09-12 04:59:43 Bahnzimmer 20.30 20.37 75.90
118134 2023-09-12 04:55:26 Terrasse 20.30 19.96 60.20
118133 2023-09-12 04:52:45 Aussentemperatur 19.20 19.04 71.50
118132 2023-09-12 04:29:43 Bahnzimmer 20.40 20.47 75.80
118131 2023-09-12 04:27:09 Terrasse 20.50 20.16 59.50
118130 2023-09-12 04:24:31 Aussentemperatur 19.40 19.24 70.80
118129 2023-09-12 03:59:42 Bahnzimmer 20.40 20.47 75.80
118128 2023-09-12 03:58:53 Terrasse 20.50 20.15 59.20
118127 2023-09-12 03:56:16 Aussentemperatur 19.30 19.13 70.60
118126 2023-09-12 03:30:36 Terrasse 20.80 20.46 58.20
118125 2023-09-12 03:29:41 Bahnzimmer 20.40 20.47 75.80
118124 2023-09-12 03:28:02 Aussentemperatur 19.50 19.34 70.10
118123 2023-09-12 03:02:20 Terrasse 20.90 20.57 58.50
118122 2023-09-12 02:59:48 Aussentemperatur 19.70 19.55 70.00
118121 2023-09-12 02:59:41 Bahnzimmer 20.40 20.47 75.80
118120 2023-09-12 02:34:02 Terrasse 21.00 20.67 58.00
118119 2023-09-12 02:31:33 Aussentemperatur 19.70 19.55 69.90
118118 2023-09-12 02:29:40 Bahnzimmer 20.40 20.48 75.90
118117 2023-09-12 02:05:46 Terrasse 21.20 20.87 57.20
118116 2023-09-12 02:03:18 Aussentemperatur 19.80 19.66 69.70
118115 2023-09-12 01:59:40 Bahnzimmer 20.50 20.59 75.90
118114 2023-09-12 01:37:30 Terrasse 21.40 21.08 56.90
118113 2023-09-12 01:35:03 Aussentemperatur 19.90 19.75 69.20
118112 2023-09-12 01:29:39 Bahnzimmer 20.50 20.59 75.90
118111 2023-09-12 01:09:14 Terrasse 21.70 21.38 55.70
118110 2023-09-12 01:06:49 Aussentemperatur 20.10 19.95 68.30
118109 2023-09-12 00:59:38 Bahnzimmer 20.40 20.48 76.00
118108 2023-09-12 00:41:00 Terrasse 22.10 21.81 55.40
118107 2023-09-12 00:38:35 Aussentemperatur 20.30 20.16 67.90
118106 2023-09-12 00:29:38 Bahnzimmer 20.50 20.59 76.00
118105 2023-09-12 00:12:44 Terrasse 22.30 22.03 55.30
118104 2023-09-12 00:10:21 Aussentemperatur 20.50 20.38 68.00
118103 2023-09-11 23:59:37 Bahnzimmer 20.50 20.59 76.00
118102 2023-09-11 23:44:28 Terrasse 22.70 22.46 55.10
118101 2023-09-11 23:42:08 Aussentemperatur 20.70 20.61 68.40
118100 2023-09-11 23:29:36 Bahnzimmer 20.50 20.59 76.10
118099 2023-09-11 23:16:12 Terrasse 23.00 22.78 54.70
118098 2023-09-11 23:13:53 Aussentemperatur 21.00 20.92 67.70
118097 2023-09-11 22:59:34 Bahnzimmer 20.50 20.60 76.20
118096 2023-09-11 22:47:57 Terrasse 23.30 23.10 54.00
118095 2023-09-11 22:45:39 Aussentemperatur 21.10 21.03 67.60
118094 2023-09-11 22:29:33 Bahnzimmer 20.50 20.60 76.20
118093 2023-09-11 22:19:40 Terrasse 23.60 23.41 53.40
118092 2023-09-11 22:17:24 Aussentemperatur 21.30 21.25 67.40
118091 2023-09-11 21:59:33 Bahnzimmer 20.50 20.60 76.30
118090 2023-09-11 21:51:24 Terrasse 23.90 23.73 53.20
118089 2023-09-11 21:49:10 Aussentemperatur 21.50 21.46 67.20
118088 2023-09-11 21:29:32 Bahnzimmer 20.50 20.60 76.30
118087 2023-09-11 21:23:08 Terrasse 24.20 24.05 52.50
118086 2023-09-11 21:20:56 Aussentemperatur 21.80 21.77 66.60
118085 2023-09-11 20:59:31 Bahnzimmer 20.60 20.71 76.20
118084 2023-09-11 20:54:52 Terrasse 24.70 24.58 52.00
118083 2023-09-11 20:52:41 Aussentemperatur 22.10 22.09 66.20
118082 2023-09-11 20:29:31 Bahnzimmer 20.70 20.82 76.50
118081 2023-09-11 20:26:37 Terrasse 25.00 24.90 51.50
118080 2023-09-11 20:24:27 Aussentemperatur 22.50 22.54 66.50
118079 2023-09-11 19:59:30 Bahnzimmer 20.60 20.71 76.20
118078 2023-09-11 19:58:28 Terrasse 25.70 25.66 51.30
118077 2023-09-11 19:56:14 Aussentemperatur 22.90 22.98 66.40
118076 2023-09-11 19:30:20 Terrasse 26.50 27.01 50.90
118075 2023-09-11 19:29:29 Bahnzimmer 20.60 20.71 76.20
118074 2023-09-11 19:28:01 Aussentemperatur 23.50 23.61 65.30
118073 2023-09-11 19:02:04 Terrasse 27.50 27.81 48.70
118072 2023-09-11 18:59:50 Aussentemperatur 24.10 24.20 62.60
118071 2023-09-11 18:59:29 Bahnzimmer 20.70 20.82 76.30
118070 2023-09-11 18:33:50 Terrasse 28.10 28.19 45.80
118069 2023-09-11 18:31:38 Aussentemperatur 25.00 25.03 56.60
118068 2023-09-11 18:29:28 Bahnzimmer 20.80 20.93 76.20
118067 2023-09-11 18:05:37 Terrasse 28.90 28.76 42.80
118066 2023-09-11 18:03:26 Aussentemperatur 25.60 25.65 55.00
118065 2023-09-11 17:59:27 Bahnzimmer 20.80 20.93 76.30
118064 2023-09-11 17:37:22 Terrasse 29.50 29.40 42.50
118063 2023-09-11 17:35:11 Aussentemperatur 25.80 25.86 54.50
118062 2023-09-11 17:29:27 Bahnzimmer 20.90 21.04 76.40
118061 2023-09-11 17:09:07 Terrasse 30.00 29.93 42.00
118060 2023-09-11 17:06:56 Aussentemperatur 26.00 26.05 53.60
118059 2023-09-11 16:59:26 Bahnzimmer 21.10 21.25 76.10
118058 2023-09-11 16:40:51 Terrasse 30.50 30.69 43.00
118057 2023-09-11 16:38:40 Aussentemperatur 26.00 26.06 53.80
118056 2023-09-11 16:29:26 Bahnzimmer 21.00 21.15 76.20
118055 2023-09-11 16:12:35 Terrasse 30.90 30.88 40.70
118054 2023-09-11 16:10:24 Aussentemperatur 26.40 27.06 53.90
118053 2023-09-11 15:59:25 Bahnzimmer 21.00 21.14 76.00
118052 2023-09-11 15:44:17 Terrasse 31.00 31.50 43.80
118051 2023-09-11 15:42:08 Aussentemperatur 26.10 26.83 54.80
118050 2023-09-11 15:29:24 Bahnzimmer 21.00 21.14 76.00
118049 2023-09-11 15:15:58 Terrasse 31.00 31.43 43.40
118048 2023-09-11 15:13:50 Aussentemperatur 25.90 26.02 56.50
118047 2023-09-11 14:59:24 Bahnzimmer 20.90 21.03 76.10
118046 2023-09-11 14:47:44 Terrasse 31.40 31.96 43.10
118045 2023-09-11 14:45:34 Aussentemperatur 26.00 26.78 56.10
118044 2023-09-11 14:29:23 Bahnzimmer 20.80 20.93 76.40
118043 2023-09-11 14:19:37 Terrasse 32.10 32.35 39.60
118042 2023-09-11 14:17:20 Aussentemperatur 26.10 26.86 55.60
118041 2023-09-11 13:59:22 Bahnzimmer 20.50 20.60 76.50
118040 2023-09-11 13:51:18 Terrasse 33.10 34.16 41.00
118039 2023-09-11 13:49:02 Aussentemperatur 26.00 26.85 58.00
118038 2023-09-11 13:29:22 Bahnzimmer 20.50 20.60 76.50
118037 2023-09-11 13:23:20 Terrasse 35.30 38.43 42.00
118036 2023-09-11 13:20:47 Aussentemperatur 26.20 27.09 58.90
118035 2023-09-11 12:59:21 Bahnzimmer 20.70 20.83 76.70
118034 2023-09-11 12:54:44 Terrasse 33.80 36.25 44.40
118033 2023-09-11 12:52:44 Aussentemperatur 26.50 27.60 62.20
118032 2023-09-11 12:29:20 Bahnzimmer 20.60 20.72 76.90
118031 2023-09-11 12:25:42 Terrasse 27.60 28.11 51.20
118030 2023-09-11 12:24:31 Aussentemperatur 25.00 25.34 68.40
118029 2023-09-11 11:59:20 Bahnzimmer 20.60 20.74 77.60
118028 2023-09-11 11:57:21 Terrasse 25.20 25.29 58.20
118027 2023-09-11 11:55:44 Aussentemperatur 21.50 21.65 74.40
118026 2023-09-11 11:29:19 Bahnzimmer 20.70 20.85 77.60
118025 2023-09-11 11:29:02 Terrasse 24.00 24.07 61.70
118024 2023-09-11 11:27:26 Aussentemperatur 21.20 21.34 75.20
118023 2023-09-11 11:00:38 Terrasse 22.90 22.91 63.90
118022 2023-09-11 10:59:18 Bahnzimmer 20.50 20.64 77.80
118021 2023-09-11 10:59:07 Aussentemperatur 20.60 20.72 76.60
118020 2023-09-11 10:32:19 Terrasse 21.90 21.91 67.60
118019 2023-09-11 10:30:50 Aussentemperatur 20.10 20.19 77.70
118018 2023-09-11 10:29:18 Bahnzimmer 20.30 20.36 75.50
118017 2023-09-11 10:04:02 Terrasse 21.10 21.02 67.20
118016 2023-09-11 10:02:31 Aussentemperatur 19.70 19.75 77.60
118015 2023-09-11 09:59:17 Bahnzimmer 20.10 20.14 75.70
118014 2023-09-11 09:35:38 Terrasse 20.30 20.14 67.20
118013 2023-09-11 09:34:14 Aussentemperatur 19.00 18.97 77.20
118012 2023-09-11 09:29:16 Bahnzimmer 20.00 20.03 75.80
118011 2023-09-11 09:07:19 Terrasse 19.80 19.58 66.90
118010 2023-09-11 09:05:59 Aussentemperatur 18.60 18.55 78.00
118009 2023-09-11 08:59:16 Bahnzimmer 19.60 19.63 77.20
118008 2023-09-11 08:39:05 Terrasse 19.40 19.18 68.50
118007 2023-09-11 08:37:43 Aussentemperatur 18.20 18.11 77.80
118006 2023-09-11 08:29:15 Bahnzimmer 19.40 19.41 77.20
118005 2023-09-11 08:10:44 Terrasse 18.80 18.52 68.30
118004 2023-09-11 08:09:27 Aussentemperatur 18.20 18.07 76.50
118003 2023-09-11 07:59:15 Bahnzimmer 19.50 19.48 75.70
118002 2023-09-11 07:42:27 Terrasse 18.70 18.36 66.40
118001 2023-09-11 07:41:12 Aussentemperatur 18.10 17.94 75.70
118000 2023-09-11 07:29:14 Bahnzimmer 19.40 19.37 75.70
117999 2023-09-11 07:14:22 Terrasse 18.70 18.33 65.10
117998 2023-09-11 07:12:57 Aussentemperatur 18.00 17.82 75.40
117997 2023-09-11 06:59:13 Bahnzimmer 20.00 20.01 74.70
117996 2023-09-11 06:46:21 Terrasse 19.00 18.63 64.00
117995 2023-09-11 06:44:45 Aussentemperatur 18.10 17.92 74.80
117994 2023-09-11 06:29:13 Bahnzimmer 20.00 20.00 74.60
117993 2023-09-11 06:18:02 Terrasse 19.40 19.04 63.00
117992 2023-09-11 06:16:30 Aussentemperatur 18.20 18.03 74.90
117991 2023-09-11 05:59:12 Bahnzimmer 20.10 20.11 74.50
117990 2023-09-11 05:50:03 Terrasse 20.00 19.68 62.20
117989 2023-09-11 05:48:17 Aussentemperatur 18.50 18.34 74.10
117988 2023-09-11 05:29:11 Bahnzimmer 20.10 20.11 74.50
117987 2023-09-11 05:21:42 Terrasse 20.10 19.77 61.40
117986 2023-09-11 05:20:03 Aussentemperatur 18.70 18.54 73.40
117985 2023-09-11 04:59:11 Bahnzimmer 20.10 20.11 74.50
117984 2023-09-11 04:53:26 Terrasse 20.30 19.97 60.60
117983 2023-09-11 04:51:49 Aussentemperatur 18.70 18.53 73.00
117982 2023-09-11 04:29:10 Bahnzimmer 20.10 20.11 74.50
117981 2023-09-11 04:25:10 Terrasse 20.30 19.95 60.10
117980 2023-09-11 04:23:35 Aussentemperatur 18.80 18.62 72.30
117979 2023-09-11 03:59:09 Bahnzimmer 20.10 20.11 74.50
117978 2023-09-11 03:56:53 Terrasse 20.40 20.06 59.80
117977 2023-09-11 03:55:22 Aussentemperatur 18.90 18.72 71.70
117976 2023-09-11 03:29:09 Bahnzimmer 20.10 20.11 74.60
117975 2023-09-11 03:28:38 Terrasse 20.60 20.25 58.90
117974 2023-09-11 03:27:08 Aussentemperatur 19.10 18.91 70.80
117973 2023-09-11 03:00:22 Terrasse 20.90 20.56 57.90
117972 2023-09-11 02:59:08 Bahnzimmer 20.10 20.11 74.60
117971 2023-09-11 02:58:54 Aussentemperatur 19.30 19.11 70.00
117970 2023-09-11 02:32:05 Terrasse 21.10 20.77 57.60
117969 2023-09-11 02:30:40 Aussentemperatur 19.50 19.33 69.80
117968 2023-09-11 02:29:07 Bahnzimmer 20.10 20.12 74.70
117967 2023-09-11 02:03:52 Terrasse 21.30 20.97 57.00
117966 2023-09-11 02:02:25 Aussentemperatur 19.50 19.33 69.80
117965 2023-09-11 01:59:07 Bahnzimmer 20.10 20.12 74.70
117964 2023-09-11 01:35:36 Terrasse 21.50 21.18 56.50
117963 2023-09-11 01:34:10 Aussentemperatur 19.70 19.53 69.10
117962 2023-09-11 01:29:06 Bahnzimmer 20.10 20.12 74.70
117961 2023-09-11 01:07:20 Terrasse 21.80 21.49 55.70
117960 2023-09-11 01:05:55 Aussentemperatur 19.90 19.73 68.50
117959 2023-09-11 00:59:05 Bahnzimmer 20.10 20.12 74.70
117958 2023-09-11 00:39:03 Terrasse 22.00 21.70 55.20
117957 2023-09-11 00:37:40 Aussentemperatur 20.00 19.84 68.50
117956 2023-09-11 00:29:05 Bahnzimmer 20.10 20.12 74.70
117955 2023-09-11 00:10:47 Terrasse 22.20 21.91 55.10
117954 2023-09-11 00:09:26 Aussentemperatur 20.10 19.95 68.50
117953 2023-09-10 23:59:04 Bahnzimmer 20.10 20.12 74.70
117952 2023-09-10 23:42:30 Terrasse 22.50 22.23 54.70
117951 2023-09-10 23:41:11 Aussentemperatur 20.20 20.07 68.70
117950 2023-09-10 23:29:03 Bahnzimmer 20.10 20.12 74.70
117949 2023-09-10 23:14:14 Terrasse 22.80 22.55 54.20
117948 2023-09-10 23:12:58 Aussentemperatur 20.50 20.39 68.40
117947 2023-09-10 22:59:03 Bahnzimmer 20.10 20.12 74.70
117946 2023-09-10 22:46:05 Terrasse 23.10 22.86 53.40
117945 2023-09-10 22:44:44 Aussentemperatur 20.70 20.60 68.00
117944 2023-09-10 22:29:02 Bahnzimmer 20.10 20.12 74.70
117943 2023-09-10 22:17:45 Terrasse 23.40 23.19 53.40
117942 2023-09-10 22:16:30 Aussentemperatur 20.90 20.82 67.80
117941 2023-09-10 21:59:01 Bahnzimmer 20.10 20.12 74.80
117940 2023-09-10 21:49:31 Terrasse 23.80 23.61 52.70
117939 2023-09-10 21:48:15 Aussentemperatur 21.10 21.03 67.50
117938 2023-09-10 21:29:01 Bahnzimmer 20.10 20.12 74.80
117937 2023-09-10 21:21:16 Terrasse 24.20 24.01 51.30
117936 2023-09-10 21:20:02 Aussentemperatur 21.50 21.46 67.30
117935 2023-09-10 20:59:00 Bahnzimmer 20.10 20.12 74.80
117934 2023-09-10 20:53:09 Terrasse 24.70 24.56 51.00
117933 2023-09-10 20:51:48 Aussentemperatur 21.70 21.68 67.20
117932 2023-09-10 20:29:00 Bahnzimmer 20.10 20.12 74.80
117931 2023-09-10 20:24:53 Terrasse 25.30 25.23 51.50
117930 2023-09-10 20:23:35 Aussentemperatur 22.10 22.12 67.30
117929 2023-09-10 19:58:59 Bahnzimmer 20.10 20.12 74.80
117928 2023-09-10 19:56:44 Terrasse 25.80 25.80 52.10
117927 2023-09-10 19:55:22 Aussentemperatur 22.70 22.79 67.60
117926 2023-09-10 19:28:58 Bahnzimmer 20.20 20.23 74.80
117925 2023-09-10 19:28:30 Terrasse 26.70 27.33 53.50
117924 2023-09-10 19:27:10 Aussentemperatur 23.40 23.57 67.90
117923 2023-09-10 19:00:19 Terrasse 27.90 28.29 49.40
117922 2023-09-10 18:58:58 Bahnzimmer 20.20 20.23 74.70
117921 2023-09-10 18:58:56 Aussentemperatur 23.90 24.05 65.30
117920 2023-09-10 18:32:06 Terrasse 28.60 28.76 46.20
117919 2023-09-10 18:30:45 Aussentemperatur 24.70 24.86 62.50
117918 2023-09-10 18:28:57 Bahnzimmer 20.20 20.23 74.70
117917 2023-09-10 18:03:54 Terrasse 29.50 29.71 45.20
117916 2023-09-10 18:02:34 Aussentemperatur 25.50 25.68 60.20
117915 2023-09-10 17:58:56 Bahnzimmer 20.20 20.23 74.70
117914 2023-09-10 17:35:39 Terrasse 30.10 30.35 44.30
117913 2023-09-10 17:34:20 Aussentemperatur 25.60 25.79 60.40
117912 2023-09-10 17:28:56 Bahnzimmer 20.20 20.23 74.70
117911 2023-09-10 17:07:24 Terrasse 30.80 31.44 45.20
117910 2023-09-10 17:06:05 Aussentemperatur 26.00 26.94 60.30
117909 2023-09-10 16:58:55 Bahnzimmer 20.30 20.33 74.60
117908 2023-09-10 16:39:09 Terrasse 31.20 31.96 44.80
117907 2023-09-10 16:37:51 Aussentemperatur 26.20 27.15 60.20
117906 2023-09-10 16:28:54 Bahnzimmer 20.30 20.33 74.60
117905 2023-09-10 16:10:52 Terrasse 31.50 32.21 43.70
117904 2023-09-10 16:09:35 Aussentemperatur 26.40 27.29 58.50
117903 2023-09-10 15:58:54 Bahnzimmer 20.20 20.22 74.60
117902 2023-09-10 15:42:37 Terrasse 31.40 32.30 45.00
117901 2023-09-10 15:41:18 Aussentemperatur 26.20 27.11 59.30
117900 2023-09-10 15:28:53 Bahnzimmer 20.20 20.23 74.70
117899 2023-09-10 15:14:19 Terrasse 31.40 32.22 44.60
117898 2023-09-10 15:13:02 Aussentemperatur 26.10 27.03 60.00
117897 2023-09-10 14:58:52 Bahnzimmer 20.20 20.23 74.70
117896 2023-09-10 14:46:03 Terrasse 31.40 32.01 43.40
117895 2023-09-10 14:44:47 Aussentemperatur 26.00 26.95 60.50
117894 2023-09-10 14:28:52 Bahnzimmer 20.10 20.12 74.80
117893 2023-09-10 14:17:48 Terrasse 31.70 32.90 45.70
117892 2023-09-10 14:16:31 Aussentemperatur 26.20 27.15 60.20
117891 2023-09-10 13:58:51 Bahnzimmer 20.10 20.12 75.00
117890 2023-09-10 13:49:39 Terrasse 32.40 33.73 44.20
117889 2023-09-10 13:48:13 Aussentemperatur 25.90 26.87 61.40
117888 2023-09-10 13:28:50 Bahnzimmer 20.00 20.01 75.00
117887 2023-09-10 13:21:39 Terrasse 34.70 37.75 43.60
117886 2023-09-10 13:19:57 Aussentemperatur 26.00 26.98 61.40
117885 2023-09-10 12:58:50 Bahnzimmer 20.00 20.01 75.00
117884 2023-09-10 12:53:01 Terrasse 33.20 35.59 46.10
117883 2023-09-10 12:51:58 Aussentemperatur 26.40 27.55 63.70
117882 2023-09-10 12:28:49 Bahnzimmer 20.00 20.01 75.00
117881 2023-09-10 12:23:59 Terrasse 27.00 27.70 54.50
117880 2023-09-10 12:23:37 Aussentemperatur 25.00 25.41 71.00
117879 2023-09-10 11:58:49 Bahnzimmer 20.00 20.01 75.00
117878 2023-09-10 11:55:32 Terrasse 25.00 25.07 58.10
117877 2023-09-10 11:54:54 Aussentemperatur 21.60 21.80 76.00
117876 2023-09-10 11:28:48 Bahnzimmer 20.00 20.01 74.90
117875 2023-09-10 11:27:08 Terrasse 24.00 24.08 62.20
117874 2023-09-10 11:26:35 Aussentemperatur 21.10 21.27 76.70
117873 2023-09-10 10:58:47 Bahnzimmer 20.00 20.01 74.90
117872 2023-09-10 10:58:44 Terrasse 22.80 22.82 64.70
117871 2023-09-10 10:58:18 Aussentemperatur 20.70 20.85 77.50
117870 2023-09-10 10:30:18 Terrasse 21.70 21.69 67.40
117869 2023-09-10 10:29:59 Aussentemperatur 20.10 20.21 78.40
117868 2023-09-10 10:28:47 Bahnzimmer 20.10 20.13 75.10
117867 2023-09-10 10:01:56 Terrasse 20.90 20.80 67.20
117866 2023-09-10 10:01:39 Aussentemperatur 19.10 19.13 79.00
117865 2023-09-10 09:58:46 Bahnzimmer 20.10 20.13 75.10
117864 2023-09-10 09:33:33 Terrasse 20.10 19.94 67.90
117863 2023-09-10 09:33:22 Aussentemperatur 18.80 18.80 79.00
117862 2023-09-10 09:28:45 Bahnzimmer 20.30 20.36 75.50
117861 2023-09-10 09:05:12 Terrasse 19.60 19.36 67.00
117860 2023-09-10 09:05:06 Aussentemperatur 18.30 18.26 79.50
117859 2023-09-10 08:58:45 Bahnzimmer 20.10 20.14 75.50
117858 2023-09-10 08:36:53 Terrasse 19.00 18.78 69.80
117857 2023-09-10 08:36:49 Aussentemperatur 18.00 17.92 79.10
117856 2023-09-10 08:28:44 Bahnzimmer 20.00 20.00 74.40
117855 2023-09-10 08:08:35 Terrasse 18.70 18.42 68.60
117854 2023-09-10 08:08:34 Aussentemperatur 17.80 17.68 78.20
117853 2023-09-10 07:58:43 Bahnzimmer 19.90 19.89 74.40
117852 2023-09-10 07:40:19 Terrasse 18.80 18.48 66.70
117851 2023-09-10 07:40:18 Aussentemperatur 17.80 17.66 77.40
117850 2023-09-10 07:28:43 Bahnzimmer 19.90 19.89 74.40
117849 2023-09-10 07:12:03 Aussentemperatur 17.80 17.64 76.80
117848 2023-09-10 07:12:02 Terrasse 18.80 18.46 65.90
117847 2023-09-10 06:58:42 Bahnzimmer 19.90 19.89 74.30
117846 2023-09-10 06:43:49 Aussentemperatur 17.90 17.74 76.20
117845 2023-09-10 06:43:47 Terrasse 19.00 18.64 64.70
117844 2023-09-10 06:28:41 Bahnzimmer 19.90 19.89 74.40
117843 2023-09-10 06:15:35 Aussentemperatur 18.10 17.94 75.70
117842 2023-09-10 06:15:32 Terrasse 19.30 18.95 63.90
117841 2023-09-10 05:58:41 Bahnzimmer 19.90 19.89 74.30
117840 2023-09-10 05:47:20 Aussentemperatur 18.20 18.03 74.90
117839 2023-09-10 05:47:17 Terrasse 19.50 19.14 62.60
117838 2023-09-10 05:28:40 Bahnzimmer 19.90 19.89 74.30
117837 2023-09-10 05:19:06 Aussentemperatur 18.30 18.13 74.40
117836 2023-09-10 05:19:01 Terrasse 19.70 19.35 62.20
117835 2023-09-10 04:58:39 Bahnzimmer 20.00 20.00 74.30
117834 2023-09-10 04:50:52 Aussentemperatur 18.60 18.44 73.60
117833 2023-09-10 04:50:47 Terrasse 20.10 19.76 61.10
117832 2023-09-10 04:28:39 Bahnzimmer 20.00 20.00 74.30
117831 2023-09-10 04:22:37 Aussentemperatur 18.70 18.53 72.80
117830 2023-09-10 04:22:31 Terrasse 20.30 19.97 60.50
117829 2023-09-10 03:58:38 Bahnzimmer 19.90 19.89 74.30
117828 2023-09-10 03:54:22 Aussentemperatur 18.80 18.62 72.20
117827 2023-09-10 03:54:15 Terrasse 20.50 20.16 59.60
117826 2023-09-10 03:28:38 Bahnzimmer 20.00 20.00 74.30
117825 2023-09-10 03:26:08 Aussentemperatur 19.00 18.83 71.90
117824 2023-09-10 03:26:00 Terrasse 20.60 20.26 59.10
117823 2023-09-10 02:58:37 Bahnzimmer 20.00 20.00 74.30
117822 2023-09-10 02:57:54 Aussentemperatur 19.10 18.93 71.60
117821 2023-09-10 02:57:45 Terrasse 20.80 20.47 58.70
117820 2023-09-10 02:29:39 Aussentemperatur 19.20 19.04 71.30
117819 2023-09-10 02:29:29 Terrasse 21.00 20.67 58.10
117818 2023-09-10 02:28:36 Bahnzimmer 20.00 20.00 74.30
117817 2023-09-10 02:01:24 Aussentemperatur 19.40 19.25 71.10
117816 2023-09-10 02:01:13 Terrasse 21.30 20.99 57.70
117815 2023-09-10 01:58:36 Bahnzimmer 20.00 20.00 74.30
117814 2023-09-10 01:33:11 Aussentemperatur 19.50 19.35 70.70
117813 2023-09-10 01:32:57 Terrasse 21.40 21.09 57.30
117812 2023-09-10 01:28:35 Bahnzimmer 20.00 20.00 74.30
117811 2023-09-10 01:04:56 Aussentemperatur 19.60 19.45 70.10
117810 2023-09-10 01:04:41 Terrasse 21.70 21.40 56.60
117809 2023-09-10 00:58:34 Bahnzimmer 20.00 20.00 74.30
117808 2023-09-10 00:36:41 Aussentemperatur 19.70 19.54 69.40
117807 2023-09-10 00:36:24 Terrasse 21.90 21.60 55.60
117806 2023-09-10 00:28:34 Bahnzimmer 20.00 20.00 74.30
117805 2023-09-10 00:08:27 Aussentemperatur 19.90 19.74 68.70
117804 2023-09-10 00:08:09 Terrasse 22.00 21.69 54.80
117803 2023-09-09 23:58:33 Bahnzimmer 20.00 20.00 74.30
117802 2023-09-09 23:40:13 Aussentemperatur 20.00 19.85 68.70
117801 2023-09-09 23:39:54 Terrasse 22.30 22.01 54.50
117800 2023-09-09 23:28:32 Bahnzimmer 20.00 20.00 74.30
117799 2023-09-09 23:12:00 Aussentemperatur 20.20 20.08 69.30
117798 2023-09-09 23:11:37 Terrasse 22.60 22.34 54.50
117797 2023-09-09 22:58:32 Bahnzimmer 20.00 20.00 74.30
117796 2023-09-09 22:43:45 Aussentemperatur 20.30 20.21 69.70
117795 2023-09-09 22:43:21 Terrasse 22.90 22.66 54.30
117794 2023-09-09 22:28:31 Bahnzimmer 20.00 20.00 74.30
117793 2023-09-09 22:15:31 Aussentemperatur 20.70 20.65 69.70
117792 2023-09-09 22:15:07 Terrasse 23.40 23.20 53.80
117791 2023-09-09 21:58:30 Bahnzimmer 20.00 20.00 74.40
117790 2023-09-09 21:47:16 Aussentemperatur 21.10 21.10 70.10
117789 2023-09-09 21:46:52 Terrasse 23.80 23.65 54.10
117788 2023-09-09 21:28:30 Bahnzimmer 20.00 20.00 74.40
117787 2023-09-09 21:19:02 Aussentemperatur 21.40 21.44 70.70
117786 2023-09-09 21:18:37 Terrasse 24.20 24.09 54.30
117785 2023-09-09 20:58:29 Bahnzimmer 20.00 20.00 74.40
117784 2023-09-09 20:50:49 Aussentemperatur 21.70 21.78 70.90
117783 2023-09-09 20:50:24 Terrasse 24.70 24.65 54.70
117782 2023-09-09 20:28:28 Bahnzimmer 20.00 20.00 74.40
117781 2023-09-09 20:22:35 Aussentemperatur 22.20 22.30 70.00
117780 2023-09-09 20:22:11 Terrasse 25.50 25.51 53.80
117779 2023-09-09 19:58:28 Bahnzimmer 20.10 20.11 74.40
117778 2023-09-09 19:54:22 Aussentemperatur 22.70 22.83 69.10
117777 2023-09-09 19:53:55 Terrasse 25.90 25.94 53.50
117776 2023-09-09 19:28:27 Bahnzimmer 20.10 20.11 74.40
117775 2023-09-09 19:26:09 Aussentemperatur 23.20 23.36 68.20
117774 2023-09-09 19:25:43 Terrasse 26.90 27.50 52.90
117773 2023-09-09 18:58:27 Bahnzimmer 20.10 20.11 74.40
117772 2023-09-09 18:57:57 Aussentemperatur 23.90 24.04 64.80
117771 2023-09-09 18:57:29 Terrasse 27.80 28.10 48.40
117770 2023-09-09 18:29:47 Aussentemperatur 24.70 24.83 61.30
117769 2023-09-09 18:29:14 Terrasse 28.30 28.46 46.50
117768 2023-09-09 18:28:26 Bahnzimmer 20.10 20.11 74.40
117767 2023-09-09 18:01:33 Aussentemperatur 25.20 25.33 59.40
117766 2023-09-09 18:00:59 Terrasse 29.00 29.14 45.40
117765 2023-09-09 17:58:25 Bahnzimmer 20.10 20.11 74.40
117764 2023-09-09 17:33:18 Aussentemperatur 25.50 25.65 59.20
117763 2023-09-09 17:32:44 Terrasse 29.50 29.61 44.40
117762 2023-09-09 17:28:25 Bahnzimmer 20.10 20.11 74.50
117761 2023-09-09 17:05:03 Aussentemperatur 25.60 25.73 58.20
117760 2023-09-09 17:04:29 Terrasse 30.00 30.13 43.60
117759 2023-09-09 16:58:24 Bahnzimmer 20.10 20.11 74.50
117758 2023-09-09 16:36:48 Aussentemperatur 25.80 25.96 58.30
117757 2023-09-09 16:36:15 Terrasse 30.60 30.85 43.20
117756 2023-09-09 16:28:23 Bahnzimmer 20.10 20.11 74.60
117755 2023-09-09 16:08:32 Aussentemperatur 26.00 26.83 57.20
117754 2023-09-09 16:07:57 Terrasse 30.90 31.33 43.60
117753 2023-09-09 15:58:23 Bahnzimmer 20.10 20.12 74.70
117752 2023-09-09 15:40:14 Aussentemperatur 25.80 25.92 56.90
117751 2023-09-09 15:39:38 Terrasse 30.70 30.93 42.80
117750 2023-09-09 15:28:22 Bahnzimmer 20.10 20.12 74.80
117749 2023-09-09 15:11:57 Aussentemperatur 25.50 25.60 57.30
117748 2023-09-09 15:11:19 Terrasse 30.50 30.76 43.50
117747 2023-09-09 14:58:21 Bahnzimmer 20.20 20.23 74.80
117746 2023-09-09 14:43:41 Aussentemperatur 25.60 25.71 57.20
117745 2023-09-09 14:43:04 Terrasse 30.80 31.09 43.00
117744 2023-09-09 14:28:21 Bahnzimmer 20.10 20.13 75.10
117743 2023-09-09 14:15:25 Aussentemperatur 25.80 25.95 58.10
117742 2023-09-09 14:14:49 Terrasse 31.20 31.63 42.90
117741 2023-09-09 13:58:20 Bahnzimmer 20.10 20.13 75.20
117740 2023-09-09 13:47:07 Aussentemperatur 25.50 25.64 58.80
117739 2023-09-09 13:46:46 Terrasse 32.60 33.68 42.50
117738 2023-09-09 13:28:19 Bahnzimmer 20.10 20.14 75.60
117737 2023-09-09 13:18:53 Aussentemperatur 25.60 25.78 59.90
117736 2023-09-09 13:18:41 Terrasse 34.90 37.12 40.30
117735 2023-09-09 12:58:19 Bahnzimmer 20.50 20.61 76.60
117734 2023-09-09 12:50:56 Aussentemperatur 26.10 27.13 62.50
117733 2023-09-09 12:49:53 Terrasse 32.40 33.79 44.50
117732 2023-09-09 12:28:18 Bahnzimmer 19.90 19.88 74.10
117731 2023-09-09 12:22:29 Aussentemperatur 23.60 23.84 69.90
117730 2023-09-09 12:20:54 Terrasse 25.80 25.80 52.30
117729 2023-09-09 11:58:17 Bahnzimmer 19.70 19.65 73.60
117728 2023-09-09 11:53:48 Aussentemperatur 20.60 20.60 72.00
117727 2023-09-09 11:52:30 Terrasse 24.20 24.18 57.70
117726 2023-09-09 11:28:17 Bahnzimmer 19.70 19.65 73.60
117725 2023-09-09 11:25:29 Aussentemperatur 19.90 19.86 73.50
117724 2023-09-09 11:24:03 Terrasse 23.10 23.01 59.30
117723 2023-09-09 10:58:16 Bahnzimmer 19.60 19.54 73.70
117722 2023-09-09 10:57:10 Aussentemperatur 19.10 19.01 74.40
117721 2023-09-09 10:55:39 Terrasse 21.90 21.73 60.80
117720 2023-09-09 10:28:53 Aussentemperatur 18.60 18.48 75.20
117719 2023-09-09 10:28:15 Bahnzimmer 19.50 19.44 74.00
117718 2023-09-09 10:27:15 Terrasse 20.90 20.67 62.20
117717 2023-09-09 10:00:37 Aussentemperatur 18.60 18.47 74.70
117716 2023-09-09 09:58:50 Terrasse 20.00 19.73 64.00
117715 2023-09-09 09:58:15 Bahnzimmer 19.30 19.24 74.90
117714 2023-09-09 09:32:20 Aussentemperatur 18.10 17.92 74.90
117713 2023-09-09 09:30:29 Terrasse 19.30 18.97 64.50
117712 2023-09-09 09:28:14 Bahnzimmer 19.00 18.95 76.30
117711 2023-09-09 09:04:04 Aussentemperatur 17.70 17.50 75.50
117710 2023-09-09 09:02:07 Terrasse 18.60 18.24 66.20
117709 2023-09-09 08:58:13 Bahnzimmer 19.20 19.11 74.00
117708 2023-09-09 08:35:48 Aussentemperatur 17.40 17.15 75.00
117707 2023-09-09 08:33:46 Terrasse 18.00 17.60 66.80
117706 2023-09-09 08:28:13 Bahnzimmer 19.00 18.86 72.90
117705 2023-09-09 08:07:32 Aussentemperatur 17.20 16.89 73.50
117704 2023-09-09 08:05:26 Terrasse 17.50 17.01 65.30
117703 2023-09-09 07:58:12 Bahnzimmer 19.90 19.86 73.40
117702 2023-09-09 07:39:17 Aussentemperatur 17.00 16.65 72.70
117701 2023-09-09 07:37:08 Terrasse 17.60 17.07 63.20
117700 2023-09-09 07:28:11 Bahnzimmer 19.90 19.86 73.40
117699 2023-09-09 07:11:04 Aussentemperatur 17.00 16.64 72.30
117698 2023-09-09 07:08:59 Terrasse 17.80 17.24 61.60
117697 2023-09-09 06:58:10 Bahnzimmer 19.90 19.86 73.30
117696 2023-09-09 06:42:49 Aussentemperatur 17.20 16.85 71.90
117695 2023-09-09 06:40:55 Terrasse 18.10 17.55 60.70
117694 2023-09-09 06:28:10 Bahnzimmer 19.90 19.86 73.30
117693 2023-09-09 06:14:34 Aussentemperatur 17.20 16.84 71.60
117692 2023-09-09 05:58:09 Bahnzimmer 19.90 19.86 73.30
117691 2023-09-09 05:46:19 Aussentemperatur 17.40 17.05 71.10
117690 2023-09-09 05:28:08 Bahnzimmer 19.90 19.86 73.30
117689 2023-09-09 05:18:06 Aussentemperatur 17.60 17.26 70.70
117688 2023-09-09 05:10:01 Terrasse 18.80 18.28 59.00
117687 2023-09-09 04:58:08 Bahnzimmer 20.00 19.97 73.30
117686 2023-09-09 04:49:53 Aussentemperatur 17.80 17.47 70.30
117685 2023-09-09 04:28:07 Bahnzimmer 20.00 19.97 73.20
117684 2023-09-09 04:21:43 Aussentemperatur 18.00 17.68 69.70
117683 2023-09-09 04:11:07 Terrasse 19.40 18.89 57.30
117682 2023-09-09 03:58:06 Bahnzimmer 20.00 19.97 73.30
117681 2023-09-09 03:53:28 Aussentemperatur 18.20 17.88 69.00
117680 2023-09-09 03:42:52 Terrasse 19.60 19.10 56.90
117679 2023-09-09 03:28:06 Bahnzimmer 20.00 19.97 73.30
117678 2023-09-09 03:25:13 Aussentemperatur 18.40 18.09 68.80
117677 2023-09-09 03:14:53 Terrasse 19.80 19.30 56.00
117676 2023-09-09 02:58:05 Bahnzimmer 20.00 19.97 73.20
117675 2023-09-09 02:56:58 Aussentemperatur 18.60 18.29 68.10
117674 2023-09-09 02:46:46 Terrasse 20.00 19.51 55.80
117673 2023-09-09 02:28:45 Aussentemperatur 18.70 18.41 68.30
117672 2023-09-09 02:28:05 Bahnzimmer 20.00 19.97 73.30
117671 2023-09-09 02:18:31 Terrasse 20.30 19.82 55.10
117670 2023-09-09 02:00:30 Aussentemperatur 18.70 18.41 68.40
117669 2023-09-09 01:58:04 Bahnzimmer 20.00 19.97 73.20
117668 2023-09-09 01:32:15 Aussentemperatur 18.90 18.62 68.00
117667 2023-09-09 01:28:03 Bahnzimmer 20.00 19.97 73.20
117666 2023-09-09 01:16:52 Terrasse 20.60 20.15 55.00
117665 2023-09-09 01:04:01 Aussentemperatur 19.00 18.74 68.50
117664 2023-09-09 00:58:03 Bahnzimmer 20.00 19.97 73.20
117663 2023-09-09 00:48:49 Terrasse 20.90 20.47 54.60
117662 2023-09-09 00:35:48 Aussentemperatur 19.30 19.06 68.10
117661 2023-09-09 00:28:02 Bahnzimmer 20.00 19.97 73.20
117660 2023-09-09 00:20:43 Terrasse 21.40 21.00 53.90
117659 2023-09-09 00:07:34 Aussentemperatur 19.50 19.29 68.20
117658 2023-09-08 23:58:01 Bahnzimmer 20.00 19.97 73.20
117657 2023-09-08 23:52:21 Terrasse 21.50 21.12 54.10
117656 2023-09-08 23:39:19 Aussentemperatur 19.50 19.30 68.60
117655 2023-09-08 23:28:01 Bahnzimmer 20.00 19.97 73.20
117654 2023-09-08 23:24:21 Terrasse 21.70 21.35 54.40
117653 2023-09-08 23:11:06 Aussentemperatur 19.60 19.40 68.30
117652 2023-09-08 22:58:00 Bahnzimmer 20.00 19.97 73.20
117651 2023-09-08 22:42:52 Aussentemperatur 19.90 19.71 67.50
117650 2023-09-08 22:27:59 Bahnzimmer 20.10 20.08 73.20
117649 2023-09-08 22:24:37 Terrasse 22.30 21.97 52.90
117648 2023-09-08 22:14:37 Aussentemperatur 20.10 19.91 67.00
117647 2023-09-08 21:57:59 Bahnzimmer 20.10 20.08 73.20
117646 2023-09-08 21:56:11 Terrasse 22.60 22.27 51.80
117645 2023-09-08 21:46:23 Aussentemperatur 20.40 20.23 66.50
117644 2023-09-08 21:27:58 Bahnzimmer 20.10 20.07 73.10
117643 2023-09-08 21:18:08 Aussentemperatur 20.50 20.35 66.70
117642 2023-09-08 20:57:58 Bahnzimmer 20.10 20.07 73.10
117641 2023-09-08 20:49:55 Aussentemperatur 20.90 20.77 66.10
117640 2023-09-08 20:27:57 Bahnzimmer 20.20 20.18 73.00
117639 2023-09-08 20:24:30 Terrasse 24.20 23.99 50.50
117638 2023-09-08 20:21:43 Aussentemperatur 21.40 21.28 64.50
117637 2023-09-08 19:57:56 Bahnzimmer 20.30 20.29 72.90
117636 2023-09-08 19:56:19 Terrasse 25.20 25.06 49.10
117635 2023-09-08 19:53:32 Aussentemperatur 22.20 22.12 63.10
117634 2023-09-08 19:28:08 Terrasse 26.30 26.69 47.30
117633 2023-09-08 19:27:56 Bahnzimmer 20.30 20.29 73.00
117632 2023-09-08 19:25:20 Aussentemperatur 22.90 22.83 60.70
117631 2023-09-08 18:59:56 Terrasse 27.00 27.08 44.20
117630 2023-09-08 18:57:55 Bahnzimmer 20.40 20.40 73.00
117629 2023-09-08 18:57:08 Aussentemperatur 23.60 23.54 58.50
117628 2023-09-08 18:31:43 Terrasse 27.80 27.67 42.70
117627 2023-09-08 18:28:56 Aussentemperatur 24.30 24.27 57.00
117626 2023-09-08 18:27:54 Bahnzimmer 20.50 20.51 72.90
117625 2023-09-08 18:03:29 Terrasse 28.40 28.25 42.90
117624 2023-09-08 18:00:43 Aussentemperatur 25.00 24.99 55.00
117623 2023-09-08 17:57:54 Bahnzimmer 20.50 20.50 72.70
117622 2023-09-08 17:35:15 Terrasse 29.00 28.68 40.80
117621 2023-09-08 17:32:28 Aussentemperatur 25.20 25.17 53.30
117620 2023-09-08 17:27:53 Bahnzimmer 20.50 20.50 72.60
117619 2023-09-08 17:07:02 Terrasse 29.70 29.37 40.20
117618 2023-09-08 17:04:13 Aussentemperatur 25.50 25.51 53.70
117617 2023-09-08 16:57:52 Bahnzimmer 20.60 20.61 72.50
117616 2023-09-08 16:38:45 Terrasse 30.10 29.82 40.10
117615 2023-09-08 16:35:58 Aussentemperatur 25.60 25.60 52.90
117614 2023-09-08 16:27:52 Bahnzimmer 20.80 20.82 72.30
117613 2023-09-08 16:10:29 Terrasse 30.50 30.09 38.50
117612 2023-09-08 16:07:42 Aussentemperatur 25.70 25.71 52.90
117611 2023-09-08 15:57:51 Bahnzimmer 20.90 20.92 71.80
117610 2023-09-08 15:42:10 Terrasse 30.70 30.42 39.20
117609 2023-09-08 15:39:25 Aussentemperatur 25.50 25.53 54.50
117608 2023-09-08 15:27:50 Bahnzimmer 20.80 20.82 72.10
117607 2023-09-08 15:13:54 Terrasse 30.70 30.63 40.70
117606 2023-09-08 15:11:09 Aussentemperatur 25.30 25.29 53.90
117605 2023-09-08 14:57:50 Bahnzimmer 21.00 21.02 71.50
117604 2023-09-08 14:45:39 Terrasse 31.00 30.99 40.50
117603 2023-09-08 14:42:52 Aussentemperatur 25.20 25.21 55.00
117602 2023-09-08 14:27:49 Bahnzimmer 21.00 21.00 70.80
117601 2023-09-08 14:17:25 Terrasse 31.40 31.41 39.80
117600 2023-09-08 14:14:34 Aussentemperatur 24.90 24.87 54.70
117599 2023-09-08 13:57:48 Bahnzimmer 20.90 20.90 71.20
117598 2023-09-08 13:49:19 Terrasse 32.20 32.31 38.60
117597 2023-09-08 13:46:16 Aussentemperatur 24.80 24.76 54.60
117596 2023-09-08 13:27:48 Bahnzimmer 20.70 20.73 72.90
117595 2023-09-08 13:21:17 Terrasse 34.90 36.21 37.10
117594 2023-09-08 13:18:03 Aussentemperatur 25.10 25.11 55.20
117593 2023-09-08 12:57:47 Bahnzimmer 20.50 20.53 73.70
117592 2023-09-08 12:52:33 Terrasse 33.40 34.42 40.00
117591 2023-09-08 12:50:14 Aussentemperatur 26.00 26.81 56.70
117590 2023-09-08 12:27:47 Bahnzimmer 20.30 20.30 73.30
117589 2023-09-08 12:23:28 Terrasse 26.50 26.90 48.60
117588 2023-09-08 12:21:41 Aussentemperatur 23.50 23.60 64.90
117587 2023-09-08 11:57:46 Bahnzimmer 20.10 20.07 72.80
117586 2023-09-08 11:55:02 Terrasse 24.70 24.56 51.20
117585 2023-09-08 11:53:03 Aussentemperatur 20.60 20.45 66.40
117584 2023-09-08 11:27:45 Bahnzimmer 19.90 19.85 73.00
117583 2023-09-08 11:26:37 Terrasse 23.60 23.40 52.90
117582 2023-09-08 11:24:45 Aussentemperatur 20.00 19.82 67.40
117581 2023-09-08 10:58:14 Terrasse 22.60 22.28 52.20
117580 2023-09-08 10:57:45 Bahnzimmer 20.00 19.96 72.90
117579 2023-09-08 10:56:28 Aussentemperatur 19.50 19.27 67.40
117578 2023-09-08 10:29:50 Terrasse 21.70 21.36 54.90
117577 2023-09-08 10:28:12 Aussentemperatur 19.50 19.26 67.20
117576 2023-09-08 10:27:44 Bahnzimmer 19.80 19.73 72.60
117575 2023-09-08 10:01:30 Terrasse 21.10 20.71 55.50
117574 2023-09-08 09:59:53 Aussentemperatur 19.20 18.94 67.50
117573 2023-09-08 09:57:43 Bahnzimmer 19.60 19.51 72.40
117572 2023-09-08 09:33:08 Terrasse 20.50 20.12 57.90
117571 2023-09-08 09:31:36 Aussentemperatur 18.80 18.53 68.80
117570 2023-09-08 09:27:43 Bahnzimmer 19.40 19.28 72.00
117569 2023-09-08 09:04:49 Terrasse 20.10 19.65 56.80
117568 2023-09-08 09:03:19 Aussentemperatur 18.50 18.19 68.40
117567 2023-09-08 08:57:42 Bahnzimmer 19.40 19.26 71.60
117566 2023-09-08 08:36:29 Terrasse 19.70